<?xml version="1.0" encoding="UTF-8" standalone="no" ?>
<gpx xmlns="http://www.topografix.com/GPX/1/1" xmlns:xsi="http://www.w3.org/2001/XMLSchema-instance" xsi:schemaLocation="http://www.topografix.com/GPX/1/1 http://www.topografix.com/GPX/1/1/gpx.xsd" version="1.1" creator="VisuGPX - https://www.visugpx.com">
  <metadata>
    <name>Remontée de l'Oise en pirogue</name>
    <desc><![CDATA[Mise à l'eau de la pirogue aux anciennes écluses de Carrières-sous-Poissy, puis remontée de la Seine et de l'Oise jusqu'au port de plaisance de Cergy, en faisant deux pauses casse-croûte. Redescente d'une seule traite jusqu'au point de départ.]]></desc>
  </metadata>
  <trk>
    <name><![CDATA[26 nov. 2017 09:48:06]]></name>
    <trkseg>
      <trkpt lat="48.95223" lon="2.04568">
        <ele>65</ele>
        <time>2017-11-26T08:48:08.000Z</time>
      </trkpt>
      <trkpt lat="48.95235" lon="2.04574">
        <ele>65</ele>
        <time>2017-11-26T08:50:30.000Z</time>
      </trkpt>
      <trkpt lat="48.95248" lon="2.04576">
        <ele>65</ele>
        <time>2017-11-26T08:50:38.000Z</time>
      </trkpt>
      <trkpt lat="48.95259" lon="2.04578">
        <ele>65</ele>
        <time>2017-11-26T08:50:46.000Z</time>
      </trkpt>
      <trkpt lat="48.95273" lon="2.04578">
        <ele>64</ele>
        <time>2017-11-26T08:50:54.000Z</time>
      </trkpt>
      <trkpt lat="48.95283" lon="2.04581">
        <ele>63</ele>
        <time>2017-11-26T08:51:00.000Z</time>
      </trkpt>
      <trkpt lat="48.95294" lon="2.04581">
        <ele>64</ele>
        <time>2017-11-26T08:51:07.000Z</time>
      </trkpt>
      <trkpt lat="48.95303" lon="2.04581">
        <ele>65</ele>
        <time>2017-11-26T08:51:14.000Z</time>
      </trkpt>
      <trkpt lat="48.95313" lon="2.04582">
        <ele>66</ele>
        <time>2017-11-26T08:51:21.000Z</time>
      </trkpt>
      <trkpt lat="48.95324" lon="2.04585">
        <ele>66</ele>
        <time>2017-11-26T08:51:27.000Z</time>
      </trkpt>
      <trkpt lat="48.95334" lon="2.04586">
        <ele>66</ele>
        <time>2017-11-26T08:51:34.000Z</time>
      </trkpt>
      <trkpt lat="48.95346" lon="2.0459">
        <ele>67</ele>
        <time>2017-11-26T08:51:40.000Z</time>
      </trkpt>
      <trkpt lat="48.95355" lon="2.04595">
        <ele>67</ele>
        <time>2017-11-26T08:51:47.000Z</time>
      </trkpt>
      <trkpt lat="48.95364" lon="2.04597">
        <ele>65</ele>
        <time>2017-11-26T08:51:55.000Z</time>
      </trkpt>
      <trkpt lat="48.95374" lon="2.04603">
        <ele>66</ele>
        <time>2017-11-26T08:52:02.000Z</time>
      </trkpt>
      <trkpt lat="48.95385" lon="2.04611">
        <ele>64</ele>
        <time>2017-11-26T08:52:10.000Z</time>
      </trkpt>
      <trkpt lat="48.95393" lon="2.04613">
        <ele>64</ele>
        <time>2017-11-26T08:52:17.000Z</time>
      </trkpt>
      <trkpt lat="48.95406" lon="2.04616">
        <ele>62</ele>
        <time>2017-11-26T08:52:25.000Z</time>
      </trkpt>
      <trkpt lat="48.95415" lon="2.04617">
        <ele>61</ele>
        <time>2017-11-26T08:52:31.000Z</time>
      </trkpt>
      <trkpt lat="48.95424" lon="2.04619">
        <ele>63</ele>
        <time>2017-11-26T08:52:38.000Z</time>
      </trkpt>
      <trkpt lat="48.95437" lon="2.04624">
        <ele>63</ele>
        <time>2017-11-26T08:52:46.000Z</time>
      </trkpt>
      <trkpt lat="48.95449" lon="2.04625">
        <ele>60</ele>
        <time>2017-11-26T08:52:54.000Z</time>
      </trkpt>
      <trkpt lat="48.95459" lon="2.04624">
        <ele>63</ele>
        <time>2017-11-26T08:53:02.000Z</time>
      </trkpt>
      <trkpt lat="48.95469" lon="2.04625">
        <ele>62</ele>
        <time>2017-11-26T08:53:11.000Z</time>
      </trkpt>
      <trkpt lat="48.95479" lon="2.04621">
        <ele>62</ele>
        <time>2017-11-26T08:53:19.000Z</time>
      </trkpt>
      <trkpt lat="48.9549" lon="2.04613">
        <ele>64</ele>
        <time>2017-11-26T08:53:26.000Z</time>
      </trkpt>
      <trkpt lat="48.95498" lon="2.04608">
        <ele>64</ele>
        <time>2017-11-26T08:53:31.000Z</time>
      </trkpt>
      <trkpt lat="48.95508" lon="2.04608">
        <ele>63</ele>
        <time>2017-11-26T08:53:39.000Z</time>
      </trkpt>
      <trkpt lat="48.9552" lon="2.04605">
        <ele>64</ele>
        <time>2017-11-26T08:53:48.000Z</time>
      </trkpt>
      <trkpt lat="48.9553" lon="2.04605">
        <ele>62</ele>
        <time>2017-11-26T08:53:54.000Z</time>
      </trkpt>
      <trkpt lat="48.95539" lon="2.04602">
        <ele>62</ele>
        <time>2017-11-26T08:54:01.000Z</time>
      </trkpt>
      <trkpt lat="48.95551" lon="2.046">
        <ele>63</ele>
        <time>2017-11-26T08:54:09.000Z</time>
      </trkpt>
      <trkpt lat="48.95561" lon="2.04601">
        <ele>64</ele>
        <time>2017-11-26T08:54:15.000Z</time>
      </trkpt>
      <trkpt lat="48.95571" lon="2.04602">
        <ele>64</ele>
        <time>2017-11-26T08:54:22.000Z</time>
      </trkpt>
      <trkpt lat="48.95581" lon="2.04601">
        <ele>66</ele>
        <time>2017-11-26T08:54:28.000Z</time>
      </trkpt>
      <trkpt lat="48.95591" lon="2.04601">
        <ele>64</ele>
        <time>2017-11-26T08:54:36.000Z</time>
      </trkpt>
      <trkpt lat="48.95601" lon="2.04603">
        <ele>64</ele>
        <time>2017-11-26T08:54:43.000Z</time>
      </trkpt>
      <trkpt lat="48.95611" lon="2.04605">
        <ele>65</ele>
        <time>2017-11-26T08:54:50.000Z</time>
      </trkpt>
      <trkpt lat="48.95624" lon="2.04604">
        <ele>65</ele>
        <time>2017-11-26T08:54:58.000Z</time>
      </trkpt>
      <trkpt lat="48.95633" lon="2.04606">
        <ele>62</ele>
        <time>2017-11-26T08:55:05.000Z</time>
      </trkpt>
      <trkpt lat="48.95644" lon="2.04603">
        <ele>62</ele>
        <time>2017-11-26T08:55:13.000Z</time>
      </trkpt>
      <trkpt lat="48.95656" lon="2.04605">
        <ele>63</ele>
        <time>2017-11-26T08:55:21.000Z</time>
      </trkpt>
      <trkpt lat="48.95665" lon="2.04602">
        <ele>63</ele>
        <time>2017-11-26T08:55:28.000Z</time>
      </trkpt>
      <trkpt lat="48.95677" lon="2.04604">
        <ele>63</ele>
        <time>2017-11-26T08:55:36.000Z</time>
      </trkpt>
      <trkpt lat="48.95689" lon="2.04605">
        <ele>63</ele>
        <time>2017-11-26T08:55:44.000Z</time>
      </trkpt>
      <trkpt lat="48.95699" lon="2.04604">
        <ele>62</ele>
        <time>2017-11-26T08:55:50.000Z</time>
      </trkpt>
      <trkpt lat="48.95709" lon="2.046">
        <ele>65</ele>
        <time>2017-11-26T08:55:57.000Z</time>
      </trkpt>
      <trkpt lat="48.95719" lon="2.04603">
        <ele>66</ele>
        <time>2017-11-26T08:56:05.000Z</time>
      </trkpt>
      <trkpt lat="48.95728" lon="2.04602">
        <ele>65</ele>
        <time>2017-11-26T08:56:12.000Z</time>
      </trkpt>
      <trkpt lat="48.95738" lon="2.04602">
        <ele>65</ele>
        <time>2017-11-26T08:56:17.000Z</time>
      </trkpt>
      <trkpt lat="48.95748" lon="2.04601">
        <ele>65</ele>
        <time>2017-11-26T08:56:23.000Z</time>
      </trkpt>
      <trkpt lat="48.95757" lon="2.04601">
        <ele>63</ele>
        <time>2017-11-26T08:56:29.000Z</time>
      </trkpt>
      <trkpt lat="48.9577" lon="2.04602">
        <ele>65</ele>
        <time>2017-11-26T08:56:38.000Z</time>
      </trkpt>
      <trkpt lat="48.95782" lon="2.04601">
        <ele>62</ele>
        <time>2017-11-26T08:56:45.000Z</time>
      </trkpt>
      <trkpt lat="48.95792" lon="2.046">
        <ele>63</ele>
        <time>2017-11-26T08:56:52.000Z</time>
      </trkpt>
      <trkpt lat="48.95804" lon="2.046">
        <ele>63</ele>
        <time>2017-11-26T08:57:00.000Z</time>
      </trkpt>
      <trkpt lat="48.95813" lon="2.04602">
        <ele>64</ele>
        <time>2017-11-26T08:57:07.000Z</time>
      </trkpt>
      <trkpt lat="48.95824" lon="2.04602">
        <ele>63</ele>
        <time>2017-11-26T08:57:14.000Z</time>
      </trkpt>
      <trkpt lat="48.95835" lon="2.04603">
        <ele>64</ele>
        <time>2017-11-26T08:57:22.000Z</time>
      </trkpt>
      <trkpt lat="48.95844" lon="2.04603">
        <ele>64</ele>
        <time>2017-11-26T08:57:28.000Z</time>
      </trkpt>
      <trkpt lat="48.95854" lon="2.04602">
        <ele>63</ele>
        <time>2017-11-26T08:57:35.000Z</time>
      </trkpt>
      <trkpt lat="48.95864" lon="2.04603">
        <ele>64</ele>
        <time>2017-11-26T08:57:42.000Z</time>
      </trkpt>
      <trkpt lat="48.95875" lon="2.04601">
        <ele>64</ele>
        <time>2017-11-26T08:57:51.000Z</time>
      </trkpt>
      <trkpt lat="48.95884" lon="2.046">
        <ele>63</ele>
        <time>2017-11-26T08:57:57.000Z</time>
      </trkpt>
      <trkpt lat="48.95895" lon="2.046">
        <ele>63</ele>
        <time>2017-11-26T08:58:04.000Z</time>
      </trkpt>
      <trkpt lat="48.95904" lon="2.046">
        <ele>63</ele>
        <time>2017-11-26T08:58:10.000Z</time>
      </trkpt>
      <trkpt lat="48.95915" lon="2.04602">
        <ele>63</ele>
        <time>2017-11-26T08:58:18.000Z</time>
      </trkpt>
      <trkpt lat="48.95927" lon="2.04603">
        <ele>61</ele>
        <time>2017-11-26T08:58:26.000Z</time>
      </trkpt>
      <trkpt lat="48.95937" lon="2.04603">
        <ele>60</ele>
        <time>2017-11-26T08:58:34.000Z</time>
      </trkpt>
      <trkpt lat="48.95947" lon="2.04603">
        <ele>61</ele>
        <time>2017-11-26T08:58:41.000Z</time>
      </trkpt>
      <trkpt lat="48.95957" lon="2.04602">
        <ele>62</ele>
        <time>2017-11-26T08:58:48.000Z</time>
      </trkpt>
      <trkpt lat="48.95969" lon="2.04602">
        <ele>62</ele>
        <time>2017-11-26T08:58:56.000Z</time>
      </trkpt>
      <trkpt lat="48.95981" lon="2.04602">
        <ele>63</ele>
        <time>2017-11-26T08:59:06.000Z</time>
      </trkpt>
      <trkpt lat="48.95991" lon="2.04603">
        <ele>63</ele>
        <time>2017-11-26T08:59:14.000Z</time>
      </trkpt>
      <trkpt lat="48.96002" lon="2.04603">
        <ele>62</ele>
        <time>2017-11-26T08:59:21.000Z</time>
      </trkpt>
      <trkpt lat="48.96013" lon="2.04603">
        <ele>64</ele>
        <time>2017-11-26T08:59:29.000Z</time>
      </trkpt>
      <trkpt lat="48.96023" lon="2.04602">
        <ele>63</ele>
        <time>2017-11-26T08:59:37.000Z</time>
      </trkpt>
      <trkpt lat="48.96035" lon="2.04603">
        <ele>63</ele>
        <time>2017-11-26T08:59:46.000Z</time>
      </trkpt>
      <trkpt lat="48.96045" lon="2.04605">
        <ele>65</ele>
        <time>2017-11-26T08:59:55.000Z</time>
      </trkpt>
      <trkpt lat="48.96055" lon="2.04604">
        <ele>64</ele>
        <time>2017-11-26T09:00:02.000Z</time>
      </trkpt>
      <trkpt lat="48.96064" lon="2.04603">
        <ele>64</ele>
        <time>2017-11-26T09:00:09.000Z</time>
      </trkpt>
      <trkpt lat="48.96074" lon="2.04601">
        <ele>63</ele>
        <time>2017-11-26T09:00:16.000Z</time>
      </trkpt>
      <trkpt lat="48.96085" lon="2.04601">
        <ele>64</ele>
        <time>2017-11-26T09:00:25.000Z</time>
      </trkpt>
      <trkpt lat="48.96096" lon="2.04606">
        <ele>63</ele>
        <time>2017-11-26T09:00:33.000Z</time>
      </trkpt>
      <trkpt lat="48.96106" lon="2.04608">
        <ele>64</ele>
        <time>2017-11-26T09:00:41.000Z</time>
      </trkpt>
      <trkpt lat="48.96116" lon="2.04608">
        <ele>65</ele>
        <time>2017-11-26T09:00:49.000Z</time>
      </trkpt>
      <trkpt lat="48.96128" lon="2.04607">
        <ele>63</ele>
        <time>2017-11-26T09:00:59.000Z</time>
      </trkpt>
      <trkpt lat="48.96141" lon="2.04609">
        <ele>64</ele>
        <time>2017-11-26T09:01:07.000Z</time>
      </trkpt>
      <trkpt lat="48.96153" lon="2.04611">
        <ele>64</ele>
        <time>2017-11-26T09:01:15.000Z</time>
      </trkpt>
      <trkpt lat="48.96163" lon="2.04613">
        <ele>63</ele>
        <time>2017-11-26T09:01:22.000Z</time>
      </trkpt>
      <trkpt lat="48.96174" lon="2.04616">
        <ele>62</ele>
        <time>2017-11-26T09:01:29.000Z</time>
      </trkpt>
      <trkpt lat="48.96187" lon="2.04618">
        <ele>62</ele>
        <time>2017-11-26T09:01:39.000Z</time>
      </trkpt>
      <trkpt lat="48.96197" lon="2.0462">
        <ele>62</ele>
        <time>2017-11-26T09:01:46.000Z</time>
      </trkpt>
      <trkpt lat="48.96207" lon="2.04621">
        <ele>64</ele>
        <time>2017-11-26T09:01:53.000Z</time>
      </trkpt>
      <trkpt lat="48.96217" lon="2.04622">
        <ele>64</ele>
        <time>2017-11-26T09:02:00.000Z</time>
      </trkpt>
      <trkpt lat="48.96227" lon="2.04625">
        <ele>62</ele>
        <time>2017-11-26T09:02:08.000Z</time>
      </trkpt>
      <trkpt lat="48.96237" lon="2.04627">
        <ele>62</ele>
        <time>2017-11-26T09:02:16.000Z</time>
      </trkpt>
      <trkpt lat="48.96248" lon="2.04627">
        <ele>63</ele>
        <time>2017-11-26T09:02:24.000Z</time>
      </trkpt>
      <trkpt lat="48.96257" lon="2.04628">
        <ele>63</ele>
        <time>2017-11-26T09:02:32.000Z</time>
      </trkpt>
      <trkpt lat="48.96266" lon="2.04627">
        <ele>62</ele>
        <time>2017-11-26T09:02:39.000Z</time>
      </trkpt>
      <trkpt lat="48.96278" lon="2.04628">
        <ele>63</ele>
        <time>2017-11-26T09:02:48.000Z</time>
      </trkpt>
      <trkpt lat="48.96288" lon="2.04629">
        <ele>63</ele>
        <time>2017-11-26T09:02:55.000Z</time>
      </trkpt>
      <trkpt lat="48.963" lon="2.04631">
        <ele>63</ele>
        <time>2017-11-26T09:03:03.000Z</time>
      </trkpt>
      <trkpt lat="48.96312" lon="2.04634">
        <ele>63</ele>
        <time>2017-11-26T09:03:13.000Z</time>
      </trkpt>
      <trkpt lat="48.96322" lon="2.04633">
        <ele>62</ele>
        <time>2017-11-26T09:03:20.000Z</time>
      </trkpt>
      <trkpt lat="48.96331" lon="2.04632">
        <ele>62</ele>
        <time>2017-11-26T09:03:27.000Z</time>
      </trkpt>
      <trkpt lat="48.96341" lon="2.04632">
        <ele>62</ele>
        <time>2017-11-26T09:03:34.000Z</time>
      </trkpt>
      <trkpt lat="48.9635" lon="2.04634">
        <ele>62</ele>
        <time>2017-11-26T09:03:41.000Z</time>
      </trkpt>
      <trkpt lat="48.96362" lon="2.04636">
        <ele>63</ele>
        <time>2017-11-26T09:03:50.000Z</time>
      </trkpt>
      <trkpt lat="48.96372" lon="2.0464">
        <ele>62</ele>
        <time>2017-11-26T09:03:58.000Z</time>
      </trkpt>
      <trkpt lat="48.96381" lon="2.04642">
        <ele>61</ele>
        <time>2017-11-26T09:04:05.000Z</time>
      </trkpt>
      <trkpt lat="48.96391" lon="2.04646">
        <ele>64</ele>
        <time>2017-11-26T09:04:13.000Z</time>
      </trkpt>
      <trkpt lat="48.96401" lon="2.04648">
        <ele>65</ele>
        <time>2017-11-26T09:04:21.000Z</time>
      </trkpt>
      <trkpt lat="48.96412" lon="2.04649">
        <ele>64</ele>
        <time>2017-11-26T09:04:29.000Z</time>
      </trkpt>
      <trkpt lat="48.96423" lon="2.04654">
        <ele>63</ele>
        <time>2017-11-26T09:04:38.000Z</time>
      </trkpt>
      <trkpt lat="48.96433" lon="2.04654">
        <ele>64</ele>
        <time>2017-11-26T09:04:45.000Z</time>
      </trkpt>
      <trkpt lat="48.96442" lon="2.04658">
        <ele>64</ele>
        <time>2017-11-26T09:04:54.000Z</time>
      </trkpt>
      <trkpt lat="48.96451" lon="2.04661">
        <ele>64</ele>
        <time>2017-11-26T09:05:01.000Z</time>
      </trkpt>
      <trkpt lat="48.96461" lon="2.04664">
        <ele>63</ele>
        <time>2017-11-26T09:05:08.000Z</time>
      </trkpt>
      <trkpt lat="48.9647" lon="2.04667">
        <ele>61</ele>
        <time>2017-11-26T09:05:15.000Z</time>
      </trkpt>
      <trkpt lat="48.96482" lon="2.04669">
        <ele>62</ele>
        <time>2017-11-26T09:05:23.000Z</time>
      </trkpt>
      <trkpt lat="48.96491" lon="2.04672">
        <ele>63</ele>
        <time>2017-11-26T09:05:31.000Z</time>
      </trkpt>
      <trkpt lat="48.96502" lon="2.04674">
        <ele>62</ele>
        <time>2017-11-26T09:05:39.000Z</time>
      </trkpt>
      <trkpt lat="48.96514" lon="2.04678">
        <ele>63</ele>
        <time>2017-11-26T09:05:49.000Z</time>
      </trkpt>
      <trkpt lat="48.96524" lon="2.04681">
        <ele>63</ele>
        <time>2017-11-26T09:05:56.000Z</time>
      </trkpt>
      <trkpt lat="48.96535" lon="2.04686">
        <ele>63</ele>
        <time>2017-11-26T09:06:04.000Z</time>
      </trkpt>
      <trkpt lat="48.96546" lon="2.04691">
        <ele>63</ele>
        <time>2017-11-26T09:06:12.000Z</time>
      </trkpt>
      <trkpt lat="48.96555" lon="2.04696">
        <ele>63</ele>
        <time>2017-11-26T09:06:19.000Z</time>
      </trkpt>
      <trkpt lat="48.96564" lon="2.04701">
        <ele>63</ele>
        <time>2017-11-26T09:06:27.000Z</time>
      </trkpt>
      <trkpt lat="48.96574" lon="2.04706">
        <ele>63</ele>
        <time>2017-11-26T09:06:34.000Z</time>
      </trkpt>
      <trkpt lat="48.96583" lon="2.04713">
        <ele>62</ele>
        <time>2017-11-26T09:06:42.000Z</time>
      </trkpt>
      <trkpt lat="48.96593" lon="2.04717">
        <ele>62</ele>
        <time>2017-11-26T09:06:50.000Z</time>
      </trkpt>
      <trkpt lat="48.96602" lon="2.04721">
        <ele>62</ele>
        <time>2017-11-26T09:06:57.000Z</time>
      </trkpt>
      <trkpt lat="48.96611" lon="2.04725">
        <ele>61</ele>
        <time>2017-11-26T09:07:04.000Z</time>
      </trkpt>
      <trkpt lat="48.96622" lon="2.04728">
        <ele>62</ele>
        <time>2017-11-26T09:07:12.000Z</time>
      </trkpt>
      <trkpt lat="48.96632" lon="2.04733">
        <ele>62</ele>
        <time>2017-11-26T09:07:20.000Z</time>
      </trkpt>
      <trkpt lat="48.96643" lon="2.04738">
        <ele>62</ele>
        <time>2017-11-26T09:07:27.000Z</time>
      </trkpt>
      <trkpt lat="48.96652" lon="2.04742">
        <ele>62</ele>
        <time>2017-11-26T09:07:34.000Z</time>
      </trkpt>
      <trkpt lat="48.96661" lon="2.04748">
        <ele>62</ele>
        <time>2017-11-26T09:07:41.000Z</time>
      </trkpt>
      <trkpt lat="48.96669" lon="2.04756">
        <ele>63</ele>
        <time>2017-11-26T09:07:49.000Z</time>
      </trkpt>
      <trkpt lat="48.96679" lon="2.04764">
        <ele>62</ele>
        <time>2017-11-26T09:07:57.000Z</time>
      </trkpt>
      <trkpt lat="48.96689" lon="2.04772">
        <ele>62</ele>
        <time>2017-11-26T09:08:04.000Z</time>
      </trkpt>
      <trkpt lat="48.96698" lon="2.04782">
        <ele>61</ele>
        <time>2017-11-26T09:08:12.000Z</time>
      </trkpt>
      <trkpt lat="48.96707" lon="2.04791">
        <ele>61</ele>
        <time>2017-11-26T09:08:19.000Z</time>
      </trkpt>
      <trkpt lat="48.96717" lon="2.04799">
        <ele>62</ele>
        <time>2017-11-26T09:08:27.000Z</time>
      </trkpt>
      <trkpt lat="48.96725" lon="2.04808">
        <ele>61</ele>
        <time>2017-11-26T09:08:34.000Z</time>
      </trkpt>
      <trkpt lat="48.96733" lon="2.04815">
        <ele>62</ele>
        <time>2017-11-26T09:08:40.000Z</time>
      </trkpt>
      <trkpt lat="48.96742" lon="2.04822">
        <ele>61</ele>
        <time>2017-11-26T09:08:48.000Z</time>
      </trkpt>
      <trkpt lat="48.96751" lon="2.04828">
        <ele>61</ele>
        <time>2017-11-26T09:08:55.000Z</time>
      </trkpt>
      <trkpt lat="48.9676" lon="2.04838">
        <ele>62</ele>
        <time>2017-11-26T09:09:03.000Z</time>
      </trkpt>
      <trkpt lat="48.96769" lon="2.04844">
        <ele>62</ele>
        <time>2017-11-26T09:09:09.000Z</time>
      </trkpt>
      <trkpt lat="48.96777" lon="2.0485">
        <ele>62</ele>
        <time>2017-11-26T09:09:16.000Z</time>
      </trkpt>
      <trkpt lat="48.96785" lon="2.04857">
        <ele>62</ele>
        <time>2017-11-26T09:09:23.000Z</time>
      </trkpt>
      <trkpt lat="48.96793" lon="2.04863">
        <ele>62</ele>
        <time>2017-11-26T09:09:30.000Z</time>
      </trkpt>
      <trkpt lat="48.96801" lon="2.04872">
        <ele>63</ele>
        <time>2017-11-26T09:09:37.000Z</time>
      </trkpt>
      <trkpt lat="48.96809" lon="2.04883">
        <ele>65</ele>
        <time>2017-11-26T09:09:46.000Z</time>
      </trkpt>
      <trkpt lat="48.96818" lon="2.04888">
        <ele>64</ele>
        <time>2017-11-26T09:09:56.000Z</time>
      </trkpt>
      <trkpt lat="48.96829" lon="2.04895">
        <ele>64</ele>
        <time>2017-11-26T09:10:05.000Z</time>
      </trkpt>
      <trkpt lat="48.96839" lon="2.04901">
        <ele>63</ele>
        <time>2017-11-26T09:10:13.000Z</time>
      </trkpt>
      <trkpt lat="48.96849" lon="2.04907">
        <ele>63</ele>
        <time>2017-11-26T09:10:21.000Z</time>
      </trkpt>
      <trkpt lat="48.96859" lon="2.04914">
        <ele>64</ele>
        <time>2017-11-26T09:10:29.000Z</time>
      </trkpt>
      <trkpt lat="48.9687" lon="2.04921">
        <ele>64</ele>
        <time>2017-11-26T09:10:38.000Z</time>
      </trkpt>
      <trkpt lat="48.9688" lon="2.04928">
        <ele>64</ele>
        <time>2017-11-26T09:10:46.000Z</time>
      </trkpt>
      <trkpt lat="48.96888" lon="2.04934">
        <ele>63</ele>
        <time>2017-11-26T09:10:53.000Z</time>
      </trkpt>
      <trkpt lat="48.96897" lon="2.04942">
        <ele>63</ele>
        <time>2017-11-26T09:11:00.000Z</time>
      </trkpt>
      <trkpt lat="48.96906" lon="2.0495">
        <ele>63</ele>
        <time>2017-11-26T09:11:07.000Z</time>
      </trkpt>
      <trkpt lat="48.96915" lon="2.04955">
        <ele>64</ele>
        <time>2017-11-26T09:11:14.000Z</time>
      </trkpt>
      <trkpt lat="48.96926" lon="2.04962">
        <ele>64</ele>
        <time>2017-11-26T09:11:22.000Z</time>
      </trkpt>
      <trkpt lat="48.96935" lon="2.04968">
        <ele>64</ele>
        <time>2017-11-26T09:11:29.000Z</time>
      </trkpt>
      <trkpt lat="48.96944" lon="2.04976">
        <ele>64</ele>
        <time>2017-11-26T09:11:37.000Z</time>
      </trkpt>
      <trkpt lat="48.96952" lon="2.04982">
        <ele>63</ele>
        <time>2017-11-26T09:11:43.000Z</time>
      </trkpt>
      <trkpt lat="48.96962" lon="2.04991">
        <ele>64</ele>
        <time>2017-11-26T09:11:52.000Z</time>
      </trkpt>
      <trkpt lat="48.96971" lon="2.04995">
        <ele>63</ele>
        <time>2017-11-26T09:11:59.000Z</time>
      </trkpt>
      <trkpt lat="48.96979" lon="2.05">
        <ele>63</ele>
        <time>2017-11-26T09:12:06.000Z</time>
      </trkpt>
      <trkpt lat="48.96988" lon="2.05007">
        <ele>61</ele>
        <time>2017-11-26T09:12:14.000Z</time>
      </trkpt>
      <trkpt lat="48.96996" lon="2.05012">
        <ele>61</ele>
        <time>2017-11-26T09:12:21.000Z</time>
      </trkpt>
      <trkpt lat="48.97006" lon="2.05018">
        <ele>62</ele>
        <time>2017-11-26T09:12:28.000Z</time>
      </trkpt>
      <trkpt lat="48.97015" lon="2.05024">
        <ele>63</ele>
        <time>2017-11-26T09:12:35.000Z</time>
      </trkpt>
      <trkpt lat="48.97025" lon="2.05034">
        <ele>62</ele>
        <time>2017-11-26T09:12:44.000Z</time>
      </trkpt>
      <trkpt lat="48.97036" lon="2.0504">
        <ele>63</ele>
        <time>2017-11-26T09:12:52.000Z</time>
      </trkpt>
      <trkpt lat="48.97046" lon="2.05045">
        <ele>65</ele>
        <time>2017-11-26T09:13:00.000Z</time>
      </trkpt>
      <trkpt lat="48.97055" lon="2.05053">
        <ele>65</ele>
        <time>2017-11-26T09:13:07.000Z</time>
      </trkpt>
      <trkpt lat="48.97064" lon="2.0506">
        <ele>65</ele>
        <time>2017-11-26T09:13:14.000Z</time>
      </trkpt>
      <trkpt lat="48.97073" lon="2.05068">
        <ele>65</ele>
        <time>2017-11-26T09:13:22.000Z</time>
      </trkpt>
      <trkpt lat="48.97081" lon="2.05074">
        <ele>65</ele>
        <time>2017-11-26T09:13:28.000Z</time>
      </trkpt>
      <trkpt lat="48.9709" lon="2.05081">
        <ele>65</ele>
        <time>2017-11-26T09:13:35.000Z</time>
      </trkpt>
      <trkpt lat="48.97099" lon="2.05088">
        <ele>65</ele>
        <time>2017-11-26T09:13:42.000Z</time>
      </trkpt>
      <trkpt lat="48.97107" lon="2.05096">
        <ele>63</ele>
        <time>2017-11-26T09:13:50.000Z</time>
      </trkpt>
      <trkpt lat="48.97117" lon="2.05104">
        <ele>62</ele>
        <time>2017-11-26T09:13:58.000Z</time>
      </trkpt>
      <trkpt lat="48.97128" lon="2.05111">
        <ele>62</ele>
        <time>2017-11-26T09:14:06.000Z</time>
      </trkpt>
      <trkpt lat="48.97136" lon="2.05118">
        <ele>62</ele>
        <time>2017-11-26T09:14:13.000Z</time>
      </trkpt>
      <trkpt lat="48.97146" lon="2.05126">
        <ele>62</ele>
        <time>2017-11-26T09:14:21.000Z</time>
      </trkpt>
      <trkpt lat="48.97155" lon="2.05134">
        <ele>63</ele>
        <time>2017-11-26T09:14:28.000Z</time>
      </trkpt>
      <trkpt lat="48.97163" lon="2.05141">
        <ele>63</ele>
        <time>2017-11-26T09:14:35.000Z</time>
      </trkpt>
      <trkpt lat="48.97171" lon="2.0515">
        <ele>65</ele>
        <time>2017-11-26T09:14:43.000Z</time>
      </trkpt>
      <trkpt lat="48.9718" lon="2.05156">
        <ele>65</ele>
        <time>2017-11-26T09:14:50.000Z</time>
      </trkpt>
      <trkpt lat="48.97189" lon="2.05162">
        <ele>65</ele>
        <time>2017-11-26T09:14:56.000Z</time>
      </trkpt>
      <trkpt lat="48.97197" lon="2.05169">
        <ele>65</ele>
        <time>2017-11-26T09:15:03.000Z</time>
      </trkpt>
      <trkpt lat="48.97204" lon="2.05177">
        <ele>65</ele>
        <time>2017-11-26T09:15:10.000Z</time>
      </trkpt>
      <trkpt lat="48.97212" lon="2.05184">
        <ele>65</ele>
        <time>2017-11-26T09:15:17.000Z</time>
      </trkpt>
      <trkpt lat="48.97221" lon="2.05192">
        <ele>63</ele>
        <time>2017-11-26T09:15:24.000Z</time>
      </trkpt>
      <trkpt lat="48.97229" lon="2.05199">
        <ele>61</ele>
        <time>2017-11-26T09:15:31.000Z</time>
      </trkpt>
      <trkpt lat="48.97239" lon="2.05208">
        <ele>62</ele>
        <time>2017-11-26T09:15:39.000Z</time>
      </trkpt>
      <trkpt lat="48.97249" lon="2.05217">
        <ele>63</ele>
        <time>2017-11-26T09:15:47.000Z</time>
      </trkpt>
      <trkpt lat="48.97257" lon="2.05223">
        <ele>63</ele>
        <time>2017-11-26T09:15:54.000Z</time>
      </trkpt>
      <trkpt lat="48.97266" lon="2.05231">
        <ele>63</ele>
        <time>2017-11-26T09:16:01.000Z</time>
      </trkpt>
      <trkpt lat="48.97275" lon="2.0524">
        <ele>63</ele>
        <time>2017-11-26T09:16:09.000Z</time>
      </trkpt>
      <trkpt lat="48.97282" lon="2.05248">
        <ele>63</ele>
        <time>2017-11-26T09:16:16.000Z</time>
      </trkpt>
      <trkpt lat="48.9729" lon="2.05257">
        <ele>62</ele>
        <time>2017-11-26T09:16:24.000Z</time>
      </trkpt>
      <trkpt lat="48.97297" lon="2.05266">
        <ele>60</ele>
        <time>2017-11-26T09:16:31.000Z</time>
      </trkpt>
      <trkpt lat="48.97306" lon="2.05274">
        <ele>61</ele>
        <time>2017-11-26T09:16:38.000Z</time>
      </trkpt>
      <trkpt lat="48.97314" lon="2.05283">
        <ele>62</ele>
        <time>2017-11-26T09:16:45.000Z</time>
      </trkpt>
      <trkpt lat="48.97322" lon="2.05292">
        <ele>61</ele>
        <time>2017-11-26T09:16:52.000Z</time>
      </trkpt>
      <trkpt lat="48.97332" lon="2.05301">
        <ele>61</ele>
        <time>2017-11-26T09:17:00.000Z</time>
      </trkpt>
      <trkpt lat="48.97339" lon="2.05311">
        <ele>63</ele>
        <time>2017-11-26T09:17:07.000Z</time>
      </trkpt>
      <trkpt lat="48.97347" lon="2.0532">
        <ele>62</ele>
        <time>2017-11-26T09:17:15.000Z</time>
      </trkpt>
      <trkpt lat="48.97355" lon="2.05329">
        <ele>61</ele>
        <time>2017-11-26T09:17:23.000Z</time>
      </trkpt>
      <trkpt lat="48.97365" lon="2.05338">
        <ele>61</ele>
        <time>2017-11-26T09:17:31.000Z</time>
      </trkpt>
      <trkpt lat="48.97373" lon="2.05346">
        <ele>61</ele>
        <time>2017-11-26T09:17:38.000Z</time>
      </trkpt>
      <trkpt lat="48.97382" lon="2.05355">
        <ele>61</ele>
        <time>2017-11-26T09:17:45.000Z</time>
      </trkpt>
      <trkpt lat="48.97389" lon="2.05363">
        <ele>60</ele>
        <time>2017-11-26T09:17:51.000Z</time>
      </trkpt>
      <trkpt lat="48.97398" lon="2.05371">
        <ele>61</ele>
        <time>2017-11-26T09:17:58.000Z</time>
      </trkpt>
      <trkpt lat="48.97407" lon="2.05376">
        <ele>62</ele>
        <time>2017-11-26T09:18:05.000Z</time>
      </trkpt>
      <trkpt lat="48.97415" lon="2.05388">
        <ele>63</ele>
        <time>2017-11-26T09:18:12.000Z</time>
      </trkpt>
      <trkpt lat="48.97421" lon="2.05398">
        <ele>64</ele>
        <time>2017-11-26T09:18:19.000Z</time>
      </trkpt>
      <trkpt lat="48.97429" lon="2.05404">
        <ele>63</ele>
        <time>2017-11-26T09:18:25.000Z</time>
      </trkpt>
      <trkpt lat="48.97439" lon="2.05413">
        <ele>64</ele>
        <time>2017-11-26T09:18:32.000Z</time>
      </trkpt>
      <trkpt lat="48.97448" lon="2.05421">
        <ele>64</ele>
        <time>2017-11-26T09:18:39.000Z</time>
      </trkpt>
      <trkpt lat="48.97456" lon="2.05431">
        <ele>64</ele>
        <time>2017-11-26T09:18:47.000Z</time>
      </trkpt>
      <trkpt lat="48.97463" lon="2.05441">
        <ele>65</ele>
        <time>2017-11-26T09:18:53.000Z</time>
      </trkpt>
      <trkpt lat="48.9747" lon="2.0545">
        <ele>64</ele>
        <time>2017-11-26T09:19:00.000Z</time>
      </trkpt>
      <trkpt lat="48.97479" lon="2.05457">
        <ele>64</ele>
        <time>2017-11-26T09:19:07.000Z</time>
      </trkpt>
      <trkpt lat="48.97487" lon="2.05464">
        <ele>65</ele>
        <time>2017-11-26T09:19:14.000Z</time>
      </trkpt>
      <trkpt lat="48.97496" lon="2.05476">
        <ele>64</ele>
        <time>2017-11-26T09:19:23.000Z</time>
      </trkpt>
      <trkpt lat="48.97505" lon="2.05485">
        <ele>66</ele>
        <time>2017-11-26T09:19:32.000Z</time>
      </trkpt>
      <trkpt lat="48.97514" lon="2.05492">
        <ele>66</ele>
        <time>2017-11-26T09:19:40.000Z</time>
      </trkpt>
      <trkpt lat="48.97524" lon="2.05503">
        <ele>63</ele>
        <time>2017-11-26T09:19:48.000Z</time>
      </trkpt>
      <trkpt lat="48.97532" lon="2.05513">
        <ele>65</ele>
        <time>2017-11-26T09:19:55.000Z</time>
      </trkpt>
      <trkpt lat="48.9754" lon="2.05522">
        <ele>66</ele>
        <time>2017-11-26T09:20:02.000Z</time>
      </trkpt>
      <trkpt lat="48.9755" lon="2.05531">
        <ele>66</ele>
        <time>2017-11-26T09:20:10.000Z</time>
      </trkpt>
      <trkpt lat="48.97557" lon="2.05539">
        <ele>66</ele>
        <time>2017-11-26T09:20:17.000Z</time>
      </trkpt>
      <trkpt lat="48.97566" lon="2.05544">
        <ele>66</ele>
        <time>2017-11-26T09:20:23.000Z</time>
      </trkpt>
      <trkpt lat="48.97577" lon="2.0555">
        <ele>66</ele>
        <time>2017-11-26T09:20:30.000Z</time>
      </trkpt>
      <trkpt lat="48.97586" lon="2.05559">
        <ele>65</ele>
        <time>2017-11-26T09:20:37.000Z</time>
      </trkpt>
      <trkpt lat="48.97593" lon="2.0557">
        <ele>65</ele>
        <time>2017-11-26T09:20:44.000Z</time>
      </trkpt>
      <trkpt lat="48.97602" lon="2.05578">
        <ele>65</ele>
        <time>2017-11-26T09:20:51.000Z</time>
      </trkpt>
      <trkpt lat="48.97611" lon="2.05587">
        <ele>65</ele>
        <time>2017-11-26T09:20:59.000Z</time>
      </trkpt>
      <trkpt lat="48.9762" lon="2.05596">
        <ele>68</ele>
        <time>2017-11-26T09:21:07.000Z</time>
      </trkpt>
      <trkpt lat="48.97629" lon="2.05606">
        <ele>69</ele>
        <time>2017-11-26T09:21:14.000Z</time>
      </trkpt>
      <trkpt lat="48.9764" lon="2.05617">
        <ele>68</ele>
        <time>2017-11-26T09:21:23.000Z</time>
      </trkpt>
      <trkpt lat="48.97648" lon="2.05628">
        <ele>67</ele>
        <time>2017-11-26T09:21:30.000Z</time>
      </trkpt>
      <trkpt lat="48.97657" lon="2.05637">
        <ele>66</ele>
        <time>2017-11-26T09:21:37.000Z</time>
      </trkpt>
      <trkpt lat="48.97664" lon="2.05646">
        <ele>65</ele>
        <time>2017-11-26T09:21:44.000Z</time>
      </trkpt>
      <trkpt lat="48.97671" lon="2.05656">
        <ele>64</ele>
        <time>2017-11-26T09:21:51.000Z</time>
      </trkpt>
      <trkpt lat="48.97679" lon="2.05663">
        <ele>63</ele>
        <time>2017-11-26T09:21:58.000Z</time>
      </trkpt>
      <trkpt lat="48.97687" lon="2.05671">
        <ele>63</ele>
        <time>2017-11-26T09:22:05.000Z</time>
      </trkpt>
      <trkpt lat="48.97696" lon="2.05679">
        <ele>63</ele>
        <time>2017-11-26T09:22:12.000Z</time>
      </trkpt>
      <trkpt lat="48.97704" lon="2.05688">
        <ele>64</ele>
        <time>2017-11-26T09:22:19.000Z</time>
      </trkpt>
      <trkpt lat="48.97713" lon="2.05694">
        <ele>63</ele>
        <time>2017-11-26T09:22:26.000Z</time>
      </trkpt>
      <trkpt lat="48.97722" lon="2.05703">
        <ele>61</ele>
        <time>2017-11-26T09:22:34.000Z</time>
      </trkpt>
      <trkpt lat="48.9773" lon="2.05712">
        <ele>62</ele>
        <time>2017-11-26T09:22:41.000Z</time>
      </trkpt>
      <trkpt lat="48.97739" lon="2.05719">
        <ele>63</ele>
        <time>2017-11-26T09:22:49.000Z</time>
      </trkpt>
      <trkpt lat="48.97749" lon="2.05726">
        <ele>64</ele>
        <time>2017-11-26T09:22:56.000Z</time>
      </trkpt>
      <trkpt lat="48.97757" lon="2.05736">
        <ele>65</ele>
        <time>2017-11-26T09:23:03.000Z</time>
      </trkpt>
      <trkpt lat="48.97764" lon="2.05746">
        <ele>66</ele>
        <time>2017-11-26T09:23:09.000Z</time>
      </trkpt>
      <trkpt lat="48.97773" lon="2.05752">
        <ele>66</ele>
        <time>2017-11-26T09:23:16.000Z</time>
      </trkpt>
      <trkpt lat="48.9778" lon="2.0576">
        <ele>66</ele>
        <time>2017-11-26T09:23:23.000Z</time>
      </trkpt>
      <trkpt lat="48.97788" lon="2.05769">
        <ele>67</ele>
        <time>2017-11-26T09:23:30.000Z</time>
      </trkpt>
      <trkpt lat="48.97797" lon="2.05779">
        <ele>68</ele>
        <time>2017-11-26T09:23:38.000Z</time>
      </trkpt>
      <trkpt lat="48.97806" lon="2.05789">
        <ele>67</ele>
        <time>2017-11-26T09:23:48.000Z</time>
      </trkpt>
      <trkpt lat="48.97812" lon="2.05799">
        <ele>65</ele>
        <time>2017-11-26T09:23:57.000Z</time>
      </trkpt>
      <trkpt lat="48.97823" lon="2.05806">
        <ele>67</ele>
        <time>2017-11-26T09:24:04.000Z</time>
      </trkpt>
      <trkpt lat="48.97832" lon="2.05814">
        <ele>67</ele>
        <time>2017-11-26T09:24:11.000Z</time>
      </trkpt>
      <trkpt lat="48.9784" lon="2.05821">
        <ele>66</ele>
        <time>2017-11-26T09:24:17.000Z</time>
      </trkpt>
      <trkpt lat="48.97848" lon="2.05831">
        <ele>66</ele>
        <time>2017-11-26T09:24:25.000Z</time>
      </trkpt>
      <trkpt lat="48.97858" lon="2.05839">
        <ele>66</ele>
        <time>2017-11-26T09:24:34.000Z</time>
      </trkpt>
      <trkpt lat="48.97866" lon="2.05847">
        <ele>64</ele>
        <time>2017-11-26T09:24:41.000Z</time>
      </trkpt>
      <trkpt lat="48.97875" lon="2.05857">
        <ele>64</ele>
        <time>2017-11-26T09:24:48.000Z</time>
      </trkpt>
      <trkpt lat="48.97884" lon="2.05868">
        <ele>62</ele>
        <time>2017-11-26T09:24:55.000Z</time>
      </trkpt>
      <trkpt lat="48.97892" lon="2.05877">
        <ele>60</ele>
        <time>2017-11-26T09:25:01.000Z</time>
      </trkpt>
      <trkpt lat="48.97899" lon="2.05887">
        <ele>61</ele>
        <time>2017-11-26T09:25:07.000Z</time>
      </trkpt>
      <trkpt lat="48.97908" lon="2.05892">
        <ele>59</ele>
        <time>2017-11-26T09:25:13.000Z</time>
      </trkpt>
      <trkpt lat="48.97916" lon="2.05903">
        <ele>61</ele>
        <time>2017-11-26T09:25:19.000Z</time>
      </trkpt>
      <trkpt lat="48.97925" lon="2.05912">
        <ele>59</ele>
        <time>2017-11-26T09:25:27.000Z</time>
      </trkpt>
      <trkpt lat="48.97933" lon="2.05918">
        <ele>58</ele>
        <time>2017-11-26T09:25:33.000Z</time>
      </trkpt>
      <trkpt lat="48.97941" lon="2.05928">
        <ele>59</ele>
        <time>2017-11-26T09:25:40.000Z</time>
      </trkpt>
      <trkpt lat="48.9795" lon="2.05937">
        <ele>61</ele>
        <time>2017-11-26T09:25:47.000Z</time>
      </trkpt>
      <trkpt lat="48.97959" lon="2.05945">
        <ele>61</ele>
        <time>2017-11-26T09:25:54.000Z</time>
      </trkpt>
      <trkpt lat="48.97967" lon="2.05953">
        <ele>62</ele>
        <time>2017-11-26T09:26:00.000Z</time>
      </trkpt>
      <trkpt lat="48.97974" lon="2.05962">
        <ele>63</ele>
        <time>2017-11-26T09:26:06.000Z</time>
      </trkpt>
      <trkpt lat="48.97981" lon="2.05972">
        <ele>64</ele>
        <time>2017-11-26T09:26:13.000Z</time>
      </trkpt>
      <trkpt lat="48.97992" lon="2.05981">
        <ele>63</ele>
        <time>2017-11-26T09:26:21.000Z</time>
      </trkpt>
      <trkpt lat="48.97999" lon="2.05989">
        <ele>61</ele>
        <time>2017-11-26T09:26:28.000Z</time>
      </trkpt>
      <trkpt lat="48.98009" lon="2.05998">
        <ele>60</ele>
        <time>2017-11-26T09:26:36.000Z</time>
      </trkpt>
      <trkpt lat="48.98017" lon="2.06007">
        <ele>61</ele>
        <time>2017-11-26T09:26:42.000Z</time>
      </trkpt>
      <trkpt lat="48.98026" lon="2.06016">
        <ele>62</ele>
        <time>2017-11-26T09:26:49.000Z</time>
      </trkpt>
      <trkpt lat="48.98037" lon="2.06026">
        <ele>63</ele>
        <time>2017-11-26T09:26:56.000Z</time>
      </trkpt>
      <trkpt lat="48.98047" lon="2.06036">
        <ele>62</ele>
        <time>2017-11-26T09:27:04.000Z</time>
      </trkpt>
      <trkpt lat="48.98056" lon="2.06047">
        <ele>62</ele>
        <time>2017-11-26T09:27:11.000Z</time>
      </trkpt>
      <trkpt lat="48.98064" lon="2.06059">
        <ele>62</ele>
        <time>2017-11-26T09:27:18.000Z</time>
      </trkpt>
      <trkpt lat="48.98072" lon="2.06067">
        <ele>62</ele>
        <time>2017-11-26T09:27:24.000Z</time>
      </trkpt>
      <trkpt lat="48.9808" lon="2.06075">
        <ele>63</ele>
        <time>2017-11-26T09:27:30.000Z</time>
      </trkpt>
      <trkpt lat="48.9809" lon="2.06082">
        <ele>64</ele>
        <time>2017-11-26T09:27:36.000Z</time>
      </trkpt>
      <trkpt lat="48.98097" lon="2.06091">
        <ele>63</ele>
        <time>2017-11-26T09:27:43.000Z</time>
      </trkpt>
      <trkpt lat="48.98105" lon="2.061">
        <ele>64</ele>
        <time>2017-11-26T09:27:51.000Z</time>
      </trkpt>
      <trkpt lat="48.98114" lon="2.06109">
        <ele>64</ele>
        <time>2017-11-26T09:27:58.000Z</time>
      </trkpt>
      <trkpt lat="48.98122" lon="2.06118">
        <ele>60</ele>
        <time>2017-11-26T09:28:06.000Z</time>
      </trkpt>
      <trkpt lat="48.98132" lon="2.06121">
        <ele>62</ele>
        <time>2017-11-26T09:28:14.000Z</time>
      </trkpt>
      <trkpt lat="48.98143" lon="2.06128">
        <ele>63</ele>
        <time>2017-11-26T09:28:24.000Z</time>
      </trkpt>
      <trkpt lat="48.98154" lon="2.06137">
        <ele>64</ele>
        <time>2017-11-26T09:28:33.000Z</time>
      </trkpt>
      <trkpt lat="48.98163" lon="2.06143">
        <ele>63</ele>
        <time>2017-11-26T09:28:40.000Z</time>
      </trkpt>
      <trkpt lat="48.98171" lon="2.0615">
        <ele>63</ele>
        <time>2017-11-26T09:28:46.000Z</time>
      </trkpt>
      <trkpt lat="48.9818" lon="2.06157">
        <ele>64</ele>
        <time>2017-11-26T09:28:53.000Z</time>
      </trkpt>
      <trkpt lat="48.98192" lon="2.06168">
        <ele>67</ele>
        <time>2017-11-26T09:29:00.000Z</time>
      </trkpt>
      <trkpt lat="48.98202" lon="2.06178">
        <ele>67</ele>
        <time>2017-11-26T09:29:07.000Z</time>
      </trkpt>
      <trkpt lat="48.98211" lon="2.06183">
        <ele>65</ele>
        <time>2017-11-26T09:29:14.000Z</time>
      </trkpt>
      <trkpt lat="48.9822" lon="2.06191">
        <ele>64</ele>
        <time>2017-11-26T09:29:22.000Z</time>
      </trkpt>
      <trkpt lat="48.9823" lon="2.06195">
        <ele>64</ele>
        <time>2017-11-26T09:29:29.000Z</time>
      </trkpt>
      <trkpt lat="48.98238" lon="2.06203">
        <ele>62</ele>
        <time>2017-11-26T09:29:37.000Z</time>
      </trkpt>
      <trkpt lat="48.98247" lon="2.06211">
        <ele>64</ele>
        <time>2017-11-26T09:29:45.000Z</time>
      </trkpt>
      <trkpt lat="48.98255" lon="2.06218">
        <ele>62</ele>
        <time>2017-11-26T09:29:51.000Z</time>
      </trkpt>
      <trkpt lat="48.98264" lon="2.06226">
        <ele>62</ele>
        <time>2017-11-26T09:29:58.000Z</time>
      </trkpt>
      <trkpt lat="48.98273" lon="2.06235">
        <ele>63</ele>
        <time>2017-11-26T09:30:06.000Z</time>
      </trkpt>
      <trkpt lat="48.98282" lon="2.06242">
        <ele>63</ele>
        <time>2017-11-26T09:30:12.000Z</time>
      </trkpt>
      <trkpt lat="48.98292" lon="2.06251">
        <ele>66</ele>
        <time>2017-11-26T09:30:19.000Z</time>
      </trkpt>
      <trkpt lat="48.98301" lon="2.06259">
        <ele>67</ele>
        <time>2017-11-26T09:30:27.000Z</time>
      </trkpt>
      <trkpt lat="48.98309" lon="2.06268">
        <ele>67</ele>
        <time>2017-11-26T09:30:34.000Z</time>
      </trkpt>
      <trkpt lat="48.98318" lon="2.06277">
        <ele>65</ele>
        <time>2017-11-26T09:30:41.000Z</time>
      </trkpt>
      <trkpt lat="48.98326" lon="2.06283">
        <ele>63</ele>
        <time>2017-11-26T09:30:48.000Z</time>
      </trkpt>
      <trkpt lat="48.98336" lon="2.06296">
        <ele>63</ele>
        <time>2017-11-26T09:30:57.000Z</time>
      </trkpt>
      <trkpt lat="48.98345" lon="2.06307">
        <ele>63</ele>
        <time>2017-11-26T09:31:04.000Z</time>
      </trkpt>
      <trkpt lat="48.98354" lon="2.0632">
        <ele>64</ele>
        <time>2017-11-26T09:31:12.000Z</time>
      </trkpt>
      <trkpt lat="48.9836" lon="2.06331">
        <ele>65</ele>
        <time>2017-11-26T09:31:19.000Z</time>
      </trkpt>
      <trkpt lat="48.98369" lon="2.06343">
        <ele>63</ele>
        <time>2017-11-26T09:31:27.000Z</time>
      </trkpt>
      <trkpt lat="48.98375" lon="2.06353">
        <ele>64</ele>
        <time>2017-11-26T09:31:32.000Z</time>
      </trkpt>
      <trkpt lat="48.9838" lon="2.06366">
        <ele>64</ele>
        <time>2017-11-26T09:31:38.000Z</time>
      </trkpt>
      <trkpt lat="48.98386" lon="2.06378">
        <ele>66</ele>
        <time>2017-11-26T09:31:45.000Z</time>
      </trkpt>
      <trkpt lat="48.98392" lon="2.0639">
        <ele>64</ele>
        <time>2017-11-26T09:31:51.000Z</time>
      </trkpt>
      <trkpt lat="48.98397" lon="2.064">
        <ele>63</ele>
        <time>2017-11-26T09:31:57.000Z</time>
      </trkpt>
      <trkpt lat="48.98404" lon="2.06413">
        <ele>66</ele>
        <time>2017-11-26T09:32:04.000Z</time>
      </trkpt>
      <trkpt lat="48.98412" lon="2.06424">
        <ele>66</ele>
        <time>2017-11-26T09:32:10.000Z</time>
      </trkpt>
      <trkpt lat="48.98418" lon="2.06437">
        <ele>66</ele>
        <time>2017-11-26T09:32:17.000Z</time>
      </trkpt>
      <trkpt lat="48.98424" lon="2.06451">
        <ele>66</ele>
        <time>2017-11-26T09:32:24.000Z</time>
      </trkpt>
      <trkpt lat="48.98429" lon="2.06463">
        <ele>64</ele>
        <time>2017-11-26T09:32:29.000Z</time>
      </trkpt>
      <trkpt lat="48.98433" lon="2.06475">
        <ele>65</ele>
        <time>2017-11-26T09:32:35.000Z</time>
      </trkpt>
      <trkpt lat="48.98441" lon="2.06491">
        <ele>64</ele>
        <time>2017-11-26T09:32:43.000Z</time>
      </trkpt>
      <trkpt lat="48.98446" lon="2.06505">
        <ele>65</ele>
        <time>2017-11-26T09:32:50.000Z</time>
      </trkpt>
      <trkpt lat="48.98451" lon="2.06519">
        <ele>65</ele>
        <time>2017-11-26T09:32:56.000Z</time>
      </trkpt>
      <trkpt lat="48.98459" lon="2.06536">
        <ele>64</ele>
        <time>2017-11-26T09:33:04.000Z</time>
      </trkpt>
      <trkpt lat="48.98463" lon="2.06553">
        <ele>64</ele>
        <time>2017-11-26T09:33:11.000Z</time>
      </trkpt>
      <trkpt lat="48.98468" lon="2.06565">
        <ele>64</ele>
        <time>2017-11-26T09:33:17.000Z</time>
      </trkpt>
      <trkpt lat="48.98472" lon="2.0658">
        <ele>63</ele>
        <time>2017-11-26T09:33:24.000Z</time>
      </trkpt>
      <trkpt lat="48.98476" lon="2.06592">
        <ele>63</ele>
        <time>2017-11-26T09:33:30.000Z</time>
      </trkpt>
      <trkpt lat="48.98483" lon="2.06607">
        <ele>64</ele>
        <time>2017-11-26T09:33:37.000Z</time>
      </trkpt>
      <trkpt lat="48.98486" lon="2.0662">
        <ele>65</ele>
        <time>2017-11-26T09:33:42.209Z</time>
      </trkpt>
      <trkpt lat="48.98494" lon="2.06637">
        <ele>66</ele>
        <time>2017-11-26T09:33:50.000Z</time>
      </trkpt>
      <trkpt lat="48.985" lon="2.06648">
        <ele>67</ele>
        <time>2017-11-26T09:33:57.000Z</time>
      </trkpt>
      <trkpt lat="48.98508" lon="2.06663">
        <ele>69</ele>
        <time>2017-11-26T09:34:04.000Z</time>
      </trkpt>
      <trkpt lat="48.98513" lon="2.06674">
        <ele>67</ele>
        <time>2017-11-26T09:34:11.000Z</time>
      </trkpt>
      <trkpt lat="48.9852" lon="2.0669">
        <ele>64</ele>
        <time>2017-11-26T09:34:19.000Z</time>
      </trkpt>
      <trkpt lat="48.98525" lon="2.06706">
        <ele>65</ele>
        <time>2017-11-26T09:34:27.000Z</time>
      </trkpt>
      <trkpt lat="48.9853" lon="2.0672">
        <ele>66</ele>
        <time>2017-11-26T09:34:33.000Z</time>
      </trkpt>
      <trkpt lat="48.98536" lon="2.06733">
        <ele>62</ele>
        <time>2017-11-26T09:34:41.000Z</time>
      </trkpt>
      <trkpt lat="48.98539" lon="2.06746">
        <ele>64</ele>
        <time>2017-11-26T09:34:47.000Z</time>
      </trkpt>
      <trkpt lat="48.98545" lon="2.06762">
        <ele>64</ele>
        <time>2017-11-26T09:34:55.000Z</time>
      </trkpt>
      <trkpt lat="48.98552" lon="2.06773">
        <ele>65</ele>
        <time>2017-11-26T09:35:01.000Z</time>
      </trkpt>
      <trkpt lat="48.98557" lon="2.06785">
        <ele>67</ele>
        <time>2017-11-26T09:35:06.000Z</time>
      </trkpt>
      <trkpt lat="48.98564" lon="2.06802">
        <ele>67</ele>
        <time>2017-11-26T09:35:14.000Z</time>
      </trkpt>
      <trkpt lat="48.9857" lon="2.06816">
        <ele>67</ele>
        <time>2017-11-26T09:35:20.000Z</time>
      </trkpt>
      <trkpt lat="48.98576" lon="2.06828">
        <ele>67</ele>
        <time>2017-11-26T09:35:26.000Z</time>
      </trkpt>
      <trkpt lat="48.98582" lon="2.06839">
        <ele>66</ele>
        <time>2017-11-26T09:35:34.000Z</time>
      </trkpt>
      <trkpt lat="48.98585" lon="2.06856">
        <ele>68</ele>
        <time>2017-11-26T09:35:41.000Z</time>
      </trkpt>
      <trkpt lat="48.98591" lon="2.06872">
        <ele>69</ele>
        <time>2017-11-26T09:35:51.000Z</time>
      </trkpt>
      <trkpt lat="48.98595" lon="2.06884">
        <ele>68</ele>
        <time>2017-11-26T09:35:58.000Z</time>
      </trkpt>
      <trkpt lat="48.98599" lon="2.06897">
        <ele>68</ele>
        <time>2017-11-26T09:36:05.000Z</time>
      </trkpt>
      <trkpt lat="48.98604" lon="2.06909">
        <ele>66</ele>
        <time>2017-11-26T09:36:12.000Z</time>
      </trkpt>
      <trkpt lat="48.98609" lon="2.06922">
        <ele>68</ele>
        <time>2017-11-26T09:36:19.000Z</time>
      </trkpt>
      <trkpt lat="48.98616" lon="2.06934">
        <ele>68</ele>
        <time>2017-11-26T09:36:27.000Z</time>
      </trkpt>
      <trkpt lat="48.98623" lon="2.06946">
        <ele>66</ele>
        <time>2017-11-26T09:36:34.000Z</time>
      </trkpt>
      <trkpt lat="48.9863" lon="2.06959">
        <ele>64</ele>
        <time>2017-11-26T09:36:42.000Z</time>
      </trkpt>
      <trkpt lat="48.98639" lon="2.06971">
        <ele>65</ele>
        <time>2017-11-26T09:36:51.000Z</time>
      </trkpt>
      <trkpt lat="48.98644" lon="2.06983">
        <ele>63</ele>
        <time>2017-11-26T09:36:58.000Z</time>
      </trkpt>
      <trkpt lat="48.98653" lon="2.06997">
        <ele>64</ele>
        <time>2017-11-26T09:37:06.000Z</time>
      </trkpt>
      <trkpt lat="48.98661" lon="2.07009">
        <ele>63</ele>
        <time>2017-11-26T09:37:15.000Z</time>
      </trkpt>
      <trkpt lat="48.98668" lon="2.07019">
        <ele>63</ele>
        <time>2017-11-26T09:37:23.000Z</time>
      </trkpt>
      <trkpt lat="48.98676" lon="2.07032">
        <ele>62</ele>
        <time>2017-11-26T09:37:32.000Z</time>
      </trkpt>
      <trkpt lat="48.98682" lon="2.07042">
        <ele>63</ele>
        <time>2017-11-26T09:37:39.000Z</time>
      </trkpt>
      <trkpt lat="48.98688" lon="2.07052">
        <ele>62</ele>
        <time>2017-11-26T09:37:46.000Z</time>
      </trkpt>
      <trkpt lat="48.98696" lon="2.07063">
        <ele>63</ele>
        <time>2017-11-26T09:37:55.000Z</time>
      </trkpt>
      <trkpt lat="48.98703" lon="2.07074">
        <ele>63</ele>
        <time>2017-11-26T09:38:03.000Z</time>
      </trkpt>
      <trkpt lat="48.98713" lon="2.07083">
        <ele>64</ele>
        <time>2017-11-26T09:38:15.000Z</time>
      </trkpt>
      <trkpt lat="48.98723" lon="2.07089">
        <ele>65</ele>
        <time>2017-11-26T09:38:26.000Z</time>
      </trkpt>
      <trkpt lat="48.98733" lon="2.07095">
        <ele>68</ele>
        <time>2017-11-26T09:38:38.000Z</time>
      </trkpt>
      <trkpt lat="48.98742" lon="2.071">
        <ele>68</ele>
        <time>2017-11-26T09:38:48.000Z</time>
      </trkpt>
      <trkpt lat="48.98751" lon="2.07105">
        <ele>69</ele>
        <time>2017-11-26T09:38:57.000Z</time>
      </trkpt>
      <trkpt lat="48.98761" lon="2.07107">
        <ele>69</ele>
        <time>2017-11-26T09:39:02.576Z</time>
      </trkpt>
      <trkpt lat="48.98769" lon="2.07113">
        <ele>69</ele>
        <time>2017-11-26T09:39:11.000Z</time>
      </trkpt>
      <trkpt lat="48.98779" lon="2.07118">
        <ele>67</ele>
        <time>2017-11-26T09:39:22.000Z</time>
      </trkpt>
      <trkpt lat="48.98791" lon="2.07121">
        <ele>67</ele>
        <time>2017-11-26T09:39:33.000Z</time>
      </trkpt>
      <trkpt lat="48.988" lon="2.07127">
        <ele>66</ele>
        <time>2017-11-26T09:39:46.000Z</time>
      </trkpt>
      <trkpt lat="48.98809" lon="2.07131">
        <ele>66</ele>
        <time>2017-11-26T09:39:55.000Z</time>
      </trkpt>
      <trkpt lat="48.98819" lon="2.0713">
        <ele>65</ele>
        <time>2017-11-26T09:40:06.000Z</time>
      </trkpt>
      <trkpt lat="48.98829" lon="2.07132">
        <ele>63</ele>
        <time>2017-11-26T09:40:16.000Z</time>
      </trkpt>
      <trkpt lat="48.98838" lon="2.07133">
        <ele>65</ele>
        <time>2017-11-26T09:40:24.000Z</time>
      </trkpt>
      <trkpt lat="48.98848" lon="2.07134">
        <ele>66</ele>
        <time>2017-11-26T09:40:34.000Z</time>
      </trkpt>
      <trkpt lat="48.98857" lon="2.07137">
        <ele>65</ele>
        <time>2017-11-26T09:40:41.000Z</time>
      </trkpt>
      <trkpt lat="48.98869" lon="2.07141">
        <ele>65</ele>
        <time>2017-11-26T09:40:52.000Z</time>
      </trkpt>
      <trkpt lat="48.98879" lon="2.07145">
        <ele>65</ele>
        <time>2017-11-26T09:41:03.000Z</time>
      </trkpt>
      <trkpt lat="48.9889" lon="2.07146">
        <ele>64</ele>
        <time>2017-11-26T09:41:13.000Z</time>
      </trkpt>
      <trkpt lat="48.98898" lon="2.07146">
        <ele>63</ele>
        <time>2017-11-26T09:41:21.000Z</time>
      </trkpt>
      <trkpt lat="48.98911" lon="2.07146">
        <ele>64</ele>
        <time>2017-11-26T09:41:31.000Z</time>
      </trkpt>
      <trkpt lat="48.9892" lon="2.07145">
        <ele>65</ele>
        <time>2017-11-26T09:41:38.000Z</time>
      </trkpt>
      <trkpt lat="48.9893" lon="2.0714">
        <ele>64</ele>
        <time>2017-11-26T09:41:46.000Z</time>
      </trkpt>
      <trkpt lat="48.9894" lon="2.07137">
        <ele>62</ele>
        <time>2017-11-26T09:41:56.000Z</time>
      </trkpt>
      <trkpt lat="48.98949" lon="2.07138">
        <ele>63</ele>
        <time>2017-11-26T09:42:05.000Z</time>
      </trkpt>
      <trkpt lat="48.9896" lon="2.07138">
        <ele>65</ele>
        <time>2017-11-26T09:42:18.000Z</time>
      </trkpt>
      <trkpt lat="48.98969" lon="2.07139">
        <ele>65</ele>
        <time>2017-11-26T09:42:29.000Z</time>
      </trkpt>
      <trkpt lat="48.98977" lon="2.07146">
        <ele>68</ele>
        <time>2017-11-26T09:42:42.000Z</time>
      </trkpt>
      <trkpt lat="48.98986" lon="2.0715">
        <ele>68</ele>
        <time>2017-11-26T09:42:54.000Z</time>
      </trkpt>
      <trkpt lat="48.98993" lon="2.07162">
        <ele>67</ele>
        <time>2017-11-26T09:43:09.000Z</time>
      </trkpt>
      <trkpt lat="48.98998" lon="2.07174">
        <ele>68</ele>
        <time>2017-11-26T09:43:27.000Z</time>
      </trkpt>
      <trkpt lat="48.99008" lon="2.07172">
        <ele>69</ele>
        <time>2017-11-26T09:43:36.000Z</time>
      </trkpt>
      <trkpt lat="48.9902" lon="2.07173">
        <ele>68</ele>
        <time>2017-11-26T09:43:45.000Z</time>
      </trkpt>
      <trkpt lat="48.99033" lon="2.07173">
        <ele>66</ele>
        <time>2017-11-26T09:43:54.000Z</time>
      </trkpt>
      <trkpt lat="48.99042" lon="2.07173">
        <ele>65</ele>
        <time>2017-11-26T09:43:59.000Z</time>
      </trkpt>
      <trkpt lat="48.99053" lon="2.07174">
        <ele>66</ele>
        <time>2017-11-26T09:44:06.000Z</time>
      </trkpt>
      <trkpt lat="48.99063" lon="2.07176">
        <ele>69</ele>
        <time>2017-11-26T09:44:13.000Z</time>
      </trkpt>
      <trkpt lat="48.99075" lon="2.07175">
        <ele>70</ele>
        <time>2017-11-26T09:44:21.000Z</time>
      </trkpt>
      <trkpt lat="48.99087" lon="2.07178">
        <ele>69</ele>
        <time>2017-11-26T09:44:29.000Z</time>
      </trkpt>
      <trkpt lat="48.99097" lon="2.07182">
        <ele>66</ele>
        <time>2017-11-26T09:44:36.000Z</time>
      </trkpt>
      <trkpt lat="48.99109" lon="2.07184">
        <ele>66</ele>
        <time>2017-11-26T09:44:44.017Z</time>
      </trkpt>
      <trkpt lat="48.99118" lon="2.07188">
        <ele>68</ele>
        <time>2017-11-26T09:44:51.000Z</time>
      </trkpt>
      <trkpt lat="48.99131" lon="2.0719">
        <ele>71</ele>
        <time>2017-11-26T09:45:00.000Z</time>
      </trkpt>
      <trkpt lat="48.99142" lon="2.07192">
        <ele>69</ele>
        <time>2017-11-26T09:45:12.000Z</time>
      </trkpt>
      <trkpt lat="48.99153" lon="2.07195">
        <ele>69</ele>
        <time>2017-11-26T09:45:23.000Z</time>
      </trkpt>
      <trkpt lat="48.99162" lon="2.07198">
        <ele>70</ele>
        <time>2017-11-26T09:45:30.000Z</time>
      </trkpt>
      <trkpt lat="48.99172" lon="2.07202">
        <ele>68</ele>
        <time>2017-11-26T09:45:41.000Z</time>
      </trkpt>
      <trkpt lat="48.99182" lon="2.07203">
        <ele>66</ele>
        <time>2017-11-26T09:45:48.000Z</time>
      </trkpt>
      <trkpt lat="48.99192" lon="2.07205">
        <ele>66</ele>
        <time>2017-11-26T09:45:56.000Z</time>
      </trkpt>
      <trkpt lat="48.99202" lon="2.07205">
        <ele>69</ele>
        <time>2017-11-26T09:46:04.000Z</time>
      </trkpt>
      <trkpt lat="48.99212" lon="2.07205">
        <ele>71</ele>
        <time>2017-11-26T09:46:15.000Z</time>
      </trkpt>
      <trkpt lat="48.99221" lon="2.072">
        <ele>71</ele>
        <time>2017-11-26T09:46:25.000Z</time>
      </trkpt>
      <trkpt lat="48.99232" lon="2.07197">
        <ele>70</ele>
        <time>2017-11-26T09:46:34.000Z</time>
      </trkpt>
      <trkpt lat="48.99242" lon="2.07192">
        <ele>69</ele>
        <time>2017-11-26T09:46:41.000Z</time>
      </trkpt>
      <trkpt lat="48.99251" lon="2.07188">
        <ele>67</ele>
        <time>2017-11-26T09:46:49.000Z</time>
      </trkpt>
      <trkpt lat="48.99261" lon="2.07188">
        <ele>64</ele>
        <time>2017-11-26T09:46:58.000Z</time>
      </trkpt>
      <trkpt lat="48.99271" lon="2.07185">
        <ele>64</ele>
        <time>2017-11-26T09:47:06.000Z</time>
      </trkpt>
      <trkpt lat="48.99281" lon="2.07188">
        <ele>67</ele>
        <time>2017-11-26T09:47:14.000Z</time>
      </trkpt>
      <trkpt lat="48.99291" lon="2.07182">
        <ele>70</ele>
        <time>2017-11-26T09:47:23.000Z</time>
      </trkpt>
      <trkpt lat="48.99296" lon="2.07169">
        <ele>67</ele>
        <time>2017-11-26T09:47:29.000Z</time>
      </trkpt>
      <trkpt lat="48.99302" lon="2.07158">
        <ele>64</ele>
        <time>2017-11-26T09:47:37.000Z</time>
      </trkpt>
      <trkpt lat="48.9931" lon="2.07151">
        <ele>64</ele>
        <time>2017-11-26T09:47:49.000Z</time>
      </trkpt>
      <trkpt lat="48.99321" lon="2.07149">
        <ele>64</ele>
        <time>2017-11-26T09:47:58.000Z</time>
      </trkpt>
      <trkpt lat="48.9933" lon="2.07143">
        <ele>64</ele>
        <time>2017-11-26T09:48:06.000Z</time>
      </trkpt>
      <trkpt lat="48.99339" lon="2.07138">
        <ele>64</ele>
        <time>2017-11-26T09:48:14.000Z</time>
      </trkpt>
      <trkpt lat="48.99348" lon="2.07137">
        <ele>65</ele>
        <time>2017-11-26T09:48:23.000Z</time>
      </trkpt>
      <trkpt lat="48.9936" lon="2.07134">
        <ele>65</ele>
        <time>2017-11-26T09:48:33.000Z</time>
      </trkpt>
      <trkpt lat="48.99369" lon="2.07129">
        <ele>63</ele>
        <time>2017-11-26T09:48:40.000Z</time>
      </trkpt>
      <trkpt lat="48.99378" lon="2.07127">
        <ele>66</ele>
        <time>2017-11-26T09:48:49.000Z</time>
      </trkpt>
      <trkpt lat="48.99387" lon="2.07124">
        <ele>70</ele>
        <time>2017-11-26T09:49:00.000Z</time>
      </trkpt>
      <trkpt lat="48.99396" lon="2.07121">
        <ele>69</ele>
        <time>2017-11-26T09:49:09.000Z</time>
      </trkpt>
      <trkpt lat="48.99408" lon="2.07115">
        <ele>68</ele>
        <time>2017-11-26T09:49:20.000Z</time>
      </trkpt>
      <trkpt lat="48.99417" lon="2.0711">
        <ele>69</ele>
        <time>2017-11-26T09:49:29.000Z</time>
      </trkpt>
      <trkpt lat="48.99428" lon="2.07104">
        <ele>66</ele>
        <time>2017-11-26T09:49:40.000Z</time>
      </trkpt>
      <trkpt lat="48.99441" lon="2.07103">
        <ele>62</ele>
        <time>2017-11-26T09:49:50.000Z</time>
      </trkpt>
      <trkpt lat="48.99452" lon="2.07103">
        <ele>63</ele>
        <time>2017-11-26T09:49:58.000Z</time>
      </trkpt>
      <trkpt lat="48.99463" lon="2.07103">
        <ele>63</ele>
        <time>2017-11-26T09:50:07.000Z</time>
      </trkpt>
      <trkpt lat="48.99472" lon="2.07101">
        <ele>63</ele>
        <time>2017-11-26T09:50:16.000Z</time>
      </trkpt>
      <trkpt lat="48.99482" lon="2.07098">
        <ele>60</ele>
        <time>2017-11-26T09:50:25.000Z</time>
      </trkpt>
      <trkpt lat="48.99493" lon="2.07097">
        <ele>62</ele>
        <time>2017-11-26T09:50:35.000Z</time>
      </trkpt>
      <trkpt lat="48.99503" lon="2.07096">
        <ele>62</ele>
        <time>2017-11-26T09:50:45.000Z</time>
      </trkpt>
      <trkpt lat="48.99513" lon="2.07094">
        <ele>63</ele>
        <time>2017-11-26T09:50:55.000Z</time>
      </trkpt>
      <trkpt lat="48.99524" lon="2.07087">
        <ele>61</ele>
        <time>2017-11-26T09:51:06.000Z</time>
      </trkpt>
      <trkpt lat="48.99534" lon="2.07087">
        <ele>61</ele>
        <time>2017-11-26T09:51:15.000Z</time>
      </trkpt>
      <trkpt lat="48.99543" lon="2.0709">
        <ele>65</ele>
        <time>2017-11-26T09:52:11.000Z</time>
      </trkpt>
      <trkpt lat="48.99552" lon="2.07085">
        <ele>65</ele>
        <time>2017-11-26T09:58:31.000Z</time>
      </trkpt>
      <trkpt lat="48.99562" lon="2.07085">
        <ele>65</ele>
        <time>2017-11-26T09:59:01.000Z</time>
      </trkpt>
      <trkpt lat="48.99571" lon="2.07087">
        <ele>66</ele>
        <time>2017-11-26T09:59:38.000Z</time>
      </trkpt>
      <trkpt lat="48.99577" lon="2.07075">
        <ele>63</ele>
        <time>2017-11-26T10:13:18.000Z</time>
      </trkpt>
      <trkpt lat="48.99567" lon="2.07082">
        <ele>62</ele>
        <time>2017-11-26T10:18:13.000Z</time>
      </trkpt>
      <trkpt lat="48.99558" lon="2.0708">
        <ele>58</ele>
        <time>2017-11-26T10:18:27.000Z</time>
      </trkpt>
      <trkpt lat="48.99549" lon="2.07082">
        <ele>55</ele>
        <time>2017-11-26T10:19:03.000Z</time>
      </trkpt>
      <trkpt lat="48.99554" lon="2.07093">
        <ele>62</ele>
        <time>2017-11-26T10:21:06.000Z</time>
      </trkpt>
      <trkpt lat="48.9956" lon="2.07105">
        <ele>63</ele>
        <time>2017-11-26T10:21:15.000Z</time>
      </trkpt>
      <trkpt lat="48.99569" lon="2.07111">
        <ele>61</ele>
        <time>2017-11-26T10:21:21.000Z</time>
      </trkpt>
      <trkpt lat="48.99578" lon="2.07118">
        <ele>60</ele>
        <time>2017-11-26T10:21:30.000Z</time>
      </trkpt>
      <trkpt lat="48.99588" lon="2.07119">
        <ele>62</ele>
        <time>2017-11-26T10:21:41.000Z</time>
      </trkpt>
      <trkpt lat="48.996" lon="2.07125">
        <ele>61</ele>
        <time>2017-11-26T10:21:49.000Z</time>
      </trkpt>
      <trkpt lat="48.99609" lon="2.07132">
        <ele>62</ele>
        <time>2017-11-26T10:21:58.000Z</time>
      </trkpt>
      <trkpt lat="48.99618" lon="2.07138">
        <ele>63</ele>
        <time>2017-11-26T10:22:04.000Z</time>
      </trkpt>
      <trkpt lat="48.99628" lon="2.07139">
        <ele>63</ele>
        <time>2017-11-26T10:22:13.000Z</time>
      </trkpt>
      <trkpt lat="48.9964" lon="2.07141">
        <ele>55</ele>
        <time>2017-11-26T10:22:22.000Z</time>
      </trkpt>
      <trkpt lat="48.9965" lon="2.07142">
        <ele>56</ele>
        <time>2017-11-26T10:22:30.000Z</time>
      </trkpt>
      <trkpt lat="48.99659" lon="2.07142">
        <ele>55</ele>
        <time>2017-11-26T10:22:38.000Z</time>
      </trkpt>
      <trkpt lat="48.99669" lon="2.07144">
        <ele>57</ele>
        <time>2017-11-26T10:22:45.000Z</time>
      </trkpt>
      <trkpt lat="48.99678" lon="2.07146">
        <ele>56</ele>
        <time>2017-11-26T10:22:52.000Z</time>
      </trkpt>
      <trkpt lat="48.99689" lon="2.07145">
        <ele>56</ele>
        <time>2017-11-26T10:23:01.000Z</time>
      </trkpt>
      <trkpt lat="48.997" lon="2.07145">
        <ele>57</ele>
        <time>2017-11-26T10:23:09.000Z</time>
      </trkpt>
      <trkpt lat="48.99712" lon="2.07148">
        <ele>56</ele>
        <time>2017-11-26T10:23:17.000Z</time>
      </trkpt>
      <trkpt lat="48.99722" lon="2.0715">
        <ele>57</ele>
        <time>2017-11-26T10:23:26.000Z</time>
      </trkpt>
      <trkpt lat="48.99732" lon="2.07153">
        <ele>58</ele>
        <time>2017-11-26T10:23:35.000Z</time>
      </trkpt>
      <trkpt lat="48.99742" lon="2.07153">
        <ele>59</ele>
        <time>2017-11-26T10:23:42.000Z</time>
      </trkpt>
      <trkpt lat="48.99752" lon="2.07157">
        <ele>55</ele>
        <time>2017-11-26T10:23:52.000Z</time>
      </trkpt>
      <trkpt lat="48.99762" lon="2.07162">
        <ele>58</ele>
        <time>2017-11-26T10:24:00.000Z</time>
      </trkpt>
      <trkpt lat="48.99772" lon="2.07167">
        <ele>56</ele>
        <time>2017-11-26T10:24:09.000Z</time>
      </trkpt>
      <trkpt lat="48.99781" lon="2.07168">
        <ele>57</ele>
        <time>2017-11-26T10:24:16.000Z</time>
      </trkpt>
      <trkpt lat="48.99791" lon="2.07173">
        <ele>62</ele>
        <time>2017-11-26T10:24:26.000Z</time>
      </trkpt>
      <trkpt lat="48.99801" lon="2.07175">
        <ele>63</ele>
        <time>2017-11-26T10:24:34.000Z</time>
      </trkpt>
      <trkpt lat="48.99813" lon="2.07175">
        <ele>65</ele>
        <time>2017-11-26T10:24:44.000Z</time>
      </trkpt>
      <trkpt lat="48.99823" lon="2.07174">
        <ele>62</ele>
        <time>2017-11-26T10:24:51.000Z</time>
      </trkpt>
      <trkpt lat="48.99833" lon="2.07175">
        <ele>60</ele>
        <time>2017-11-26T10:25:01.000Z</time>
      </trkpt>
      <trkpt lat="48.99844" lon="2.07177">
        <ele>59</ele>
        <time>2017-11-26T10:25:10.000Z</time>
      </trkpt>
      <trkpt lat="48.99854" lon="2.07174">
        <ele>58</ele>
        <time>2017-11-26T10:25:23.000Z</time>
      </trkpt>
      <trkpt lat="48.99866" lon="2.07173">
        <ele>59</ele>
        <time>2017-11-26T10:25:33.000Z</time>
      </trkpt>
      <trkpt lat="48.99876" lon="2.07174">
        <ele>59</ele>
        <time>2017-11-26T10:25:41.000Z</time>
      </trkpt>
      <trkpt lat="48.9989" lon="2.07176">
        <ele>59</ele>
        <time>2017-11-26T10:25:52.000Z</time>
      </trkpt>
      <trkpt lat="48.999" lon="2.07176">
        <ele>57</ele>
        <time>2017-11-26T10:25:59.000Z</time>
      </trkpt>
      <trkpt lat="48.99908" lon="2.07173">
        <ele>59</ele>
        <time>2017-11-26T10:26:08.000Z</time>
      </trkpt>
      <trkpt lat="48.9992" lon="2.0717">
        <ele>56</ele>
        <time>2017-11-26T10:26:17.000Z</time>
      </trkpt>
      <trkpt lat="48.99932" lon="2.07169">
        <ele>59</ele>
        <time>2017-11-26T10:26:28.000Z</time>
      </trkpt>
      <trkpt lat="48.99942" lon="2.07167">
        <ele>59</ele>
        <time>2017-11-26T10:26:34.000Z</time>
      </trkpt>
      <trkpt lat="48.9995" lon="2.07168">
        <ele>59</ele>
        <time>2017-11-26T10:26:41.000Z</time>
      </trkpt>
      <trkpt lat="48.9996" lon="2.07166">
        <ele>58</ele>
        <time>2017-11-26T10:26:50.000Z</time>
      </trkpt>
      <trkpt lat="48.9997" lon="2.07162">
        <ele>58</ele>
        <time>2017-11-26T10:27:00.000Z</time>
      </trkpt>
      <trkpt lat="48.99979" lon="2.07158">
        <ele>57</ele>
        <time>2017-11-26T10:27:07.000Z</time>
      </trkpt>
      <trkpt lat="48.99989" lon="2.07159">
        <ele>63</ele>
        <time>2017-11-26T10:27:15.000Z</time>
      </trkpt>
      <trkpt lat="48.99998" lon="2.07159">
        <ele>61</ele>
        <time>2017-11-26T10:27:22.000Z</time>
      </trkpt>
      <trkpt lat="49.00008" lon="2.07158">
        <ele>64</ele>
        <time>2017-11-26T10:27:29.000Z</time>
      </trkpt>
      <trkpt lat="49.00017" lon="2.07159">
        <ele>60</ele>
        <time>2017-11-26T10:27:34.000Z</time>
      </trkpt>
      <trkpt lat="49.00026" lon="2.07154">
        <ele>61</ele>
        <time>2017-11-26T10:27:42.000Z</time>
      </trkpt>
      <trkpt lat="49.00037" lon="2.07155">
        <ele>63</ele>
        <time>2017-11-26T10:27:51.000Z</time>
      </trkpt>
      <trkpt lat="49.00047" lon="2.0715">
        <ele>57</ele>
        <time>2017-11-26T10:27:59.000Z</time>
      </trkpt>
      <trkpt lat="49.00057" lon="2.07147">
        <ele>59</ele>
        <time>2017-11-26T10:28:06.000Z</time>
      </trkpt>
      <trkpt lat="49.00067" lon="2.07146">
        <ele>58</ele>
        <time>2017-11-26T10:28:13.000Z</time>
      </trkpt>
      <trkpt lat="49.00076" lon="2.07142">
        <ele>60</ele>
        <time>2017-11-26T10:28:20.000Z</time>
      </trkpt>
      <trkpt lat="49.00089" lon="2.07137">
        <ele>62</ele>
        <time>2017-11-26T10:28:29.000Z</time>
      </trkpt>
      <trkpt lat="49.00099" lon="2.07135">
        <ele>64</ele>
        <time>2017-11-26T10:28:36.000Z</time>
      </trkpt>
      <trkpt lat="49.00108" lon="2.07131">
        <ele>60</ele>
        <time>2017-11-26T10:28:44.000Z</time>
      </trkpt>
      <trkpt lat="49.00118" lon="2.07128">
        <ele>57</ele>
        <time>2017-11-26T10:28:55.000Z</time>
      </trkpt>
      <trkpt lat="49.00128" lon="2.07123">
        <ele>58</ele>
        <time>2017-11-26T10:29:02.000Z</time>
      </trkpt>
      <trkpt lat="49.00139" lon="2.07118">
        <ele>58</ele>
        <time>2017-11-26T10:29:10.000Z</time>
      </trkpt>
      <trkpt lat="49.0015" lon="2.07115">
        <ele>59</ele>
        <time>2017-11-26T10:29:18.000Z</time>
      </trkpt>
      <trkpt lat="49.00161" lon="2.07109">
        <ele>61</ele>
        <time>2017-11-26T10:29:26.000Z</time>
      </trkpt>
      <trkpt lat="49.00171" lon="2.07108">
        <ele>64</ele>
        <time>2017-11-26T10:29:34.000Z</time>
      </trkpt>
      <trkpt lat="49.0018" lon="2.071">
        <ele>65</ele>
        <time>2017-11-26T10:29:43.000Z</time>
      </trkpt>
      <trkpt lat="49.00189" lon="2.07095">
        <ele>61</ele>
        <time>2017-11-26T10:29:50.000Z</time>
      </trkpt>
      <trkpt lat="49.00199" lon="2.07095">
        <ele>63</ele>
        <time>2017-11-26T10:29:58.000Z</time>
      </trkpt>
      <trkpt lat="49.00209" lon="2.0709">
        <ele>62</ele>
        <time>2017-11-26T10:30:06.000Z</time>
      </trkpt>
      <trkpt lat="49.0022" lon="2.07085">
        <ele>60</ele>
        <time>2017-11-26T10:30:14.000Z</time>
      </trkpt>
      <trkpt lat="49.0023" lon="2.07078">
        <ele>58</ele>
        <time>2017-11-26T10:30:22.000Z</time>
      </trkpt>
      <trkpt lat="49.00239" lon="2.07073">
        <ele>57</ele>
        <time>2017-11-26T10:30:28.000Z</time>
      </trkpt>
      <trkpt lat="49.00249" lon="2.0707">
        <ele>57</ele>
        <time>2017-11-26T10:30:36.000Z</time>
      </trkpt>
      <trkpt lat="49.00261" lon="2.07062">
        <ele>59</ele>
        <time>2017-11-26T10:30:45.000Z</time>
      </trkpt>
      <trkpt lat="49.00269" lon="2.07058">
        <ele>61</ele>
        <time>2017-11-26T10:30:51.000Z</time>
      </trkpt>
      <trkpt lat="49.00279" lon="2.07048">
        <ele>64</ele>
        <time>2017-11-26T10:31:00.000Z</time>
      </trkpt>
      <trkpt lat="49.00288" lon="2.07042">
        <ele>64</ele>
        <time>2017-11-26T10:31:09.000Z</time>
      </trkpt>
      <trkpt lat="49.00297" lon="2.07037">
        <ele>66</ele>
        <time>2017-11-26T10:31:16.000Z</time>
      </trkpt>
      <trkpt lat="49.00308" lon="2.07032">
        <ele>66</ele>
        <time>2017-11-26T10:31:23.000Z</time>
      </trkpt>
      <trkpt lat="49.00315" lon="2.07022">
        <ele>68</ele>
        <time>2017-11-26T10:31:30.000Z</time>
      </trkpt>
      <trkpt lat="49.00325" lon="2.07014">
        <ele>67</ele>
        <time>2017-11-26T10:31:37.000Z</time>
      </trkpt>
      <trkpt lat="49.00334" lon="2.07005">
        <ele>65</ele>
        <time>2017-11-26T10:31:44.000Z</time>
      </trkpt>
      <trkpt lat="49.00342" lon="2.06993">
        <ele>65</ele>
        <time>2017-11-26T10:31:55.000Z</time>
      </trkpt>
      <trkpt lat="49.00349" lon="2.06983">
        <ele>66</ele>
        <time>2017-11-26T10:32:03.000Z</time>
      </trkpt>
      <trkpt lat="49.00359" lon="2.06981">
        <ele>62</ele>
        <time>2017-11-26T10:32:10.000Z</time>
      </trkpt>
      <trkpt lat="49.00368" lon="2.06975">
        <ele>62</ele>
        <time>2017-11-26T10:32:18.000Z</time>
      </trkpt>
      <trkpt lat="49.00374" lon="2.06966">
        <ele>60</ele>
        <time>2017-11-26T10:32:26.000Z</time>
      </trkpt>
      <trkpt lat="49.00383" lon="2.06958">
        <ele>57</ele>
        <time>2017-11-26T10:32:34.000Z</time>
      </trkpt>
      <trkpt lat="49.00392" lon="2.06947">
        <ele>59</ele>
        <time>2017-11-26T10:32:41.000Z</time>
      </trkpt>
      <trkpt lat="49.00401" lon="2.06943">
        <ele>58</ele>
        <time>2017-11-26T10:32:48.000Z</time>
      </trkpt>
      <trkpt lat="49.00409" lon="2.06929">
        <ele>57</ele>
        <time>2017-11-26T10:32:58.000Z</time>
      </trkpt>
      <trkpt lat="49.00419" lon="2.0692">
        <ele>60</ele>
        <time>2017-11-26T10:33:06.000Z</time>
      </trkpt>
      <trkpt lat="49.0043" lon="2.0691">
        <ele>59</ele>
        <time>2017-11-26T10:33:14.000Z</time>
      </trkpt>
      <trkpt lat="49.00441" lon="2.06903">
        <ele>59</ele>
        <time>2017-11-26T10:33:22.000Z</time>
      </trkpt>
      <trkpt lat="49.00449" lon="2.06895">
        <ele>59</ele>
        <time>2017-11-26T10:33:30.000Z</time>
      </trkpt>
      <trkpt lat="49.00459" lon="2.06885">
        <ele>65</ele>
        <time>2017-11-26T10:33:38.000Z</time>
      </trkpt>
      <trkpt lat="49.00471" lon="2.06876">
        <ele>63</ele>
        <time>2017-11-26T10:33:47.000Z</time>
      </trkpt>
      <trkpt lat="49.0048" lon="2.06867">
        <ele>60</ele>
        <time>2017-11-26T10:33:55.000Z</time>
      </trkpt>
      <trkpt lat="49.00488" lon="2.06856">
        <ele>57</ele>
        <time>2017-11-26T10:34:03.000Z</time>
      </trkpt>
      <trkpt lat="49.00495" lon="2.06849">
        <ele>59</ele>
        <time>2017-11-26T10:34:11.000Z</time>
      </trkpt>
      <trkpt lat="49.00503" lon="2.0684">
        <ele>58</ele>
        <time>2017-11-26T10:34:18.000Z</time>
      </trkpt>
      <trkpt lat="49.00509" lon="2.06829">
        <ele>59</ele>
        <time>2017-11-26T10:34:25.000Z</time>
      </trkpt>
      <trkpt lat="49.0052" lon="2.06824">
        <ele>61</ele>
        <time>2017-11-26T10:34:34.000Z</time>
      </trkpt>
      <trkpt lat="49.00529" lon="2.06817">
        <ele>61</ele>
        <time>2017-11-26T10:34:43.000Z</time>
      </trkpt>
      <trkpt lat="49.00536" lon="2.06806">
        <ele>62</ele>
        <time>2017-11-26T10:34:51.000Z</time>
      </trkpt>
      <trkpt lat="49.00543" lon="2.06794">
        <ele>65</ele>
        <time>2017-11-26T10:35:00.000Z</time>
      </trkpt>
      <trkpt lat="49.00551" lon="2.06788">
        <ele>66</ele>
        <time>2017-11-26T10:35:07.000Z</time>
      </trkpt>
      <trkpt lat="49.00557" lon="2.06778">
        <ele>65</ele>
        <time>2017-11-26T10:35:14.000Z</time>
      </trkpt>
      <trkpt lat="49.00563" lon="2.06767">
        <ele>63</ele>
        <time>2017-11-26T10:35:21.000Z</time>
      </trkpt>
      <trkpt lat="49.0057" lon="2.06757">
        <ele>63</ele>
        <time>2017-11-26T10:35:29.000Z</time>
      </trkpt>
      <trkpt lat="49.00578" lon="2.06747">
        <ele>62</ele>
        <time>2017-11-26T10:35:38.000Z</time>
      </trkpt>
      <trkpt lat="49.00586" lon="2.06738">
        <ele>64</ele>
        <time>2017-11-26T10:35:45.000Z</time>
      </trkpt>
      <trkpt lat="49.00595" lon="2.06732">
        <ele>65</ele>
        <time>2017-11-26T10:35:50.000Z</time>
      </trkpt>
      <trkpt lat="49.00601" lon="2.06722">
        <ele>64</ele>
        <time>2017-11-26T10:35:57.000Z</time>
      </trkpt>
      <trkpt lat="49.00609" lon="2.06712">
        <ele>64</ele>
        <time>2017-11-26T10:36:05.000Z</time>
      </trkpt>
      <trkpt lat="49.00618" lon="2.06697">
        <ele>66</ele>
        <time>2017-11-26T10:36:14.000Z</time>
      </trkpt>
      <trkpt lat="49.00625" lon="2.06686">
        <ele>63</ele>
        <time>2017-11-26T10:36:22.000Z</time>
      </trkpt>
      <trkpt lat="49.0063" lon="2.06675">
        <ele>63</ele>
        <time>2017-11-26T10:36:29.000Z</time>
      </trkpt>
      <trkpt lat="49.00638" lon="2.06668">
        <ele>59</ele>
        <time>2017-11-26T10:36:34.000Z</time>
      </trkpt>
      <trkpt lat="49.00646" lon="2.06658">
        <ele>60</ele>
        <time>2017-11-26T10:36:42.000Z</time>
      </trkpt>
      <trkpt lat="49.00654" lon="2.06648">
        <ele>63</ele>
        <time>2017-11-26T10:36:50.000Z</time>
      </trkpt>
      <trkpt lat="49.00659" lon="2.06637">
        <ele>64</ele>
        <time>2017-11-26T10:36:58.000Z</time>
      </trkpt>
      <trkpt lat="49.00664" lon="2.06625">
        <ele>60</ele>
        <time>2017-11-26T10:37:05.000Z</time>
      </trkpt>
      <trkpt lat="49.0067" lon="2.06614">
        <ele>60</ele>
        <time>2017-11-26T10:37:12.000Z</time>
      </trkpt>
      <trkpt lat="49.00678" lon="2.06606">
        <ele>61</ele>
        <time>2017-11-26T10:37:20.000Z</time>
      </trkpt>
      <trkpt lat="49.00685" lon="2.06594">
        <ele>62</ele>
        <time>2017-11-26T10:37:32.000Z</time>
      </trkpt>
      <trkpt lat="49.00692" lon="2.06584">
        <ele>63</ele>
        <time>2017-11-26T10:37:40.000Z</time>
      </trkpt>
      <trkpt lat="49.00698" lon="2.06573">
        <ele>62</ele>
        <time>2017-11-26T10:37:47.000Z</time>
      </trkpt>
      <trkpt lat="49.00705" lon="2.06561">
        <ele>56</ele>
        <time>2017-11-26T10:37:54.000Z</time>
      </trkpt>
      <trkpt lat="49.00711" lon="2.06549">
        <ele>55</ele>
        <time>2017-11-26T10:38:02.000Z</time>
      </trkpt>
      <trkpt lat="49.00718" lon="2.06541">
        <ele>57</ele>
        <time>2017-11-26T10:38:10.000Z</time>
      </trkpt>
      <trkpt lat="49.00726" lon="2.06526">
        <ele>58</ele>
        <time>2017-11-26T10:38:18.000Z</time>
      </trkpt>
      <trkpt lat="49.00736" lon="2.06518">
        <ele>62</ele>
        <time>2017-11-26T10:38:25.000Z</time>
      </trkpt>
      <trkpt lat="49.00743" lon="2.06507">
        <ele>64</ele>
        <time>2017-11-26T10:38:31.000Z</time>
      </trkpt>
      <trkpt lat="49.00748" lon="2.06495">
        <ele>60</ele>
        <time>2017-11-26T10:38:39.000Z</time>
      </trkpt>
      <trkpt lat="49.00754" lon="2.06483">
        <ele>60</ele>
        <time>2017-11-26T10:38:48.000Z</time>
      </trkpt>
      <trkpt lat="49.00761" lon="2.06472">
        <ele>60</ele>
        <time>2017-11-26T10:38:56.000Z</time>
      </trkpt>
      <trkpt lat="49.00771" lon="2.06461">
        <ele>58</ele>
        <time>2017-11-26T10:39:05.000Z</time>
      </trkpt>
      <trkpt lat="49.00779" lon="2.06449">
        <ele>58</ele>
        <time>2017-11-26T10:39:15.000Z</time>
      </trkpt>
      <trkpt lat="49.00787" lon="2.06437">
        <ele>61</ele>
        <time>2017-11-26T10:39:25.000Z</time>
      </trkpt>
      <trkpt lat="49.00795" lon="2.06429">
        <ele>61</ele>
        <time>2017-11-26T10:39:36.000Z</time>
      </trkpt>
      <trkpt lat="49.00801" lon="2.06419">
        <ele>59</ele>
        <time>2017-11-26T10:39:44.000Z</time>
      </trkpt>
      <trkpt lat="49.00808" lon="2.06409">
        <ele>57</ele>
        <time>2017-11-26T10:39:51.000Z</time>
      </trkpt>
      <trkpt lat="49.00814" lon="2.06398">
        <ele>55</ele>
        <time>2017-11-26T10:39:58.000Z</time>
      </trkpt>
      <trkpt lat="49.00822" lon="2.06387">
        <ele>56</ele>
        <time>2017-11-26T10:40:07.000Z</time>
      </trkpt>
      <trkpt lat="49.00831" lon="2.06378">
        <ele>55</ele>
        <time>2017-11-26T10:40:16.000Z</time>
      </trkpt>
      <trkpt lat="49.00837" lon="2.06362">
        <ele>55</ele>
        <time>2017-11-26T10:40:27.000Z</time>
      </trkpt>
      <trkpt lat="49.00845" lon="2.06351">
        <ele>55</ele>
        <time>2017-11-26T10:40:36.000Z</time>
      </trkpt>
      <trkpt lat="49.00851" lon="2.06339">
        <ele>57</ele>
        <time>2017-11-26T10:40:44.000Z</time>
      </trkpt>
      <trkpt lat="49.00859" lon="2.0633">
        <ele>59</ele>
        <time>2017-11-26T10:40:51.000Z</time>
      </trkpt>
      <trkpt lat="49.00866" lon="2.0632">
        <ele>62</ele>
        <time>2017-11-26T10:40:58.000Z</time>
      </trkpt>
      <trkpt lat="49.00871" lon="2.06308">
        <ele>61</ele>
        <time>2017-11-26T10:41:03.000Z</time>
      </trkpt>
      <trkpt lat="49.00878" lon="2.063">
        <ele>60</ele>
        <time>2017-11-26T10:41:10.000Z</time>
      </trkpt>
      <trkpt lat="49.00887" lon="2.06294">
        <ele>62</ele>
        <time>2017-11-26T10:41:18.000Z</time>
      </trkpt>
      <trkpt lat="49.00895" lon="2.06285">
        <ele>64</ele>
        <time>2017-11-26T10:41:26.000Z</time>
      </trkpt>
      <trkpt lat="49.00905" lon="2.06277">
        <ele>63</ele>
        <time>2017-11-26T10:41:36.000Z</time>
      </trkpt>
      <trkpt lat="49.00914" lon="2.06266">
        <ele>59</ele>
        <time>2017-11-26T10:41:44.000Z</time>
      </trkpt>
      <trkpt lat="49.00919" lon="2.06254">
        <ele>58</ele>
        <time>2017-11-26T10:41:51.000Z</time>
      </trkpt>
      <trkpt lat="49.00928" lon="2.06244">
        <ele>60</ele>
        <time>2017-11-26T10:42:00.000Z</time>
      </trkpt>
      <trkpt lat="49.00935" lon="2.06229">
        <ele>57</ele>
        <time>2017-11-26T10:42:10.000Z</time>
      </trkpt>
      <trkpt lat="49.00943" lon="2.0622">
        <ele>58</ele>
        <time>2017-11-26T10:42:17.000Z</time>
      </trkpt>
      <trkpt lat="49.0095" lon="2.06211">
        <ele>66</ele>
        <time>2017-11-26T10:42:26.000Z</time>
      </trkpt>
      <trkpt lat="49.00959" lon="2.06202">
        <ele>63</ele>
        <time>2017-11-26T10:42:35.000Z</time>
      </trkpt>
      <trkpt lat="49.00966" lon="2.06192">
        <ele>65</ele>
        <time>2017-11-26T10:42:42.000Z</time>
      </trkpt>
      <trkpt lat="49.00973" lon="2.06181">
        <ele>60</ele>
        <time>2017-11-26T10:42:50.000Z</time>
      </trkpt>
      <trkpt lat="49.0098" lon="2.06172">
        <ele>63</ele>
        <time>2017-11-26T10:43:00.000Z</time>
      </trkpt>
      <trkpt lat="49.00991" lon="2.06167">
        <ele>62</ele>
        <time>2017-11-26T10:43:09.000Z</time>
      </trkpt>
      <trkpt lat="49.01001" lon="2.0616">
        <ele>64</ele>
        <time>2017-11-26T10:43:19.000Z</time>
      </trkpt>
      <trkpt lat="49.01005" lon="2.06147">
        <ele>64</ele>
        <time>2017-11-26T10:43:26.000Z</time>
      </trkpt>
      <trkpt lat="49.01012" lon="2.06136">
        <ele>64</ele>
        <time>2017-11-26T10:43:35.000Z</time>
      </trkpt>
      <trkpt lat="49.01019" lon="2.06128">
        <ele>65</ele>
        <time>2017-11-26T10:43:43.000Z</time>
      </trkpt>
      <trkpt lat="49.01028" lon="2.06118">
        <ele>65</ele>
        <time>2017-11-26T10:43:50.000Z</time>
      </trkpt>
      <trkpt lat="49.01037" lon="2.06111">
        <ele>63</ele>
        <time>2017-11-26T10:43:58.000Z</time>
      </trkpt>
      <trkpt lat="49.01042" lon="2.061">
        <ele>65</ele>
        <time>2017-11-26T10:44:06.000Z</time>
      </trkpt>
      <trkpt lat="49.01051" lon="2.06091">
        <ele>67</ele>
        <time>2017-11-26T10:44:14.000Z</time>
      </trkpt>
      <trkpt lat="49.01057" lon="2.0608">
        <ele>65</ele>
        <time>2017-11-26T10:44:20.000Z</time>
      </trkpt>
      <trkpt lat="49.01062" lon="2.06069">
        <ele>65</ele>
        <time>2017-11-26T10:44:28.000Z</time>
      </trkpt>
      <trkpt lat="49.01072" lon="2.06059">
        <ele>66</ele>
        <time>2017-11-26T10:44:37.000Z</time>
      </trkpt>
      <trkpt lat="49.01081" lon="2.0605">
        <ele>64</ele>
        <time>2017-11-26T10:44:46.000Z</time>
      </trkpt>
      <trkpt lat="49.01091" lon="2.06038">
        <ele>63</ele>
        <time>2017-11-26T10:44:55.000Z</time>
      </trkpt>
      <trkpt lat="49.01099" lon="2.06025">
        <ele>63</ele>
        <time>2017-11-26T10:45:03.000Z</time>
      </trkpt>
      <trkpt lat="49.01106" lon="2.0601">
        <ele>65</ele>
        <time>2017-11-26T10:45:13.000Z</time>
      </trkpt>
      <trkpt lat="49.01115" lon="2.06">
        <ele>60</ele>
        <time>2017-11-26T10:45:22.000Z</time>
      </trkpt>
      <trkpt lat="49.01122" lon="2.05991">
        <ele>61</ele>
        <time>2017-11-26T10:45:30.000Z</time>
      </trkpt>
      <trkpt lat="49.01129" lon="2.0598">
        <ele>63</ele>
        <time>2017-11-26T10:45:38.000Z</time>
      </trkpt>
      <trkpt lat="49.01136" lon="2.05971">
        <ele>63</ele>
        <time>2017-11-26T10:45:48.000Z</time>
      </trkpt>
      <trkpt lat="49.01144" lon="2.0596">
        <ele>62</ele>
        <time>2017-11-26T10:45:58.000Z</time>
      </trkpt>
      <trkpt lat="49.01152" lon="2.05951">
        <ele>62</ele>
        <time>2017-11-26T10:46:08.000Z</time>
      </trkpt>
      <trkpt lat="49.01154" lon="2.05937">
        <ele>63</ele>
        <time>2017-11-26T10:46:16.000Z</time>
      </trkpt>
      <trkpt lat="49.01161" lon="2.05924">
        <ele>64</ele>
        <time>2017-11-26T10:46:25.000Z</time>
      </trkpt>
      <trkpt lat="49.01166" lon="2.05912">
        <ele>65</ele>
        <time>2017-11-26T10:46:32.000Z</time>
      </trkpt>
      <trkpt lat="49.01174" lon="2.05902">
        <ele>64</ele>
        <time>2017-11-26T10:46:42.000Z</time>
      </trkpt>
      <trkpt lat="49.01181" lon="2.05892">
        <ele>62</ele>
        <time>2017-11-26T10:46:50.000Z</time>
      </trkpt>
      <trkpt lat="49.01188" lon="2.05881">
        <ele>58</ele>
        <time>2017-11-26T10:46:57.000Z</time>
      </trkpt>
      <trkpt lat="49.01195" lon="2.0587">
        <ele>59</ele>
        <time>2017-11-26T10:47:06.000Z</time>
      </trkpt>
      <trkpt lat="49.01202" lon="2.05859">
        <ele>60</ele>
        <time>2017-11-26T10:47:15.000Z</time>
      </trkpt>
      <trkpt lat="49.0121" lon="2.0585">
        <ele>60</ele>
        <time>2017-11-26T10:47:22.000Z</time>
      </trkpt>
      <trkpt lat="49.01217" lon="2.05838">
        <ele>63</ele>
        <time>2017-11-26T10:47:31.000Z</time>
      </trkpt>
      <trkpt lat="49.01224" lon="2.0583">
        <ele>59</ele>
        <time>2017-11-26T10:47:40.000Z</time>
      </trkpt>
      <trkpt lat="49.0123" lon="2.0582">
        <ele>61</ele>
        <time>2017-11-26T10:47:47.000Z</time>
      </trkpt>
      <trkpt lat="49.01237" lon="2.05809">
        <ele>61</ele>
        <time>2017-11-26T10:47:57.000Z</time>
      </trkpt>
      <trkpt lat="49.01245" lon="2.05799">
        <ele>63</ele>
        <time>2017-11-26T10:48:06.000Z</time>
      </trkpt>
      <trkpt lat="49.01249" lon="2.05787">
        <ele>65</ele>
        <time>2017-11-26T10:48:13.000Z</time>
      </trkpt>
      <trkpt lat="49.01257" lon="2.05778">
        <ele>68</ele>
        <time>2017-11-26T10:48:21.000Z</time>
      </trkpt>
      <trkpt lat="49.01266" lon="2.05769">
        <ele>66</ele>
        <time>2017-11-26T10:48:30.000Z</time>
      </trkpt>
      <trkpt lat="49.01276" lon="2.05764">
        <ele>63</ele>
        <time>2017-11-26T10:48:37.000Z</time>
      </trkpt>
      <trkpt lat="49.01283" lon="2.05753">
        <ele>64</ele>
        <time>2017-11-26T10:48:46.000Z</time>
      </trkpt>
      <trkpt lat="49.0129" lon="2.05743">
        <ele>62</ele>
        <time>2017-11-26T10:48:54.000Z</time>
      </trkpt>
      <trkpt lat="49.01301" lon="2.05732">
        <ele>60</ele>
        <time>2017-11-26T10:49:04.000Z</time>
      </trkpt>
      <trkpt lat="49.0131" lon="2.05722">
        <ele>58</ele>
        <time>2017-11-26T10:49:12.000Z</time>
      </trkpt>
      <trkpt lat="49.01316" lon="2.05712">
        <ele>62</ele>
        <time>2017-11-26T10:49:20.000Z</time>
      </trkpt>
      <trkpt lat="49.01325" lon="2.05705">
        <ele>62</ele>
        <time>2017-11-26T10:49:27.000Z</time>
      </trkpt>
      <trkpt lat="49.01333" lon="2.05696">
        <ele>60</ele>
        <time>2017-11-26T10:49:35.000Z</time>
      </trkpt>
      <trkpt lat="49.01341" lon="2.05688">
        <ele>59</ele>
        <time>2017-11-26T10:49:41.000Z</time>
      </trkpt>
      <trkpt lat="49.01348" lon="2.05676">
        <ele>60</ele>
        <time>2017-11-26T10:49:51.000Z</time>
      </trkpt>
      <trkpt lat="49.01356" lon="2.05668">
        <ele>56</ele>
        <time>2017-11-26T10:50:01.000Z</time>
      </trkpt>
      <trkpt lat="49.01364" lon="2.05655">
        <ele>56</ele>
        <time>2017-11-26T10:50:11.000Z</time>
      </trkpt>
      <trkpt lat="49.01372" lon="2.05644">
        <ele>54</ele>
        <time>2017-11-26T10:50:21.000Z</time>
      </trkpt>
      <trkpt lat="49.01379" lon="2.05633">
        <ele>60</ele>
        <time>2017-11-26T10:50:30.000Z</time>
      </trkpt>
      <trkpt lat="49.01384" lon="2.05622">
        <ele>62</ele>
        <time>2017-11-26T10:50:41.000Z</time>
      </trkpt>
      <trkpt lat="49.01395" lon="2.05615">
        <ele>63</ele>
        <time>2017-11-26T10:50:51.000Z</time>
      </trkpt>
      <trkpt lat="49.01404" lon="2.05613">
        <ele>60</ele>
        <time>2017-11-26T10:50:58.000Z</time>
      </trkpt>
      <trkpt lat="49.01412" lon="2.0562">
        <ele>63</ele>
        <time>2017-11-26T10:51:07.000Z</time>
      </trkpt>
      <trkpt lat="49.01421" lon="2.05625">
        <ele>65</ele>
        <time>2017-11-26T10:51:18.000Z</time>
      </trkpt>
      <trkpt lat="49.01431" lon="2.05624">
        <ele>66</ele>
        <time>2017-11-26T10:51:27.000Z</time>
      </trkpt>
      <trkpt lat="49.01439" lon="2.05613">
        <ele>71</ele>
        <time>2017-11-26T10:51:40.000Z</time>
      </trkpt>
      <trkpt lat="49.01447" lon="2.05605">
        <ele>73</ele>
        <time>2017-11-26T10:51:49.000Z</time>
      </trkpt>
      <trkpt lat="49.01453" lon="2.05594">
        <ele>74</ele>
        <time>2017-11-26T10:51:58.000Z</time>
      </trkpt>
      <trkpt lat="49.01463" lon="2.05586">
        <ele>70</ele>
        <time>2017-11-26T10:52:06.000Z</time>
      </trkpt>
      <trkpt lat="49.01469" lon="2.05576">
        <ele>71</ele>
        <time>2017-11-26T10:52:15.000Z</time>
      </trkpt>
      <trkpt lat="49.01474" lon="2.05565">
        <ele>68</ele>
        <time>2017-11-26T10:52:24.000Z</time>
      </trkpt>
      <trkpt lat="49.01482" lon="2.05555">
        <ele>67</ele>
        <time>2017-11-26T10:52:32.000Z</time>
      </trkpt>
      <trkpt lat="49.01488" lon="2.0554">
        <ele>67</ele>
        <time>2017-11-26T10:52:43.000Z</time>
      </trkpt>
      <trkpt lat="49.01497" lon="2.05529">
        <ele>67</ele>
        <time>2017-11-26T10:52:54.000Z</time>
      </trkpt>
      <trkpt lat="49.01505" lon="2.05518">
        <ele>65</ele>
        <time>2017-11-26T10:53:05.000Z</time>
      </trkpt>
      <trkpt lat="49.01513" lon="2.0551">
        <ele>64</ele>
        <time>2017-11-26T10:53:16.000Z</time>
      </trkpt>
      <trkpt lat="49.01519" lon="2.05497">
        <ele>65</ele>
        <time>2017-11-26T10:53:26.000Z</time>
      </trkpt>
      <trkpt lat="49.01525" lon="2.05486">
        <ele>67</ele>
        <time>2017-11-26T10:53:34.000Z</time>
      </trkpt>
      <trkpt lat="49.0153" lon="2.05474">
        <ele>65</ele>
        <time>2017-11-26T10:53:43.000Z</time>
      </trkpt>
      <trkpt lat="49.01533" lon="2.05459">
        <ele>72</ele>
        <time>2017-11-26T10:53:52.000Z</time>
      </trkpt>
      <trkpt lat="49.01539" lon="2.05448">
        <ele>71</ele>
        <time>2017-11-26T10:54:02.000Z</time>
      </trkpt>
      <trkpt lat="49.01547" lon="2.0544">
        <ele>70</ele>
        <time>2017-11-26T10:54:11.000Z</time>
      </trkpt>
      <trkpt lat="49.01554" lon="2.05429">
        <ele>69</ele>
        <time>2017-11-26T10:54:22.000Z</time>
      </trkpt>
      <trkpt lat="49.01559" lon="2.05414">
        <ele>72</ele>
        <time>2017-11-26T10:54:34.000Z</time>
      </trkpt>
      <trkpt lat="49.01568" lon="2.05402">
        <ele>72</ele>
        <time>2017-11-26T10:54:45.000Z</time>
      </trkpt>
      <trkpt lat="49.01576" lon="2.05392">
        <ele>67</ele>
        <time>2017-11-26T10:54:53.000Z</time>
      </trkpt>
      <trkpt lat="49.01582" lon="2.0538">
        <ele>67</ele>
        <time>2017-11-26T10:55:03.000Z</time>
      </trkpt>
      <trkpt lat="49.01589" lon="2.05372">
        <ele>68</ele>
        <time>2017-11-26T10:55:10.000Z</time>
      </trkpt>
      <trkpt lat="49.01595" lon="2.0536">
        <ele>65</ele>
        <time>2017-11-26T10:55:20.000Z</time>
      </trkpt>
      <trkpt lat="49.01601" lon="2.05348">
        <ele>64</ele>
        <time>2017-11-26T10:55:31.000Z</time>
      </trkpt>
      <trkpt lat="49.01609" lon="2.05338">
        <ele>62</ele>
        <time>2017-11-26T10:55:41.000Z</time>
      </trkpt>
      <trkpt lat="49.01618" lon="2.05333">
        <ele>61</ele>
        <time>2017-11-26T10:55:51.000Z</time>
      </trkpt>
      <trkpt lat="49.01622" lon="2.05321">
        <ele>62</ele>
        <time>2017-11-26T10:56:00.000Z</time>
      </trkpt>
      <trkpt lat="49.01627" lon="2.0531">
        <ele>61</ele>
        <time>2017-11-26T10:56:09.000Z</time>
      </trkpt>
      <trkpt lat="49.01635" lon="2.053">
        <ele>61</ele>
        <time>2017-11-26T10:56:18.000Z</time>
      </trkpt>
      <trkpt lat="49.0164" lon="2.05288">
        <ele>64</ele>
        <time>2017-11-26T10:56:26.000Z</time>
      </trkpt>
      <trkpt lat="49.01646" lon="2.05278">
        <ele>63</ele>
        <time>2017-11-26T10:56:33.000Z</time>
      </trkpt>
      <trkpt lat="49.01653" lon="2.05267">
        <ele>60</ele>
        <time>2017-11-26T10:56:41.000Z</time>
      </trkpt>
      <trkpt lat="49.01659" lon="2.05254">
        <ele>61</ele>
        <time>2017-11-26T10:56:50.000Z</time>
      </trkpt>
      <trkpt lat="49.01669" lon="2.05248">
        <ele>62</ele>
        <time>2017-11-26T10:57:00.000Z</time>
      </trkpt>
      <trkpt lat="49.01677" lon="2.05238">
        <ele>64</ele>
        <time>2017-11-26T10:57:07.000Z</time>
      </trkpt>
      <trkpt lat="49.0168" lon="2.05226">
        <ele>69</ele>
        <time>2017-11-26T10:57:13.000Z</time>
      </trkpt>
      <trkpt lat="49.01685" lon="2.0521">
        <ele>72</ele>
        <time>2017-11-26T10:57:23.000Z</time>
      </trkpt>
      <trkpt lat="49.01691" lon="2.05196">
        <ele>66</ele>
        <time>2017-11-26T10:57:32.000Z</time>
      </trkpt>
      <trkpt lat="49.01695" lon="2.05184">
        <ele>63</ele>
        <time>2017-11-26T10:57:40.000Z</time>
      </trkpt>
      <trkpt lat="49.01701" lon="2.05173">
        <ele>68</ele>
        <time>2017-11-26T10:57:50.000Z</time>
      </trkpt>
      <trkpt lat="49.0171" lon="2.05169">
        <ele>63</ele>
        <time>2017-11-26T10:57:59.000Z</time>
      </trkpt>
      <trkpt lat="49.01717" lon="2.0516">
        <ele>64</ele>
        <time>2017-11-26T10:58:06.000Z</time>
      </trkpt>
      <trkpt lat="49.01725" lon="2.05151">
        <ele>64</ele>
        <time>2017-11-26T10:58:16.000Z</time>
      </trkpt>
      <trkpt lat="49.0173" lon="2.05139">
        <ele>66</ele>
        <time>2017-11-26T10:58:24.000Z</time>
      </trkpt>
      <trkpt lat="49.01734" lon="2.05124">
        <ele>65</ele>
        <time>2017-11-26T10:58:32.000Z</time>
      </trkpt>
      <trkpt lat="49.01741" lon="2.05115">
        <ele>65</ele>
        <time>2017-11-26T10:58:42.000Z</time>
      </trkpt>
      <trkpt lat="49.01749" lon="2.05103">
        <ele>64</ele>
        <time>2017-11-26T10:58:53.000Z</time>
      </trkpt>
      <trkpt lat="49.01757" lon="2.05095">
        <ele>63</ele>
        <time>2017-11-26T10:59:03.000Z</time>
      </trkpt>
      <trkpt lat="49.01765" lon="2.05083">
        <ele>61</ele>
        <time>2017-11-26T10:59:14.000Z</time>
      </trkpt>
      <trkpt lat="49.01771" lon="2.0507">
        <ele>62</ele>
        <time>2017-11-26T10:59:25.000Z</time>
      </trkpt>
      <trkpt lat="49.01779" lon="2.05059">
        <ele>60</ele>
        <time>2017-11-26T10:59:36.000Z</time>
      </trkpt>
      <trkpt lat="49.01786" lon="2.05049">
        <ele>62</ele>
        <time>2017-11-26T10:59:46.000Z</time>
      </trkpt>
      <trkpt lat="49.01794" lon="2.05039">
        <ele>63</ele>
        <time>2017-11-26T10:59:55.000Z</time>
      </trkpt>
      <trkpt lat="49.01801" lon="2.05028">
        <ele>63</ele>
        <time>2017-11-26T11:00:06.000Z</time>
      </trkpt>
      <trkpt lat="49.01808" lon="2.05014">
        <ele>64</ele>
        <time>2017-11-26T11:00:16.000Z</time>
      </trkpt>
      <trkpt lat="49.01817" lon="2.05004">
        <ele>63</ele>
        <time>2017-11-26T11:00:24.000Z</time>
      </trkpt>
      <trkpt lat="49.01819" lon="2.0499">
        <ele>65</ele>
        <time>2017-11-26T11:00:35.000Z</time>
      </trkpt>
      <trkpt lat="49.01825" lon="2.04976">
        <ele>66</ele>
        <time>2017-11-26T11:00:48.000Z</time>
      </trkpt>
      <trkpt lat="49.01834" lon="2.04971">
        <ele>65</ele>
        <time>2017-11-26T11:00:57.000Z</time>
      </trkpt>
      <trkpt lat="49.01841" lon="2.04958">
        <ele>65</ele>
        <time>2017-11-26T11:01:09.000Z</time>
      </trkpt>
      <trkpt lat="49.01845" lon="2.04941">
        <ele>68</ele>
        <time>2017-11-26T11:01:24.000Z</time>
      </trkpt>
      <trkpt lat="49.01853" lon="2.04934">
        <ele>66</ele>
        <time>2017-11-26T11:01:31.000Z</time>
      </trkpt>
      <trkpt lat="49.01862" lon="2.0493">
        <ele>61</ele>
        <time>2017-11-26T11:01:40.000Z</time>
      </trkpt>
      <trkpt lat="49.01869" lon="2.04919">
        <ele>62</ele>
        <time>2017-11-26T11:01:51.000Z</time>
      </trkpt>
      <trkpt lat="49.01875" lon="2.04908">
        <ele>62</ele>
        <time>2017-11-26T11:02:00.000Z</time>
      </trkpt>
      <trkpt lat="49.01882" lon="2.04899">
        <ele>61</ele>
        <time>2017-11-26T11:02:08.000Z</time>
      </trkpt>
      <trkpt lat="49.01888" lon="2.04888">
        <ele>63</ele>
        <time>2017-11-26T11:02:16.000Z</time>
      </trkpt>
      <trkpt lat="49.01897" lon="2.04882">
        <ele>63</ele>
        <time>2017-11-26T11:02:25.000Z</time>
      </trkpt>
      <trkpt lat="49.01904" lon="2.04873">
        <ele>63</ele>
        <time>2017-11-26T11:02:34.000Z</time>
      </trkpt>
      <trkpt lat="49.01911" lon="2.04864">
        <ele>62</ele>
        <time>2017-11-26T11:02:42.000Z</time>
      </trkpt>
      <trkpt lat="49.01921" lon="2.04854">
        <ele>62</ele>
        <time>2017-11-26T11:02:52.000Z</time>
      </trkpt>
      <trkpt lat="49.01929" lon="2.04843">
        <ele>62</ele>
        <time>2017-11-26T11:03:00.000Z</time>
      </trkpt>
      <trkpt lat="49.01935" lon="2.04833">
        <ele>62</ele>
        <time>2017-11-26T11:03:07.000Z</time>
      </trkpt>
      <trkpt lat="49.01944" lon="2.04824">
        <ele>64</ele>
        <time>2017-11-26T11:03:15.000Z</time>
      </trkpt>
      <trkpt lat="49.01954" lon="2.04817">
        <ele>63</ele>
        <time>2017-11-26T11:03:24.000Z</time>
      </trkpt>
      <trkpt lat="49.01958" lon="2.04804">
        <ele>67</ele>
        <time>2017-11-26T11:03:32.000Z</time>
      </trkpt>
      <trkpt lat="49.01966" lon="2.04797">
        <ele>65</ele>
        <time>2017-11-26T11:03:40.000Z</time>
      </trkpt>
      <trkpt lat="49.01973" lon="2.04788">
        <ele>67</ele>
        <time>2017-11-26T11:03:50.000Z</time>
      </trkpt>
      <trkpt lat="49.0198" lon="2.04777">
        <ele>66</ele>
        <time>2017-11-26T11:04:00.000Z</time>
      </trkpt>
      <trkpt lat="49.01989" lon="2.04772">
        <ele>67</ele>
        <time>2017-11-26T11:04:09.000Z</time>
      </trkpt>
      <trkpt lat="49.01995" lon="2.04762">
        <ele>66</ele>
        <time>2017-11-26T11:04:17.000Z</time>
      </trkpt>
      <trkpt lat="49.02004" lon="2.04751">
        <ele>65</ele>
        <time>2017-11-26T11:04:30.000Z</time>
      </trkpt>
      <trkpt lat="49.02014" lon="2.0474">
        <ele>59</ele>
        <time>2017-11-26T11:04:40.000Z</time>
      </trkpt>
      <trkpt lat="49.02021" lon="2.04729">
        <ele>62</ele>
        <time>2017-11-26T11:04:49.000Z</time>
      </trkpt>
      <trkpt lat="49.02026" lon="2.04716">
        <ele>66</ele>
        <time>2017-11-26T11:05:00.000Z</time>
      </trkpt>
      <trkpt lat="49.02035" lon="2.04713">
        <ele>68</ele>
        <time>2017-11-26T11:05:07.000Z</time>
      </trkpt>
      <trkpt lat="49.02042" lon="2.04704">
        <ele>65</ele>
        <time>2017-11-26T11:05:16.000Z</time>
      </trkpt>
      <trkpt lat="49.02049" lon="2.04695">
        <ele>65</ele>
        <time>2017-11-26T11:05:24.000Z</time>
      </trkpt>
      <trkpt lat="49.02058" lon="2.04694">
        <ele>68</ele>
        <time>2017-11-26T11:05:33.000Z</time>
      </trkpt>
      <trkpt lat="49.02065" lon="2.04683">
        <ele>71</ele>
        <time>2017-11-26T11:05:44.000Z</time>
      </trkpt>
      <trkpt lat="49.02073" lon="2.04671">
        <ele>68</ele>
        <time>2017-11-26T11:05:54.000Z</time>
      </trkpt>
      <trkpt lat="49.02081" lon="2.04659">
        <ele>65</ele>
        <time>2017-11-26T11:06:04.000Z</time>
      </trkpt>
      <trkpt lat="49.02087" lon="2.04643">
        <ele>67</ele>
        <time>2017-11-26T11:06:14.000Z</time>
      </trkpt>
      <trkpt lat="49.02095" lon="2.04634">
        <ele>66</ele>
        <time>2017-11-26T11:06:22.000Z</time>
      </trkpt>
      <trkpt lat="49.02102" lon="2.04625">
        <ele>66</ele>
        <time>2017-11-26T11:06:29.000Z</time>
      </trkpt>
      <trkpt lat="49.02109" lon="2.04616">
        <ele>65</ele>
        <time>2017-11-26T11:06:38.000Z</time>
      </trkpt>
      <trkpt lat="49.02117" lon="2.04609">
        <ele>67</ele>
        <time>2017-11-26T11:06:46.000Z</time>
      </trkpt>
      <trkpt lat="49.02125" lon="2.04594">
        <ele>67</ele>
        <time>2017-11-26T11:06:55.000Z</time>
      </trkpt>
      <trkpt lat="49.02134" lon="2.04584">
        <ele>63</ele>
        <time>2017-11-26T11:07:04.000Z</time>
      </trkpt>
      <trkpt lat="49.02142" lon="2.04571">
        <ele>59</ele>
        <time>2017-11-26T11:07:14.000Z</time>
      </trkpt>
      <trkpt lat="49.0215" lon="2.04562">
        <ele>61</ele>
        <time>2017-11-26T11:07:25.000Z</time>
      </trkpt>
      <trkpt lat="49.02155" lon="2.0455">
        <ele>62</ele>
        <time>2017-11-26T11:07:32.000Z</time>
      </trkpt>
      <trkpt lat="49.02162" lon="2.04539">
        <ele>64</ele>
        <time>2017-11-26T11:07:41.000Z</time>
      </trkpt>
      <trkpt lat="49.02168" lon="2.04528">
        <ele>64</ele>
        <time>2017-11-26T11:07:51.000Z</time>
      </trkpt>
      <trkpt lat="49.02173" lon="2.04516">
        <ele>63</ele>
        <time>2017-11-26T11:08:00.000Z</time>
      </trkpt>
      <trkpt lat="49.02181" lon="2.04505">
        <ele>64</ele>
        <time>2017-11-26T11:08:09.000Z</time>
      </trkpt>
      <trkpt lat="49.02187" lon="2.04493">
        <ele>63</ele>
        <time>2017-11-26T11:08:18.000Z</time>
      </trkpt>
      <trkpt lat="49.02194" lon="2.04484">
        <ele>64</ele>
        <time>2017-11-26T11:08:28.000Z</time>
      </trkpt>
      <trkpt lat="49.02201" lon="2.04474">
        <ele>64</ele>
        <time>2017-11-26T11:08:37.000Z</time>
      </trkpt>
      <trkpt lat="49.02211" lon="2.0446">
        <ele>65</ele>
        <time>2017-11-26T11:08:49.000Z</time>
      </trkpt>
      <trkpt lat="49.02218" lon="2.04451">
        <ele>66</ele>
        <time>2017-11-26T11:08:58.000Z</time>
      </trkpt>
      <trkpt lat="49.02224" lon="2.04441">
        <ele>63</ele>
        <time>2017-11-26T11:09:06.000Z</time>
      </trkpt>
      <trkpt lat="49.02231" lon="2.04432">
        <ele>63</ele>
        <time>2017-11-26T11:09:15.000Z</time>
      </trkpt>
      <trkpt lat="49.0224" lon="2.04424">
        <ele>64</ele>
        <time>2017-11-26T11:09:23.000Z</time>
      </trkpt>
      <trkpt lat="49.02245" lon="2.04413">
        <ele>63</ele>
        <time>2017-11-26T11:09:30.000Z</time>
      </trkpt>
      <trkpt lat="49.0225" lon="2.04401">
        <ele>63</ele>
        <time>2017-11-26T11:09:37.000Z</time>
      </trkpt>
      <trkpt lat="49.02254" lon="2.04387">
        <ele>65</ele>
        <time>2017-11-26T11:09:47.000Z</time>
      </trkpt>
      <trkpt lat="49.02262" lon="2.0438">
        <ele>65</ele>
        <time>2017-11-26T11:09:55.000Z</time>
      </trkpt>
      <trkpt lat="49.02271" lon="2.04369">
        <ele>64</ele>
        <time>2017-11-26T11:10:03.000Z</time>
      </trkpt>
      <trkpt lat="49.02279" lon="2.0436">
        <ele>65</ele>
        <time>2017-11-26T11:10:12.000Z</time>
      </trkpt>
      <trkpt lat="49.02285" lon="2.0435">
        <ele>68</ele>
        <time>2017-11-26T11:10:22.000Z</time>
      </trkpt>
      <trkpt lat="49.02295" lon="2.04346">
        <ele>67</ele>
        <time>2017-11-26T11:10:30.000Z</time>
      </trkpt>
      <trkpt lat="49.02299" lon="2.04334">
        <ele>68</ele>
        <time>2017-11-26T11:10:38.000Z</time>
      </trkpt>
      <trkpt lat="49.02308" lon="2.04329">
        <ele>64</ele>
        <time>2017-11-26T11:10:45.000Z</time>
      </trkpt>
      <trkpt lat="49.02317" lon="2.04323">
        <ele>68</ele>
        <time>2017-11-26T11:10:55.000Z</time>
      </trkpt>
      <trkpt lat="49.02326" lon="2.04318">
        <ele>63</ele>
        <time>2017-11-26T11:11:01.000Z</time>
      </trkpt>
      <trkpt lat="49.02333" lon="2.04308">
        <ele>66</ele>
        <time>2017-11-26T11:11:11.000Z</time>
      </trkpt>
      <trkpt lat="49.02341" lon="2.04299">
        <ele>69</ele>
        <time>2017-11-26T11:11:24.000Z</time>
      </trkpt>
      <trkpt lat="49.02352" lon="2.04293">
        <ele>68</ele>
        <time>2017-11-26T11:11:34.000Z</time>
      </trkpt>
      <trkpt lat="49.02361" lon="2.04287">
        <ele>70</ele>
        <time>2017-11-26T11:11:42.000Z</time>
      </trkpt>
      <trkpt lat="49.02369" lon="2.04273">
        <ele>66</ele>
        <time>2017-11-26T11:11:51.000Z</time>
      </trkpt>
      <trkpt lat="49.02378" lon="2.04269">
        <ele>66</ele>
        <time>2017-11-26T11:11:58.000Z</time>
      </trkpt>
      <trkpt lat="49.02387" lon="2.04261">
        <ele>64</ele>
        <time>2017-11-26T11:12:06.000Z</time>
      </trkpt>
      <trkpt lat="49.02395" lon="2.04254">
        <ele>66</ele>
        <time>2017-11-26T11:12:15.000Z</time>
      </trkpt>
      <trkpt lat="49.02405" lon="2.04247">
        <ele>68</ele>
        <time>2017-11-26T11:12:28.000Z</time>
      </trkpt>
      <trkpt lat="49.02415" lon="2.04244">
        <ele>67</ele>
        <time>2017-11-26T11:12:36.000Z</time>
      </trkpt>
      <trkpt lat="49.02425" lon="2.04244">
        <ele>64</ele>
        <time>2017-11-26T11:12:46.000Z</time>
      </trkpt>
      <trkpt lat="49.02437" lon="2.04242">
        <ele>65</ele>
        <time>2017-11-26T11:12:56.000Z</time>
      </trkpt>
      <trkpt lat="49.02442" lon="2.04231">
        <ele>65</ele>
        <time>2017-11-26T11:13:01.000Z</time>
      </trkpt>
      <trkpt lat="49.02452" lon="2.04226">
        <ele>63</ele>
        <time>2017-11-26T11:13:13.000Z</time>
      </trkpt>
      <trkpt lat="49.02461" lon="2.04228">
        <ele>57</ele>
        <time>2017-11-26T11:13:19.000Z</time>
      </trkpt>
      <trkpt lat="49.02469" lon="2.04218">
        <ele>61</ele>
        <time>2017-11-26T11:13:26.000Z</time>
      </trkpt>
      <trkpt lat="49.02477" lon="2.04212">
        <ele>66</ele>
        <time>2017-11-26T11:13:34.000Z</time>
      </trkpt>
      <trkpt lat="49.02486" lon="2.04209">
        <ele>62</ele>
        <time>2017-11-26T11:13:42.000Z</time>
      </trkpt>
      <trkpt lat="49.02495" lon="2.04198">
        <ele>66</ele>
        <time>2017-11-26T11:13:51.000Z</time>
      </trkpt>
      <trkpt lat="49.02504" lon="2.04189">
        <ele>64</ele>
        <time>2017-11-26T11:13:59.000Z</time>
      </trkpt>
      <trkpt lat="49.02515" lon="2.04184">
        <ele>64</ele>
        <time>2017-11-26T11:14:07.000Z</time>
      </trkpt>
      <trkpt lat="49.02523" lon="2.04174">
        <ele>63</ele>
        <time>2017-11-26T11:14:16.000Z</time>
      </trkpt>
      <trkpt lat="49.0253" lon="2.04162">
        <ele>65</ele>
        <time>2017-11-26T11:14:25.000Z</time>
      </trkpt>
      <trkpt lat="49.0254" lon="2.04155">
        <ele>62</ele>
        <time>2017-11-26T11:14:35.000Z</time>
      </trkpt>
      <trkpt lat="49.02548" lon="2.04147">
        <ele>61</ele>
        <time>2017-11-26T11:14:44.000Z</time>
      </trkpt>
      <trkpt lat="49.02556" lon="2.0414">
        <ele>64</ele>
        <time>2017-11-26T11:14:52.000Z</time>
      </trkpt>
      <trkpt lat="49.02565" lon="2.04136">
        <ele>64</ele>
        <time>2017-11-26T11:15:00.000Z</time>
      </trkpt>
      <trkpt lat="49.02573" lon="2.04128">
        <ele>67</ele>
        <time>2017-11-26T11:15:10.000Z</time>
      </trkpt>
      <trkpt lat="49.02584" lon="2.04122">
        <ele>64</ele>
        <time>2017-11-26T11:15:19.000Z</time>
      </trkpt>
      <trkpt lat="49.02592" lon="2.04113">
        <ele>63</ele>
        <time>2017-11-26T11:15:30.000Z</time>
      </trkpt>
      <trkpt lat="49.02599" lon="2.04105">
        <ele>61</ele>
        <time>2017-11-26T11:15:39.000Z</time>
      </trkpt>
      <trkpt lat="49.02605" lon="2.04093">
        <ele>62</ele>
        <time>2017-11-26T11:15:48.000Z</time>
      </trkpt>
      <trkpt lat="49.02614" lon="2.04087">
        <ele>67</ele>
        <time>2017-11-26T11:16:01.000Z</time>
      </trkpt>
      <trkpt lat="49.02621" lon="2.04076">
        <ele>65</ele>
        <time>2017-11-26T11:16:11.000Z</time>
      </trkpt>
      <trkpt lat="49.0263" lon="2.04072">
        <ele>66</ele>
        <time>2017-11-26T11:16:20.000Z</time>
      </trkpt>
      <trkpt lat="49.02641" lon="2.04067">
        <ele>70</ele>
        <time>2017-11-26T11:16:31.000Z</time>
      </trkpt>
      <trkpt lat="49.02647" lon="2.04054">
        <ele>70</ele>
        <time>2017-11-26T11:16:42.000Z</time>
      </trkpt>
      <trkpt lat="49.02656" lon="2.04048">
        <ele>69</ele>
        <time>2017-11-26T11:16:50.000Z</time>
      </trkpt>
      <trkpt lat="49.02664" lon="2.04039">
        <ele>69</ele>
        <time>2017-11-26T11:17:00.000Z</time>
      </trkpt>
      <trkpt lat="49.02672" lon="2.04032">
        <ele>67</ele>
        <time>2017-11-26T11:17:08.000Z</time>
      </trkpt>
      <trkpt lat="49.02682" lon="2.04028">
        <ele>67</ele>
        <time>2017-11-26T11:17:16.000Z</time>
      </trkpt>
      <trkpt lat="49.02688" lon="2.04016">
        <ele>68</ele>
        <time>2017-11-26T11:17:26.000Z</time>
      </trkpt>
      <trkpt lat="49.02696" lon="2.0401">
        <ele>66</ele>
        <time>2017-11-26T11:17:35.000Z</time>
      </trkpt>
      <trkpt lat="49.02704" lon="2.04003">
        <ele>69</ele>
        <time>2017-11-26T11:17:44.000Z</time>
      </trkpt>
      <trkpt lat="49.02711" lon="2.03994">
        <ele>65</ele>
        <time>2017-11-26T11:17:52.000Z</time>
      </trkpt>
      <trkpt lat="49.0272" lon="2.03985">
        <ele>63</ele>
        <time>2017-11-26T11:18:00.000Z</time>
      </trkpt>
      <trkpt lat="49.02728" lon="2.03978">
        <ele>63</ele>
        <time>2017-11-26T11:18:09.000Z</time>
      </trkpt>
      <trkpt lat="49.02736" lon="2.0397">
        <ele>60</ele>
        <time>2017-11-26T11:18:17.000Z</time>
      </trkpt>
      <trkpt lat="49.02743" lon="2.03959">
        <ele>59</ele>
        <time>2017-11-26T11:18:25.000Z</time>
      </trkpt>
      <trkpt lat="49.02751" lon="2.03948">
        <ele>60</ele>
        <time>2017-11-26T11:18:34.000Z</time>
      </trkpt>
      <trkpt lat="49.0276" lon="2.03942">
        <ele>65</ele>
        <time>2017-11-26T11:18:45.000Z</time>
      </trkpt>
      <trkpt lat="49.02769" lon="2.0393">
        <ele>61</ele>
        <time>2017-11-26T11:18:55.000Z</time>
      </trkpt>
      <trkpt lat="49.02778" lon="2.03923">
        <ele>65</ele>
        <time>2017-11-26T11:19:04.000Z</time>
      </trkpt>
      <trkpt lat="49.02786" lon="2.03916">
        <ele>68</ele>
        <time>2017-11-26T11:19:12.000Z</time>
      </trkpt>
      <trkpt lat="49.02794" lon="2.03907">
        <ele>68</ele>
        <time>2017-11-26T11:19:20.000Z</time>
      </trkpt>
      <trkpt lat="49.02803" lon="2.039">
        <ele>66</ele>
        <time>2017-11-26T11:19:29.000Z</time>
      </trkpt>
      <trkpt lat="49.02811" lon="2.03891">
        <ele>67</ele>
        <time>2017-11-26T11:19:37.000Z</time>
      </trkpt>
      <trkpt lat="49.02821" lon="2.0388">
        <ele>69</ele>
        <time>2017-11-26T11:19:47.000Z</time>
      </trkpt>
      <trkpt lat="49.02828" lon="2.0387">
        <ele>65</ele>
        <time>2017-11-26T11:19:57.000Z</time>
      </trkpt>
      <trkpt lat="49.02835" lon="2.03859">
        <ele>65</ele>
        <time>2017-11-26T11:20:07.000Z</time>
      </trkpt>
      <trkpt lat="49.02844" lon="2.03848">
        <ele>66</ele>
        <time>2017-11-26T11:20:16.000Z</time>
      </trkpt>
      <trkpt lat="49.02854" lon="2.0384">
        <ele>64</ele>
        <time>2017-11-26T11:20:26.000Z</time>
      </trkpt>
      <trkpt lat="49.02861" lon="2.0383">
        <ele>62</ele>
        <time>2017-11-26T11:20:37.000Z</time>
      </trkpt>
      <trkpt lat="49.02868" lon="2.03821">
        <ele>64</ele>
        <time>2017-11-26T11:20:47.000Z</time>
      </trkpt>
      <trkpt lat="49.02877" lon="2.03811">
        <ele>64</ele>
        <time>2017-11-26T11:20:57.000Z</time>
      </trkpt>
      <trkpt lat="49.02886" lon="2.03809">
        <ele>64</ele>
        <time>2017-11-26T11:21:06.000Z</time>
      </trkpt>
      <trkpt lat="49.02895" lon="2.038">
        <ele>66</ele>
        <time>2017-11-26T11:21:16.000Z</time>
      </trkpt>
      <trkpt lat="49.02904" lon="2.03793">
        <ele>64</ele>
        <time>2017-11-26T11:21:23.000Z</time>
      </trkpt>
      <trkpt lat="49.02916" lon="2.0379">
        <ele>65</ele>
        <time>2017-11-26T11:21:34.000Z</time>
      </trkpt>
      <trkpt lat="49.02927" lon="2.03784">
        <ele>62</ele>
        <time>2017-11-26T11:21:43.000Z</time>
      </trkpt>
      <trkpt lat="49.02935" lon="2.03776">
        <ele>66</ele>
        <time>2017-11-26T11:21:53.000Z</time>
      </trkpt>
      <trkpt lat="49.02943" lon="2.03769">
        <ele>66</ele>
        <time>2017-11-26T11:22:02.000Z</time>
      </trkpt>
      <trkpt lat="49.02949" lon="2.03758">
        <ele>67</ele>
        <time>2017-11-26T11:22:14.000Z</time>
      </trkpt>
      <trkpt lat="49.02958" lon="2.03748">
        <ele>65</ele>
        <time>2017-11-26T11:22:24.000Z</time>
      </trkpt>
      <trkpt lat="49.02966" lon="2.03734">
        <ele>66</ele>
        <time>2017-11-26T11:22:32.000Z</time>
      </trkpt>
      <trkpt lat="49.02971" lon="2.03717">
        <ele>64</ele>
        <time>2017-11-26T11:22:42.000Z</time>
      </trkpt>
      <trkpt lat="49.02971" lon="2.03702">
        <ele>67</ele>
        <time>2017-11-26T11:22:50.000Z</time>
      </trkpt>
      <trkpt lat="49.02974" lon="2.03686">
        <ele>60</ele>
        <time>2017-11-26T11:22:58.000Z</time>
      </trkpt>
      <trkpt lat="49.02971" lon="2.03673">
        <ele>62</ele>
        <time>2017-11-26T11:23:05.000Z</time>
      </trkpt>
      <trkpt lat="49.0297" lon="2.03658">
        <ele>61</ele>
        <time>2017-11-26T11:23:12.000Z</time>
      </trkpt>
      <trkpt lat="49.0297" lon="2.03644">
        <ele>62</ele>
        <time>2017-11-26T11:23:20.000Z</time>
      </trkpt>
      <trkpt lat="49.0297" lon="2.03629">
        <ele>60</ele>
        <time>2017-11-26T11:23:28.000Z</time>
      </trkpt>
      <trkpt lat="49.02978" lon="2.03619">
        <ele>63</ele>
        <time>2017-11-26T11:23:37.000Z</time>
      </trkpt>
      <trkpt lat="49.02985" lon="2.0361">
        <ele>63</ele>
        <time>2017-11-26T11:23:47.000Z</time>
      </trkpt>
      <trkpt lat="49.02995" lon="2.03602">
        <ele>66</ele>
        <time>2017-11-26T11:23:56.000Z</time>
      </trkpt>
      <trkpt lat="49.03006" lon="2.03599">
        <ele>63</ele>
        <time>2017-11-26T11:24:03.000Z</time>
      </trkpt>
      <trkpt lat="49.03017" lon="2.03596">
        <ele>64</ele>
        <time>2017-11-26T11:24:11.000Z</time>
      </trkpt>
      <trkpt lat="49.03026" lon="2.03591">
        <ele>65</ele>
        <time>2017-11-26T11:24:20.000Z</time>
      </trkpt>
      <trkpt lat="49.03038" lon="2.03588">
        <ele>67</ele>
        <time>2017-11-26T11:24:30.000Z</time>
      </trkpt>
      <trkpt lat="49.03047" lon="2.03581">
        <ele>67</ele>
        <time>2017-11-26T11:24:39.000Z</time>
      </trkpt>
      <trkpt lat="49.03057" lon="2.03578">
        <ele>64</ele>
        <time>2017-11-26T11:24:46.000Z</time>
      </trkpt>
      <trkpt lat="49.03067" lon="2.03579">
        <ele>62</ele>
        <time>2017-11-26T11:24:56.000Z</time>
      </trkpt>
      <trkpt lat="49.03077" lon="2.03576">
        <ele>60</ele>
        <time>2017-11-26T11:25:06.000Z</time>
      </trkpt>
      <trkpt lat="49.03086" lon="2.03574">
        <ele>58</ele>
        <time>2017-11-26T11:25:17.000Z</time>
      </trkpt>
      <trkpt lat="49.03095" lon="2.03574">
        <ele>55</ele>
        <time>2017-11-26T11:25:28.000Z</time>
      </trkpt>
      <trkpt lat="49.03105" lon="2.0357">
        <ele>62</ele>
        <time>2017-11-26T11:26:36.000Z</time>
      </trkpt>
      <trkpt lat="49.03114" lon="2.03574">
        <ele>66</ele>
        <time>2017-11-26T11:31:48.000Z</time>
      </trkpt>
      <trkpt lat="49.03105" lon="2.03573">
        <ele>64</ele>
        <time>2017-11-26T11:32:44.000Z</time>
      </trkpt>
      <trkpt lat="49.03104" lon="2.03559">
        <ele>63</ele>
        <time>2017-11-26T11:34:34.000Z</time>
      </trkpt>
      <trkpt lat="49.03104" lon="2.03546">
        <ele>63</ele>
        <time>2017-11-26T11:34:42.000Z</time>
      </trkpt>
      <trkpt lat="49.0311" lon="2.03559">
        <ele>65</ele>
        <time>2017-11-26T11:34:56.000Z</time>
      </trkpt>
      <trkpt lat="49.03107" lon="2.03572">
        <ele>69</ele>
        <time>2017-11-26T11:35:30.000Z</time>
      </trkpt>
      <trkpt lat="49.03103" lon="2.03559">
        <ele>69</ele>
        <time>2017-11-26T11:36:12.000Z</time>
      </trkpt>
      <trkpt lat="49.03107" lon="2.03545">
        <ele>69</ele>
        <time>2017-11-26T11:36:34.000Z</time>
      </trkpt>
      <trkpt lat="49.03097" lon="2.03545">
        <ele>64</ele>
        <time>2017-11-26T11:37:07.000Z</time>
      </trkpt>
      <trkpt lat="49.03106" lon="2.03537">
        <ele>66</ele>
        <time>2017-11-26T11:41:09.000Z</time>
      </trkpt>
      <trkpt lat="49.03098" lon="2.03546">
        <ele>64</ele>
        <time>2017-11-26T11:42:54.000Z</time>
      </trkpt>
      <trkpt lat="49.03107" lon="2.03548">
        <ele>69</ele>
        <time>2017-11-26T11:51:09.000Z</time>
      </trkpt>
      <trkpt lat="49.03106" lon="2.03563">
        <ele>68</ele>
        <time>2017-11-26T11:54:11.000Z</time>
      </trkpt>
      <trkpt lat="49.03109" lon="2.03578">
        <ele>70</ele>
        <time>2017-11-26T11:54:18.000Z</time>
      </trkpt>
      <trkpt lat="49.03105" lon="2.03563">
        <ele>60</ele>
        <time>2017-11-26T11:54:29.000Z</time>
      </trkpt>
      <trkpt lat="49.03105" lon="2.03549">
        <ele>61</ele>
        <time>2017-11-26T11:54:47.000Z</time>
      </trkpt>
      <trkpt lat="49.03111" lon="2.03539">
        <ele>65</ele>
        <time>2017-11-26T11:57:01.000Z</time>
      </trkpt>
      <trkpt lat="49.03099" lon="2.03548">
        <ele>65</ele>
        <time>2017-11-26T11:57:19.000Z</time>
      </trkpt>
      <trkpt lat="49.03108" lon="2.03542">
        <ele>71</ele>
        <time>2017-11-26T11:59:27.000Z</time>
      </trkpt>
      <trkpt lat="49.03097" lon="2.03545">
        <ele>68</ele>
        <time>2017-11-26T12:06:51.000Z</time>
      </trkpt>
      <trkpt lat="49.03107" lon="2.03545">
        <ele>69</ele>
        <time>2017-11-26T12:10:44.000Z</time>
      </trkpt>
      <trkpt lat="49.03114" lon="2.03554">
        <ele>83</ele>
        <time>2017-11-26T12:14:02.000Z</time>
      </trkpt>
      <trkpt lat="49.03105" lon="2.03558">
        <ele>75</ele>
        <time>2017-11-26T12:19:54.000Z</time>
      </trkpt>
      <trkpt lat="49.03095" lon="2.03545">
        <ele>72</ele>
        <time>2017-11-26T12:33:12.000Z</time>
      </trkpt>
      <trkpt lat="49.03109" lon="2.0354">
        <ele>67</ele>
        <time>2017-11-26T12:37:47.000Z</time>
      </trkpt>
      <trkpt lat="49.03112" lon="2.03555">
        <ele>76</ele>
        <time>2017-11-26T12:42:11.000Z</time>
      </trkpt>
      <trkpt lat="49.03104" lon="2.03546">
        <ele>65</ele>
        <time>2017-11-26T12:42:39.000Z</time>
      </trkpt>
      <trkpt lat="49.03104" lon="2.03561">
        <ele>68</ele>
        <time>2017-11-26T12:53:20.000Z</time>
      </trkpt>
      <trkpt lat="49.03107" lon="2.03574">
        <ele>67</ele>
        <time>2017-11-26T12:53:29.000Z</time>
      </trkpt>
      <trkpt lat="49.03101" lon="2.03562">
        <ele>65</ele>
        <time>2017-11-26T12:53:47.549Z</time>
      </trkpt>
      <trkpt lat="49.03099" lon="2.03548">
        <ele>66</ele>
        <time>2017-11-26T12:54:15.000Z</time>
      </trkpt>
      <trkpt lat="49.03105" lon="2.03563">
        <ele>63</ele>
        <time>2017-11-26T12:54:29.000Z</time>
      </trkpt>
      <trkpt lat="49.03104" lon="2.03577">
        <ele>63</ele>
        <time>2017-11-26T12:54:47.000Z</time>
      </trkpt>
      <trkpt lat="49.03114" lon="2.03582">
        <ele>67</ele>
        <time>2017-11-26T13:02:10.000Z</time>
      </trkpt>
      <trkpt lat="49.03128" lon="2.03577">
        <ele>62</ele>
        <time>2017-11-26T13:02:19.000Z</time>
      </trkpt>
      <trkpt lat="49.03137" lon="2.03577">
        <ele>60</ele>
        <time>2017-11-26T13:02:25.000Z</time>
      </trkpt>
      <trkpt lat="49.03148" lon="2.03583">
        <ele>57</ele>
        <time>2017-11-26T13:02:34.000Z</time>
      </trkpt>
      <trkpt lat="49.03157" lon="2.03586">
        <ele>57</ele>
        <time>2017-11-26T13:02:38.000Z</time>
      </trkpt>
      <trkpt lat="49.03167" lon="2.03588">
        <ele>58</ele>
        <time>2017-11-26T13:02:44.000Z</time>
      </trkpt>
      <trkpt lat="49.03175" lon="2.03593">
        <ele>57</ele>
        <time>2017-11-26T13:02:50.000Z</time>
      </trkpt>
      <trkpt lat="49.03184" lon="2.03599">
        <ele>56</ele>
        <time>2017-11-26T13:02:57.000Z</time>
      </trkpt>
      <trkpt lat="49.03194" lon="2.03607">
        <ele>56</ele>
        <time>2017-11-26T13:03:04.000Z</time>
      </trkpt>
      <trkpt lat="49.03206" lon="2.03611">
        <ele>56</ele>
        <time>2017-11-26T13:03:12.000Z</time>
      </trkpt>
      <trkpt lat="49.03217" lon="2.03616">
        <ele>59</ele>
        <time>2017-11-26T13:03:20.000Z</time>
      </trkpt>
      <trkpt lat="49.03227" lon="2.03621">
        <ele>59</ele>
        <time>2017-11-26T13:03:29.000Z</time>
      </trkpt>
      <trkpt lat="49.03237" lon="2.03631">
        <ele>58</ele>
        <time>2017-11-26T13:03:37.000Z</time>
      </trkpt>
      <trkpt lat="49.03249" lon="2.03636">
        <ele>58</ele>
        <time>2017-11-26T13:03:44.000Z</time>
      </trkpt>
      <trkpt lat="49.03258" lon="2.03643">
        <ele>57</ele>
        <time>2017-11-26T13:03:48.000Z</time>
      </trkpt>
      <trkpt lat="49.03269" lon="2.03654">
        <ele>57</ele>
        <time>2017-11-26T13:03:55.000Z</time>
      </trkpt>
      <trkpt lat="49.03278" lon="2.03658">
        <ele>54</ele>
        <time>2017-11-26T13:04:02.000Z</time>
      </trkpt>
      <trkpt lat="49.03284" lon="2.03669">
        <ele>55</ele>
        <time>2017-11-26T13:04:09.000Z</time>
      </trkpt>
      <trkpt lat="49.03293" lon="2.03675">
        <ele>55</ele>
        <time>2017-11-26T13:04:15.000Z</time>
      </trkpt>
      <trkpt lat="49.033" lon="2.03687">
        <ele>53</ele>
        <time>2017-11-26T13:04:22.000Z</time>
      </trkpt>
      <trkpt lat="49.03309" lon="2.03695">
        <ele>55</ele>
        <time>2017-11-26T13:04:28.000Z</time>
      </trkpt>
      <trkpt lat="49.0332" lon="2.03701">
        <ele>56</ele>
        <time>2017-11-26T13:04:37.000Z</time>
      </trkpt>
      <trkpt lat="49.0333" lon="2.03705">
        <ele>58</ele>
        <time>2017-11-26T13:04:45.000Z</time>
      </trkpt>
      <trkpt lat="49.0334" lon="2.03713">
        <ele>56</ele>
        <time>2017-11-26T13:04:52.000Z</time>
      </trkpt>
      <trkpt lat="49.0335" lon="2.03718">
        <ele>55</ele>
        <time>2017-11-26T13:04:59.000Z</time>
      </trkpt>
      <trkpt lat="49.03361" lon="2.03721">
        <ele>52</ele>
        <time>2017-11-26T13:05:09.000Z</time>
      </trkpt>
      <trkpt lat="49.03368" lon="2.03732">
        <ele>53</ele>
        <time>2017-11-26T13:05:19.000Z</time>
      </trkpt>
      <trkpt lat="49.03377" lon="2.03742">
        <ele>51</ele>
        <time>2017-11-26T13:05:27.000Z</time>
      </trkpt>
      <trkpt lat="49.03383" lon="2.03756">
        <ele>56</ele>
        <time>2017-11-26T13:05:32.000Z</time>
      </trkpt>
      <trkpt lat="49.03389" lon="2.03772">
        <ele>60</ele>
        <time>2017-11-26T13:05:40.000Z</time>
      </trkpt>
      <trkpt lat="49.03399" lon="2.03776">
        <ele>63</ele>
        <time>2017-11-26T13:05:47.000Z</time>
      </trkpt>
      <trkpt lat="49.03409" lon="2.03786">
        <ele>62</ele>
        <time>2017-11-26T13:05:55.000Z</time>
      </trkpt>
      <trkpt lat="49.0342" lon="2.03793">
        <ele>58</ele>
        <time>2017-11-26T13:06:04.000Z</time>
      </trkpt>
      <trkpt lat="49.03428" lon="2.038">
        <ele>59</ele>
        <time>2017-11-26T13:06:10.000Z</time>
      </trkpt>
      <trkpt lat="49.03436" lon="2.03808">
        <ele>59</ele>
        <time>2017-11-26T13:06:18.000Z</time>
      </trkpt>
      <trkpt lat="49.03443" lon="2.03818">
        <ele>59</ele>
        <time>2017-11-26T13:06:27.000Z</time>
      </trkpt>
      <trkpt lat="49.03452" lon="2.0383">
        <ele>58</ele>
        <time>2017-11-26T13:06:37.000Z</time>
      </trkpt>
      <trkpt lat="49.03462" lon="2.03835">
        <ele>56</ele>
        <time>2017-11-26T13:06:44.000Z</time>
      </trkpt>
      <trkpt lat="49.03473" lon="2.03842">
        <ele>57</ele>
        <time>2017-11-26T13:06:55.000Z</time>
      </trkpt>
      <trkpt lat="49.03481" lon="2.0385">
        <ele>58</ele>
        <time>2017-11-26T13:07:01.000Z</time>
      </trkpt>
      <trkpt lat="49.03486" lon="2.03862">
        <ele>60</ele>
        <time>2017-11-26T13:07:08.000Z</time>
      </trkpt>
      <trkpt lat="49.03493" lon="2.03873">
        <ele>61</ele>
        <time>2017-11-26T13:07:16.000Z</time>
      </trkpt>
      <trkpt lat="49.03502" lon="2.03878">
        <ele>56</ele>
        <time>2017-11-26T13:07:23.000Z</time>
      </trkpt>
      <trkpt lat="49.0351" lon="2.03889">
        <ele>57</ele>
        <time>2017-11-26T13:07:31.000Z</time>
      </trkpt>
      <trkpt lat="49.03519" lon="2.03893">
        <ele>59</ele>
        <time>2017-11-26T13:07:39.000Z</time>
      </trkpt>
      <trkpt lat="49.03529" lon="2.03903">
        <ele>57</ele>
        <time>2017-11-26T13:07:45.000Z</time>
      </trkpt>
      <trkpt lat="49.03538" lon="2.03914">
        <ele>57</ele>
        <time>2017-11-26T13:07:54.000Z</time>
      </trkpt>
      <trkpt lat="49.03546" lon="2.03927">
        <ele>59</ele>
        <time>2017-11-26T13:08:07.000Z</time>
      </trkpt>
      <trkpt lat="49.03556" lon="2.03934">
        <ele>58</ele>
        <time>2017-11-26T13:08:18.000Z</time>
      </trkpt>
      <trkpt lat="49.03563" lon="2.03944">
        <ele>58</ele>
        <time>2017-11-26T13:08:24.000Z</time>
      </trkpt>
      <trkpt lat="49.03572" lon="2.03951">
        <ele>58</ele>
        <time>2017-11-26T13:08:31.570Z</time>
      </trkpt>
      <trkpt lat="49.0358" lon="2.03958">
        <ele>56</ele>
        <time>2017-11-26T13:08:43.000Z</time>
      </trkpt>
      <trkpt lat="49.03588" lon="2.03965">
        <ele>56</ele>
        <time>2017-11-26T13:08:53.000Z</time>
      </trkpt>
      <trkpt lat="49.03602" lon="2.03971">
        <ele>58</ele>
        <time>2017-11-26T13:09:02.000Z</time>
      </trkpt>
      <trkpt lat="49.03609" lon="2.03981">
        <ele>59</ele>
        <time>2017-11-26T13:09:12.000Z</time>
      </trkpt>
      <trkpt lat="49.03617" lon="2.03988">
        <ele>59</ele>
        <time>2017-11-26T13:09:17.000Z</time>
      </trkpt>
      <trkpt lat="49.03627" lon="2.03997">
        <ele>59</ele>
        <time>2017-11-26T13:09:24.000Z</time>
      </trkpt>
      <trkpt lat="49.03636" lon="2.04004">
        <ele>59</ele>
        <time>2017-11-26T13:09:33.000Z</time>
      </trkpt>
      <trkpt lat="49.03644" lon="2.04011">
        <ele>56</ele>
        <time>2017-11-26T13:09:43.000Z</time>
      </trkpt>
      <trkpt lat="49.03653" lon="2.04018">
        <ele>54</ele>
        <time>2017-11-26T13:09:53.000Z</time>
      </trkpt>
      <trkpt lat="49.03661" lon="2.04025">
        <ele>52</ele>
        <time>2017-11-26T13:10:02.000Z</time>
      </trkpt>
      <trkpt lat="49.0367" lon="2.04033">
        <ele>54</ele>
        <time>2017-11-26T13:10:13.000Z</time>
      </trkpt>
      <trkpt lat="49.03677" lon="2.04043">
        <ele>55</ele>
        <time>2017-11-26T13:10:21.000Z</time>
      </trkpt>
      <trkpt lat="49.03686" lon="2.04049">
        <ele>53</ele>
        <time>2017-11-26T13:10:27.000Z</time>
      </trkpt>
      <trkpt lat="49.03695" lon="2.04058">
        <ele>55</ele>
        <time>2017-11-26T13:10:35.000Z</time>
      </trkpt>
      <trkpt lat="49.03703" lon="2.04069">
        <ele>54</ele>
        <time>2017-11-26T13:10:43.000Z</time>
      </trkpt>
      <trkpt lat="49.03711" lon="2.04078">
        <ele>54</ele>
        <time>2017-11-26T13:10:51.000Z</time>
      </trkpt>
      <trkpt lat="49.03716" lon="2.04094">
        <ele>56</ele>
        <time>2017-11-26T13:11:01.000Z</time>
      </trkpt>
      <trkpt lat="49.03722" lon="2.04106">
        <ele>59</ele>
        <time>2017-11-26T13:11:10.000Z</time>
      </trkpt>
      <trkpt lat="49.0373" lon="2.04114">
        <ele>57</ele>
        <time>2017-11-26T13:11:16.000Z</time>
      </trkpt>
      <trkpt lat="49.0374" lon="2.0412">
        <ele>58</ele>
        <time>2017-11-26T13:11:26.000Z</time>
      </trkpt>
      <trkpt lat="49.03746" lon="2.04132">
        <ele>59</ele>
        <time>2017-11-26T13:11:36.000Z</time>
      </trkpt>
      <trkpt lat="49.03755" lon="2.04141">
        <ele>60</ele>
        <time>2017-11-26T13:11:45.000Z</time>
      </trkpt>
      <trkpt lat="49.03762" lon="2.04151">
        <ele>65</ele>
        <time>2017-11-26T13:11:55.000Z</time>
      </trkpt>
      <trkpt lat="49.03767" lon="2.04163">
        <ele>65</ele>
        <time>2017-11-26T13:12:02.000Z</time>
      </trkpt>
      <trkpt lat="49.03776" lon="2.04176">
        <ele>65</ele>
        <time>2017-11-26T13:12:13.000Z</time>
      </trkpt>
      <trkpt lat="49.03781" lon="2.04187">
        <ele>60</ele>
        <time>2017-11-26T13:12:21.000Z</time>
      </trkpt>
      <trkpt lat="49.0379" lon="2.04198">
        <ele>59</ele>
        <time>2017-11-26T13:12:30.203Z</time>
      </trkpt>
      <trkpt lat="49.03798" lon="2.04211">
        <ele>58</ele>
        <time>2017-11-26T13:12:43.000Z</time>
      </trkpt>
      <trkpt lat="49.03803" lon="2.04222">
        <ele>59</ele>
        <time>2017-11-26T13:12:53.000Z</time>
      </trkpt>
      <trkpt lat="49.03808" lon="2.04236">
        <ele>60</ele>
        <time>2017-11-26T13:13:05.000Z</time>
      </trkpt>
      <trkpt lat="49.03818" lon="2.04242">
        <ele>59</ele>
        <time>2017-11-26T13:13:13.000Z</time>
      </trkpt>
      <trkpt lat="49.03825" lon="2.04252">
        <ele>60</ele>
        <time>2017-11-26T13:13:21.000Z</time>
      </trkpt>
      <trkpt lat="49.03828" lon="2.04265">
        <ele>64</ele>
        <time>2017-11-26T13:13:28.000Z</time>
      </trkpt>
      <trkpt lat="49.03835" lon="2.04274">
        <ele>63</ele>
        <time>2017-11-26T13:13:35.000Z</time>
      </trkpt>
      <trkpt lat="49.03843" lon="2.04284">
        <ele>62</ele>
        <time>2017-11-26T13:13:47.000Z</time>
      </trkpt>
      <trkpt lat="49.03841" lon="2.04298">
        <ele>64</ele>
        <time>2017-11-26T13:13:57.000Z</time>
      </trkpt>
      <trkpt lat="49.03851" lon="2.04306">
        <ele>61</ele>
        <time>2017-11-26T13:14:16.000Z</time>
      </trkpt>
      <trkpt lat="49.03857" lon="2.04316">
        <ele>63</ele>
        <time>2017-11-26T13:14:32.000Z</time>
      </trkpt>
      <trkpt lat="49.03864" lon="2.04327">
        <ele>61</ele>
        <time>2017-11-26T13:14:39.000Z</time>
      </trkpt>
      <trkpt lat="49.03866" lon="2.04341">
        <ele>67</ele>
        <time>2017-11-26T13:14:48.000Z</time>
      </trkpt>
      <trkpt lat="49.03873" lon="2.04353">
        <ele>66</ele>
        <time>2017-11-26T13:14:58.000Z</time>
      </trkpt>
      <trkpt lat="49.03882" lon="2.04361">
        <ele>61</ele>
        <time>2017-11-26T13:15:07.000Z</time>
      </trkpt>
      <trkpt lat="49.03891" lon="2.04369">
        <ele>58</ele>
        <time>2017-11-26T13:15:13.000Z</time>
      </trkpt>
      <trkpt lat="49.03898" lon="2.0438">
        <ele>57</ele>
        <time>2017-11-26T13:15:23.000Z</time>
      </trkpt>
      <trkpt lat="49.03905" lon="2.0439">
        <ele>57</ele>
        <time>2017-11-26T13:15:33.000Z</time>
      </trkpt>
      <trkpt lat="49.03914" lon="2.04399">
        <ele>59</ele>
        <time>2017-11-26T13:15:43.000Z</time>
      </trkpt>
      <trkpt lat="49.03922" lon="2.04416">
        <ele>62</ele>
        <time>2017-11-26T13:15:51.000Z</time>
      </trkpt>
      <trkpt lat="49.0393" lon="2.04425">
        <ele>61</ele>
        <time>2017-11-26T13:15:57.000Z</time>
      </trkpt>
      <trkpt lat="49.03934" lon="2.04437">
        <ele>60</ele>
        <time>2017-11-26T13:16:03.000Z</time>
      </trkpt>
      <trkpt lat="49.03943" lon="2.04446">
        <ele>59</ele>
        <time>2017-11-26T13:16:11.000Z</time>
      </trkpt>
      <trkpt lat="49.03954" lon="2.04455">
        <ele>56</ele>
        <time>2017-11-26T13:16:20.000Z</time>
      </trkpt>
      <trkpt lat="49.03962" lon="2.04462">
        <ele>57</ele>
        <time>2017-11-26T13:16:27.000Z</time>
      </trkpt>
      <trkpt lat="49.03969" lon="2.04474">
        <ele>63</ele>
        <time>2017-11-26T13:16:40.000Z</time>
      </trkpt>
      <trkpt lat="49.0398" lon="2.04481">
        <ele>63</ele>
        <time>2017-11-26T13:16:55.000Z</time>
      </trkpt>
      <trkpt lat="49.03985" lon="2.04495">
        <ele>65</ele>
        <time>2017-11-26T13:17:07.000Z</time>
      </trkpt>
      <trkpt lat="49.03991" lon="2.04505">
        <ele>66</ele>
        <time>2017-11-26T13:17:15.000Z</time>
      </trkpt>
      <trkpt lat="49.04001" lon="2.04515">
        <ele>65</ele>
        <time>2017-11-26T13:17:27.000Z</time>
      </trkpt>
      <trkpt lat="49.04007" lon="2.04525">
        <ele>63</ele>
        <time>2017-11-26T13:17:33.000Z</time>
      </trkpt>
      <trkpt lat="49.0401" lon="2.04539">
        <ele>69</ele>
        <time>2017-11-26T13:17:38.000Z</time>
      </trkpt>
      <trkpt lat="49.04013" lon="2.04553">
        <ele>74</ele>
        <time>2017-11-26T13:17:43.000Z</time>
      </trkpt>
      <trkpt lat="49.0402" lon="2.04564">
        <ele>74</ele>
        <time>2017-11-26T13:17:49.000Z</time>
      </trkpt>
      <trkpt lat="49.04028" lon="2.04575">
        <ele>75</ele>
        <time>2017-11-26T13:17:57.000Z</time>
      </trkpt>
      <trkpt lat="49.04038" lon="2.04587">
        <ele>76</ele>
        <time>2017-11-26T13:18:06.000Z</time>
      </trkpt>
      <trkpt lat="49.04044" lon="2.04597">
        <ele>76</ele>
        <time>2017-11-26T13:18:13.000Z</time>
      </trkpt>
      <trkpt lat="49.04053" lon="2.04604">
        <ele>73</ele>
        <time>2017-11-26T13:18:19.000Z</time>
      </trkpt>
      <trkpt lat="49.04059" lon="2.04615">
        <ele>73</ele>
        <time>2017-11-26T13:18:27.000Z</time>
      </trkpt>
      <trkpt lat="49.04068" lon="2.04623">
        <ele>69</ele>
        <time>2017-11-26T13:18:34.000Z</time>
      </trkpt>
      <trkpt lat="49.04075" lon="2.04637">
        <ele>65</ele>
        <time>2017-11-26T13:18:44.000Z</time>
      </trkpt>
      <trkpt lat="49.04078" lon="2.04649">
        <ele>67</ele>
        <time>2017-11-26T13:18:51.000Z</time>
      </trkpt>
      <trkpt lat="49.04082" lon="2.04665">
        <ele>66</ele>
        <time>2017-11-26T13:19:00.000Z</time>
      </trkpt>
      <trkpt lat="49.0409" lon="2.04678">
        <ele>66</ele>
        <time>2017-11-26T13:19:10.000Z</time>
      </trkpt>
      <trkpt lat="49.04096" lon="2.04689">
        <ele>67</ele>
        <time>2017-11-26T13:19:19.000Z</time>
      </trkpt>
      <trkpt lat="49.041" lon="2.04704">
        <ele>65</ele>
        <time>2017-11-26T13:19:26.000Z</time>
      </trkpt>
      <trkpt lat="49.04104" lon="2.04716">
        <ele>65</ele>
        <time>2017-11-26T13:19:33.000Z</time>
      </trkpt>
      <trkpt lat="49.04111" lon="2.04729">
        <ele>62</ele>
        <time>2017-11-26T13:19:40.000Z</time>
      </trkpt>
      <trkpt lat="49.04117" lon="2.0474">
        <ele>62</ele>
        <time>2017-11-26T13:19:45.000Z</time>
      </trkpt>
      <trkpt lat="49.04121" lon="2.04758">
        <ele>62</ele>
        <time>2017-11-26T13:19:55.000Z</time>
      </trkpt>
      <trkpt lat="49.04125" lon="2.04772">
        <ele>61</ele>
        <time>2017-11-26T13:20:03.000Z</time>
      </trkpt>
      <trkpt lat="49.04128" lon="2.04785">
        <ele>60</ele>
        <time>2017-11-26T13:20:08.000Z</time>
      </trkpt>
      <trkpt lat="49.04129" lon="2.048">
        <ele>60</ele>
        <time>2017-11-26T13:20:14.000Z</time>
      </trkpt>
      <trkpt lat="49.04131" lon="2.04816">
        <ele>62</ele>
        <time>2017-11-26T13:20:21.000Z</time>
      </trkpt>
      <trkpt lat="49.04133" lon="2.0483">
        <ele>64</ele>
        <time>2017-11-26T13:20:28.000Z</time>
      </trkpt>
      <trkpt lat="49.04139" lon="2.04845">
        <ele>64</ele>
        <time>2017-11-26T13:20:38.000Z</time>
      </trkpt>
      <trkpt lat="49.04142" lon="2.0486">
        <ele>63</ele>
        <time>2017-11-26T13:20:49.549Z</time>
      </trkpt>
      <trkpt lat="49.04146" lon="2.04873">
        <ele>65</ele>
        <time>2017-11-26T13:20:58.000Z</time>
      </trkpt>
      <trkpt lat="49.04152" lon="2.04888">
        <ele>66</ele>
        <time>2017-11-26T13:21:09.000Z</time>
      </trkpt>
      <trkpt lat="49.04154" lon="2.04906">
        <ele>67</ele>
        <time>2017-11-26T13:21:19.000Z</time>
      </trkpt>
      <trkpt lat="49.04158" lon="2.04919">
        <ele>66</ele>
        <time>2017-11-26T13:21:27.000Z</time>
      </trkpt>
      <trkpt lat="49.04161" lon="2.04934">
        <ele>64</ele>
        <time>2017-11-26T13:21:36.000Z</time>
      </trkpt>
      <trkpt lat="49.04163" lon="2.0495">
        <ele>64</ele>
        <time>2017-11-26T13:21:44.000Z</time>
      </trkpt>
      <trkpt lat="49.04165" lon="2.04968">
        <ele>64</ele>
        <time>2017-11-26T13:21:54.000Z</time>
      </trkpt>
      <trkpt lat="49.04166" lon="2.04983">
        <ele>65</ele>
        <time>2017-11-26T13:22:03.000Z</time>
      </trkpt>
      <trkpt lat="49.04167" lon="2.04997">
        <ele>63</ele>
        <time>2017-11-26T13:22:13.000Z</time>
      </trkpt>
      <trkpt lat="49.04169" lon="2.05013">
        <ele>61</ele>
        <time>2017-11-26T13:22:22.000Z</time>
      </trkpt>
      <trkpt lat="49.0417" lon="2.05028">
        <ele>61</ele>
        <time>2017-11-26T13:22:29.000Z</time>
      </trkpt>
      <trkpt lat="49.04173" lon="2.05041">
        <ele>61</ele>
        <time>2017-11-26T13:22:36.000Z</time>
      </trkpt>
      <trkpt lat="49.04176" lon="2.05054">
        <ele>60</ele>
        <time>2017-11-26T13:22:43.000Z</time>
      </trkpt>
      <trkpt lat="49.04174" lon="2.05071">
        <ele>62</ele>
        <time>2017-11-26T13:22:50.000Z</time>
      </trkpt>
      <trkpt lat="49.04171" lon="2.0509">
        <ele>58</ele>
        <time>2017-11-26T13:23:01.000Z</time>
      </trkpt>
      <trkpt lat="49.04167" lon="2.05105">
        <ele>58</ele>
        <time>2017-11-26T13:23:10.000Z</time>
      </trkpt>
      <trkpt lat="49.04165" lon="2.05122">
        <ele>61</ele>
        <time>2017-11-26T13:23:18.000Z</time>
      </trkpt>
      <trkpt lat="49.04163" lon="2.05139">
        <ele>60</ele>
        <time>2017-11-26T13:23:28.000Z</time>
      </trkpt>
      <trkpt lat="49.04162" lon="2.05158">
        <ele>61</ele>
        <time>2017-11-26T13:23:38.000Z</time>
      </trkpt>
      <trkpt lat="49.0416" lon="2.05172">
        <ele>57</ele>
        <time>2017-11-26T13:23:48.000Z</time>
      </trkpt>
      <trkpt lat="49.0416" lon="2.05187">
        <ele>57</ele>
        <time>2017-11-26T13:23:57.000Z</time>
      </trkpt>
      <trkpt lat="49.04158" lon="2.05201">
        <ele>55</ele>
        <time>2017-11-26T13:24:06.000Z</time>
      </trkpt>
      <trkpt lat="49.04155" lon="2.05217">
        <ele>57</ele>
        <time>2017-11-26T13:24:14.000Z</time>
      </trkpt>
      <trkpt lat="49.04154" lon="2.05231">
        <ele>57</ele>
        <time>2017-11-26T13:24:22.000Z</time>
      </trkpt>
      <trkpt lat="49.0415" lon="2.05247">
        <ele>56</ele>
        <time>2017-11-26T13:24:32.000Z</time>
      </trkpt>
      <trkpt lat="49.04147" lon="2.05259">
        <ele>57</ele>
        <time>2017-11-26T13:24:38.000Z</time>
      </trkpt>
      <trkpt lat="49.04143" lon="2.05273">
        <ele>56</ele>
        <time>2017-11-26T13:24:48.000Z</time>
      </trkpt>
      <trkpt lat="49.04137" lon="2.05286">
        <ele>55</ele>
        <time>2017-11-26T13:24:58.000Z</time>
      </trkpt>
      <trkpt lat="49.04133" lon="2.05299">
        <ele>54</ele>
        <time>2017-11-26T13:25:07.000Z</time>
      </trkpt>
      <trkpt lat="49.04128" lon="2.05312">
        <ele>51</ele>
        <time>2017-11-26T13:25:14.000Z</time>
      </trkpt>
      <trkpt lat="49.04121" lon="2.05324">
        <ele>50</ele>
        <time>2017-11-26T13:25:21.000Z</time>
      </trkpt>
      <trkpt lat="49.04114" lon="2.0534">
        <ele>51</ele>
        <time>2017-11-26T13:25:29.000Z</time>
      </trkpt>
      <trkpt lat="49.04107" lon="2.0535">
        <ele>52</ele>
        <time>2017-11-26T13:25:35.000Z</time>
      </trkpt>
      <trkpt lat="49.04099" lon="2.05362">
        <ele>55</ele>
        <time>2017-11-26T13:25:42.000Z</time>
      </trkpt>
      <trkpt lat="49.04091" lon="2.05373">
        <ele>54</ele>
        <time>2017-11-26T13:25:50.000Z</time>
      </trkpt>
      <trkpt lat="49.04084" lon="2.05385">
        <ele>53</ele>
        <time>2017-11-26T13:25:58.000Z</time>
      </trkpt>
      <trkpt lat="49.04078" lon="2.05396">
        <ele>54</ele>
        <time>2017-11-26T13:26:05.000Z</time>
      </trkpt>
      <trkpt lat="49.04071" lon="2.05406">
        <ele>53</ele>
        <time>2017-11-26T13:26:14.000Z</time>
      </trkpt>
      <trkpt lat="49.04065" lon="2.05416">
        <ele>55</ele>
        <time>2017-11-26T13:26:20.000Z</time>
      </trkpt>
      <trkpt lat="49.04058" lon="2.05426">
        <ele>57</ele>
        <time>2017-11-26T13:26:26.000Z</time>
      </trkpt>
      <trkpt lat="49.04051" lon="2.05435">
        <ele>57</ele>
        <time>2017-11-26T13:26:34.000Z</time>
      </trkpt>
      <trkpt lat="49.04042" lon="2.05446">
        <ele>58</ele>
        <time>2017-11-26T13:26:44.000Z</time>
      </trkpt>
      <trkpt lat="49.04034" lon="2.05456">
        <ele>59</ele>
        <time>2017-11-26T13:26:53.000Z</time>
      </trkpt>
      <trkpt lat="49.04025" lon="2.05465">
        <ele>57</ele>
        <time>2017-11-26T13:27:02.000Z</time>
      </trkpt>
      <trkpt lat="49.04016" lon="2.05471">
        <ele>59</ele>
        <time>2017-11-26T13:27:08.000Z</time>
      </trkpt>
      <trkpt lat="49.04007" lon="2.05479">
        <ele>57</ele>
        <time>2017-11-26T13:27:17.000Z</time>
      </trkpt>
      <trkpt lat="49.03995" lon="2.05488">
        <ele>59</ele>
        <time>2017-11-26T13:27:27.000Z</time>
      </trkpt>
      <trkpt lat="49.03986" lon="2.05493">
        <ele>59</ele>
        <time>2017-11-26T13:27:35.000Z</time>
      </trkpt>
      <trkpt lat="49.03976" lon="2.055">
        <ele>59</ele>
        <time>2017-11-26T13:27:44.000Z</time>
      </trkpt>
      <trkpt lat="49.03967" lon="2.05505">
        <ele>59</ele>
        <time>2017-11-26T13:27:53.000Z</time>
      </trkpt>
      <trkpt lat="49.03959" lon="2.05515">
        <ele>60</ele>
        <time>2017-11-26T13:28:01.000Z</time>
      </trkpt>
      <trkpt lat="49.0395" lon="2.05521">
        <ele>60</ele>
        <time>2017-11-26T13:28:10.000Z</time>
      </trkpt>
      <trkpt lat="49.03942" lon="2.0553">
        <ele>61</ele>
        <time>2017-11-26T13:28:19.000Z</time>
      </trkpt>
      <trkpt lat="49.03935" lon="2.0554">
        <ele>61</ele>
        <time>2017-11-26T13:28:27.000Z</time>
      </trkpt>
      <trkpt lat="49.03927" lon="2.05547">
        <ele>62</ele>
        <time>2017-11-26T13:28:35.000Z</time>
      </trkpt>
      <trkpt lat="49.03916" lon="2.05556">
        <ele>60</ele>
        <time>2017-11-26T13:28:45.000Z</time>
      </trkpt>
      <trkpt lat="49.03906" lon="2.05565">
        <ele>59</ele>
        <time>2017-11-26T13:28:56.000Z</time>
      </trkpt>
      <trkpt lat="49.03894" lon="2.05572">
        <ele>59</ele>
        <time>2017-11-26T13:29:08.000Z</time>
      </trkpt>
      <trkpt lat="49.03884" lon="2.05576">
        <ele>59</ele>
        <time>2017-11-26T13:29:17.000Z</time>
      </trkpt>
      <trkpt lat="49.03877" lon="2.05583">
        <ele>60</ele>
        <time>2017-11-26T13:29:25.000Z</time>
      </trkpt>
      <trkpt lat="49.03867" lon="2.05592">
        <ele>58</ele>
        <time>2017-11-26T13:29:36.000Z</time>
      </trkpt>
      <trkpt lat="49.03859" lon="2.05598">
        <ele>58</ele>
        <time>2017-11-26T13:29:44.000Z</time>
      </trkpt>
      <trkpt lat="49.03847" lon="2.05607">
        <ele>57</ele>
        <time>2017-11-26T13:29:54.000Z</time>
      </trkpt>
      <trkpt lat="49.03837" lon="2.05611">
        <ele>57</ele>
        <time>2017-11-26T13:30:01.000Z</time>
      </trkpt>
      <trkpt lat="49.03827" lon="2.05617">
        <ele>58</ele>
        <time>2017-11-26T13:30:09.000Z</time>
      </trkpt>
      <trkpt lat="49.03819" lon="2.05622">
        <ele>58</ele>
        <time>2017-11-26T13:30:16.000Z</time>
      </trkpt>
      <trkpt lat="49.03809" lon="2.05626">
        <ele>59</ele>
        <time>2017-11-26T13:30:23.545Z</time>
      </trkpt>
      <trkpt lat="49.03799" lon="2.05628">
        <ele>58</ele>
        <time>2017-11-26T13:30:31.000Z</time>
      </trkpt>
      <trkpt lat="49.0379" lon="2.05635">
        <ele>58</ele>
        <time>2017-11-26T13:30:38.000Z</time>
      </trkpt>
      <trkpt lat="49.03781" lon="2.0564">
        <ele>59</ele>
        <time>2017-11-26T13:30:46.000Z</time>
      </trkpt>
      <trkpt lat="49.03772" lon="2.05644">
        <ele>58</ele>
        <time>2017-11-26T13:30:54.000Z</time>
      </trkpt>
      <trkpt lat="49.03763" lon="2.05648">
        <ele>58</ele>
        <time>2017-11-26T13:31:04.000Z</time>
      </trkpt>
      <trkpt lat="49.03754" lon="2.05655">
        <ele>58</ele>
        <time>2017-11-26T13:31:14.000Z</time>
      </trkpt>
      <trkpt lat="49.03747" lon="2.05664">
        <ele>56</ele>
        <time>2017-11-26T13:31:23.000Z</time>
      </trkpt>
      <trkpt lat="49.03739" lon="2.05669">
        <ele>56</ele>
        <time>2017-11-26T13:31:32.000Z</time>
      </trkpt>
      <trkpt lat="49.0373" lon="2.05674">
        <ele>55</ele>
        <time>2017-11-26T13:31:40.000Z</time>
      </trkpt>
      <trkpt lat="49.03719" lon="2.0568">
        <ele>57</ele>
        <time>2017-11-26T13:31:50.000Z</time>
      </trkpt>
      <trkpt lat="49.0371" lon="2.05685">
        <ele>58</ele>
        <time>2017-11-26T13:31:58.000Z</time>
      </trkpt>
      <trkpt lat="49.03701" lon="2.05692">
        <ele>58</ele>
        <time>2017-11-26T13:32:07.000Z</time>
      </trkpt>
      <trkpt lat="49.03693" lon="2.05696">
        <ele>57</ele>
        <time>2017-11-26T13:32:15.000Z</time>
      </trkpt>
      <trkpt lat="49.03681" lon="2.05702">
        <ele>58</ele>
        <time>2017-11-26T13:32:25.000Z</time>
      </trkpt>
      <trkpt lat="49.03672" lon="2.05708">
        <ele>59</ele>
        <time>2017-11-26T13:32:35.000Z</time>
      </trkpt>
      <trkpt lat="49.03662" lon="2.05713">
        <ele>60</ele>
        <time>2017-11-26T13:32:46.000Z</time>
      </trkpt>
      <trkpt lat="49.03653" lon="2.05716">
        <ele>60</ele>
        <time>2017-11-26T13:32:54.000Z</time>
      </trkpt>
      <trkpt lat="49.03643" lon="2.05722">
        <ele>63</ele>
        <time>2017-11-26T13:33:02.000Z</time>
      </trkpt>
      <trkpt lat="49.03632" lon="2.05726">
        <ele>66</ele>
        <time>2017-11-26T13:33:13.000Z</time>
      </trkpt>
      <trkpt lat="49.03623" lon="2.05734">
        <ele>63</ele>
        <time>2017-11-26T13:33:22.000Z</time>
      </trkpt>
      <trkpt lat="49.03614" lon="2.05741">
        <ele>63</ele>
        <time>2017-11-26T13:33:32.000Z</time>
      </trkpt>
      <trkpt lat="49.03606" lon="2.05745">
        <ele>65</ele>
        <time>2017-11-26T13:33:40.000Z</time>
      </trkpt>
      <trkpt lat="49.03597" lon="2.0575">
        <ele>64</ele>
        <time>2017-11-26T13:33:51.000Z</time>
      </trkpt>
      <trkpt lat="49.03589" lon="2.05758">
        <ele>63</ele>
        <time>2017-11-26T13:34:00.000Z</time>
      </trkpt>
      <trkpt lat="49.03581" lon="2.05766">
        <ele>67</ele>
        <time>2017-11-26T13:34:06.000Z</time>
      </trkpt>
      <trkpt lat="49.0357" lon="2.05768">
        <ele>67</ele>
        <time>2017-11-26T13:34:18.000Z</time>
      </trkpt>
      <trkpt lat="49.03561" lon="2.05776">
        <ele>65</ele>
        <time>2017-11-26T13:34:26.000Z</time>
      </trkpt>
      <trkpt lat="49.0355" lon="2.05786">
        <ele>68</ele>
        <time>2017-11-26T13:34:36.000Z</time>
      </trkpt>
      <trkpt lat="49.03538" lon="2.05791">
        <ele>72</ele>
        <time>2017-11-26T13:34:46.000Z</time>
      </trkpt>
      <trkpt lat="49.03528" lon="2.05791">
        <ele>73</ele>
        <time>2017-11-26T13:34:55.000Z</time>
      </trkpt>
      <trkpt lat="49.03518" lon="2.05792">
        <ele>69</ele>
        <time>2017-11-26T13:35:04.000Z</time>
      </trkpt>
      <trkpt lat="49.03509" lon="2.05796">
        <ele>69</ele>
        <time>2017-11-26T13:35:12.000Z</time>
      </trkpt>
      <trkpt lat="49.035" lon="2.05798">
        <ele>66</ele>
        <time>2017-11-26T13:35:24.000Z</time>
      </trkpt>
      <trkpt lat="49.03488" lon="2.05799">
        <ele>64</ele>
        <time>2017-11-26T13:35:34.000Z</time>
      </trkpt>
      <trkpt lat="49.03479" lon="2.05803">
        <ele>64</ele>
        <time>2017-11-26T13:35:42.000Z</time>
      </trkpt>
      <trkpt lat="49.03469" lon="2.05808">
        <ele>62</ele>
        <time>2017-11-26T13:35:52.000Z</time>
      </trkpt>
      <trkpt lat="49.0346" lon="2.05814">
        <ele>62</ele>
        <time>2017-11-26T13:36:01.000Z</time>
      </trkpt>
      <trkpt lat="49.03451" lon="2.05818">
        <ele>60</ele>
        <time>2017-11-26T13:36:10.000Z</time>
      </trkpt>
      <trkpt lat="49.03441" lon="2.05821">
        <ele>61</ele>
        <time>2017-11-26T13:36:19.000Z</time>
      </trkpt>
      <trkpt lat="49.03431" lon="2.05821">
        <ele>61</ele>
        <time>2017-11-26T13:36:27.000Z</time>
      </trkpt>
      <trkpt lat="49.03421" lon="2.05825">
        <ele>64</ele>
        <time>2017-11-26T13:36:36.000Z</time>
      </trkpt>
      <trkpt lat="49.03411" lon="2.05826">
        <ele>66</ele>
        <time>2017-11-26T13:36:45.000Z</time>
      </trkpt>
      <trkpt lat="49.03402" lon="2.05831">
        <ele>67</ele>
        <time>2017-11-26T13:36:54.000Z</time>
      </trkpt>
      <trkpt lat="49.03393" lon="2.05833">
        <ele>65</ele>
        <time>2017-11-26T13:37:03.000Z</time>
      </trkpt>
      <trkpt lat="49.03385" lon="2.0584">
        <ele>61</ele>
        <time>2017-11-26T13:37:16.000Z</time>
      </trkpt>
      <trkpt lat="49.03375" lon="2.05843">
        <ele>61</ele>
        <time>2017-11-26T13:37:26.000Z</time>
      </trkpt>
      <trkpt lat="49.03366" lon="2.05851">
        <ele>61</ele>
        <time>2017-11-26T13:37:36.000Z</time>
      </trkpt>
      <trkpt lat="49.03357" lon="2.05857">
        <ele>61</ele>
        <time>2017-11-26T13:37:44.000Z</time>
      </trkpt>
      <trkpt lat="49.03348" lon="2.05862">
        <ele>65</ele>
        <time>2017-11-26T13:37:53.000Z</time>
      </trkpt>
      <trkpt lat="49.03338" lon="2.05869">
        <ele>68</ele>
        <time>2017-11-26T13:38:00.000Z</time>
      </trkpt>
      <trkpt lat="49.0333" lon="2.05869">
        <ele>70</ele>
        <time>2017-11-26T13:38:08.000Z</time>
      </trkpt>
      <trkpt lat="49.03321" lon="2.05875">
        <ele>74</ele>
        <time>2017-11-26T13:38:16.000Z</time>
      </trkpt>
      <trkpt lat="49.03309" lon="2.05878">
        <ele>66</ele>
        <time>2017-11-26T13:38:31.000Z</time>
      </trkpt>
      <trkpt lat="49.033" lon="2.05884">
        <ele>68</ele>
        <time>2017-11-26T13:38:39.000Z</time>
      </trkpt>
      <trkpt lat="49.03289" lon="2.05892">
        <ele>67</ele>
        <time>2017-11-26T13:38:51.000Z</time>
      </trkpt>
      <trkpt lat="49.0328" lon="2.05898">
        <ele>66</ele>
        <time>2017-11-26T13:39:00.000Z</time>
      </trkpt>
      <trkpt lat="49.0327" lon="2.05905">
        <ele>65</ele>
        <time>2017-11-26T13:39:10.000Z</time>
      </trkpt>
      <trkpt lat="49.03259" lon="2.0591">
        <ele>65</ele>
        <time>2017-11-26T13:39:20.000Z</time>
      </trkpt>
      <trkpt lat="49.0325" lon="2.05914">
        <ele>64</ele>
        <time>2017-11-26T13:39:31.000Z</time>
      </trkpt>
      <trkpt lat="49.03243" lon="2.05923">
        <ele>63</ele>
        <time>2017-11-26T13:39:40.000Z</time>
      </trkpt>
      <trkpt lat="49.03236" lon="2.05932">
        <ele>63</ele>
        <time>2017-11-26T13:39:47.000Z</time>
      </trkpt>
      <trkpt lat="49.03227" lon="2.05936">
        <ele>63</ele>
        <time>2017-11-26T13:39:57.000Z</time>
      </trkpt>
      <trkpt lat="49.03218" lon="2.05938">
        <ele>64</ele>
        <time>2017-11-26T13:40:06.000Z</time>
      </trkpt>
      <trkpt lat="49.03209" lon="2.05943">
        <ele>63</ele>
        <time>2017-11-26T13:40:15.000Z</time>
      </trkpt>
      <trkpt lat="49.03199" lon="2.05947">
        <ele>64</ele>
        <time>2017-11-26T13:40:25.000Z</time>
      </trkpt>
      <trkpt lat="49.03191" lon="2.05952">
        <ele>64</ele>
        <time>2017-11-26T13:40:33.018Z</time>
      </trkpt>
      <trkpt lat="49.03181" lon="2.05957">
        <ele>62</ele>
        <time>2017-11-26T13:40:41.000Z</time>
      </trkpt>
      <trkpt lat="49.03171" lon="2.05963">
        <ele>64</ele>
        <time>2017-11-26T13:40:51.000Z</time>
      </trkpt>
      <trkpt lat="49.03162" lon="2.05965">
        <ele>68</ele>
        <time>2017-11-26T13:40:59.000Z</time>
      </trkpt>
      <trkpt lat="49.03153" lon="2.05972">
        <ele>67</ele>
        <time>2017-11-26T13:41:08.000Z</time>
      </trkpt>
      <trkpt lat="49.03144" lon="2.05974">
        <ele>66</ele>
        <time>2017-11-26T13:41:17.000Z</time>
      </trkpt>
      <trkpt lat="49.03134" lon="2.05975">
        <ele>68</ele>
        <time>2017-11-26T13:41:25.000Z</time>
      </trkpt>
      <trkpt lat="49.03125" lon="2.05978">
        <ele>72</ele>
        <time>2017-11-26T13:41:33.000Z</time>
      </trkpt>
      <trkpt lat="49.03114" lon="2.05978">
        <ele>69</ele>
        <time>2017-11-26T13:41:43.000Z</time>
      </trkpt>
      <trkpt lat="49.03104" lon="2.05981">
        <ele>66</ele>
        <time>2017-11-26T13:41:54.000Z</time>
      </trkpt>
      <trkpt lat="49.03095" lon="2.05985">
        <ele>65</ele>
        <time>2017-11-26T13:42:04.000Z</time>
      </trkpt>
      <trkpt lat="49.03088" lon="2.05997">
        <ele>62</ele>
        <time>2017-11-26T13:42:17.000Z</time>
      </trkpt>
      <trkpt lat="49.0309" lon="2.06013">
        <ele>64</ele>
        <time>2017-11-26T13:42:28.000Z</time>
      </trkpt>
      <trkpt lat="49.03093" lon="2.06027">
        <ele>64</ele>
        <time>2017-11-26T13:42:39.000Z</time>
      </trkpt>
      <trkpt lat="49.03095" lon="2.06045">
        <ele>64</ele>
        <time>2017-11-26T13:42:55.000Z</time>
      </trkpt>
      <trkpt lat="49.03087" lon="2.0605">
        <ele>63</ele>
        <time>2017-11-26T13:43:03.000Z</time>
      </trkpt>
      <trkpt lat="49.03095" lon="2.06061">
        <ele>70</ele>
        <time>2017-11-26T13:43:08.000Z</time>
      </trkpt>
      <trkpt lat="49.03101" lon="2.06072">
        <ele>65</ele>
        <time>2017-11-26T13:43:35.000Z</time>
      </trkpt>
      <trkpt lat="49.03099" lon="2.06085">
        <ele>62</ele>
        <time>2017-11-26T13:43:54.000Z</time>
      </trkpt>
      <trkpt lat="49.03096" lon="2.06098">
        <ele>61</ele>
        <time>2017-11-26T13:44:11.000Z</time>
      </trkpt>
      <trkpt lat="49.03091" lon="2.06112">
        <ele>60</ele>
        <time>2017-11-26T13:44:21.000Z</time>
      </trkpt>
      <trkpt lat="49.03086" lon="2.06127">
        <ele>60</ele>
        <time>2017-11-26T13:44:31.000Z</time>
      </trkpt>
      <trkpt lat="49.0308" lon="2.06141">
        <ele>62</ele>
        <time>2017-11-26T13:44:39.000Z</time>
      </trkpt>
      <trkpt lat="49.0307" lon="2.06148">
        <ele>63</ele>
        <time>2017-11-26T13:44:49.000Z</time>
      </trkpt>
      <trkpt lat="49.0306" lon="2.06146">
        <ele>62</ele>
        <time>2017-11-26T13:45:02.000Z</time>
      </trkpt>
      <trkpt lat="49.03069" lon="2.06143">
        <ele>63</ele>
        <time>2017-11-26T13:45:55.000Z</time>
      </trkpt>
      <trkpt lat="49.03077" lon="2.06135">
        <ele>63</ele>
        <time>2017-11-26T13:46:06.000Z</time>
      </trkpt>
      <trkpt lat="49.03082" lon="2.06122">
        <ele>63</ele>
        <time>2017-11-26T13:46:16.000Z</time>
      </trkpt>
      <trkpt lat="49.03087" lon="2.06111">
        <ele>62</ele>
        <time>2017-11-26T13:46:27.000Z</time>
      </trkpt>
      <trkpt lat="49.03091" lon="2.06098">
        <ele>60</ele>
        <time>2017-11-26T13:46:37.000Z</time>
      </trkpt>
      <trkpt lat="49.03095" lon="2.06081">
        <ele>60</ele>
        <time>2017-11-26T13:46:47.000Z</time>
      </trkpt>
      <trkpt lat="49.03093" lon="2.06066">
        <ele>67</ele>
        <time>2017-11-26T13:46:55.000Z</time>
      </trkpt>
      <trkpt lat="49.03094" lon="2.06052">
        <ele>64</ele>
        <time>2017-11-26T13:47:05.000Z</time>
      </trkpt>
      <trkpt lat="49.0309" lon="2.06038">
        <ele>64</ele>
        <time>2017-11-26T13:47:14.000Z</time>
      </trkpt>
      <trkpt lat="49.03086" lon="2.06024">
        <ele>65</ele>
        <time>2017-11-26T13:47:23.000Z</time>
      </trkpt>
      <trkpt lat="49.0308" lon="2.06009">
        <ele>65</ele>
        <time>2017-11-26T13:47:32.000Z</time>
      </trkpt>
      <trkpt lat="49.03081" lon="2.05994">
        <ele>64</ele>
        <time>2017-11-26T13:47:41.000Z</time>
      </trkpt>
      <trkpt lat="49.03085" lon="2.0598">
        <ele>63</ele>
        <time>2017-11-26T13:47:49.000Z</time>
      </trkpt>
      <trkpt lat="49.03094" lon="2.05975">
        <ele>63</ele>
        <time>2017-11-26T13:47:57.000Z</time>
      </trkpt>
      <trkpt lat="49.03101" lon="2.05966">
        <ele>63</ele>
        <time>2017-11-26T13:48:04.000Z</time>
      </trkpt>
      <trkpt lat="49.0311" lon="2.05961">
        <ele>64</ele>
        <time>2017-11-26T13:48:12.000Z</time>
      </trkpt>
      <trkpt lat="49.0312" lon="2.05954">
        <ele>65</ele>
        <time>2017-11-26T13:48:20.000Z</time>
      </trkpt>
      <trkpt lat="49.03132" lon="2.05947">
        <ele>62</ele>
        <time>2017-11-26T13:48:30.000Z</time>
      </trkpt>
      <trkpt lat="49.03143" lon="2.05941">
        <ele>64</ele>
        <time>2017-11-26T13:48:37.000Z</time>
      </trkpt>
      <trkpt lat="49.03154" lon="2.05935">
        <ele>60</ele>
        <time>2017-11-26T13:48:47.000Z</time>
      </trkpt>
      <trkpt lat="49.03164" lon="2.05933">
        <ele>62</ele>
        <time>2017-11-26T13:48:54.000Z</time>
      </trkpt>
      <trkpt lat="49.03174" lon="2.05929">
        <ele>63</ele>
        <time>2017-11-26T13:48:59.000Z</time>
      </trkpt>
      <trkpt lat="49.03183" lon="2.05925">
        <ele>62</ele>
        <time>2017-11-26T13:49:04.000Z</time>
      </trkpt>
      <trkpt lat="49.03192" lon="2.05921">
        <ele>63</ele>
        <time>2017-11-26T13:49:09.000Z</time>
      </trkpt>
      <trkpt lat="49.03204" lon="2.05916">
        <ele>62</ele>
        <time>2017-11-26T13:49:17.000Z</time>
      </trkpt>
      <trkpt lat="49.03216" lon="2.0591">
        <ele>59</ele>
        <time>2017-11-26T13:49:24.000Z</time>
      </trkpt>
      <trkpt lat="49.03225" lon="2.05905">
        <ele>58</ele>
        <time>2017-11-26T13:49:29.000Z</time>
      </trkpt>
      <trkpt lat="49.03234" lon="2.05899">
        <ele>58</ele>
        <time>2017-11-26T13:49:34.000Z</time>
      </trkpt>
      <trkpt lat="49.03243" lon="2.05894">
        <ele>59</ele>
        <time>2017-11-26T13:49:39.000Z</time>
      </trkpt>
      <trkpt lat="49.03254" lon="2.05889">
        <ele>58</ele>
        <time>2017-11-26T13:49:44.000Z</time>
      </trkpt>
      <trkpt lat="49.03263" lon="2.05885">
        <ele>61</ele>
        <time>2017-11-26T13:49:49.000Z</time>
      </trkpt>
      <trkpt lat="49.03271" lon="2.05877">
        <ele>61</ele>
        <time>2017-11-26T13:49:54.000Z</time>
      </trkpt>
      <trkpt lat="49.03282" lon="2.05871">
        <ele>59</ele>
        <time>2017-11-26T13:50:02.000Z</time>
      </trkpt>
      <trkpt lat="49.03291" lon="2.05863">
        <ele>59</ele>
        <time>2017-11-26T13:50:07.000Z</time>
      </trkpt>
      <trkpt lat="49.03299" lon="2.05857">
        <ele>58</ele>
        <time>2017-11-26T13:50:12.000Z</time>
      </trkpt>
      <trkpt lat="49.03308" lon="2.05852">
        <ele>58</ele>
        <time>2017-11-26T13:50:17.000Z</time>
      </trkpt>
      <trkpt lat="49.03322" lon="2.05848">
        <ele>61</ele>
        <time>2017-11-26T13:50:24.000Z</time>
      </trkpt>
      <trkpt lat="49.03334" lon="2.05843">
        <ele>63</ele>
        <time>2017-11-26T13:50:31.000Z</time>
      </trkpt>
      <trkpt lat="49.03346" lon="2.05838">
        <ele>59</ele>
        <time>2017-11-26T13:50:38.000Z</time>
      </trkpt>
      <trkpt lat="49.03355" lon="2.05831">
        <ele>60</ele>
        <time>2017-11-26T13:50:43.000Z</time>
      </trkpt>
      <trkpt lat="49.03364" lon="2.05826">
        <ele>60</ele>
        <time>2017-11-26T13:50:48.544Z</time>
      </trkpt>
      <trkpt lat="49.03374" lon="2.05822">
        <ele>59</ele>
        <time>2017-11-26T13:50:54.000Z</time>
      </trkpt>
      <trkpt lat="49.03386" lon="2.05816">
        <ele>61</ele>
        <time>2017-11-26T13:51:02.000Z</time>
      </trkpt>
      <trkpt lat="49.03398" lon="2.05811">
        <ele>65</ele>
        <time>2017-11-26T13:51:09.000Z</time>
      </trkpt>
      <trkpt lat="49.03411" lon="2.05804">
        <ele>63</ele>
        <time>2017-11-26T13:51:16.000Z</time>
      </trkpt>
      <trkpt lat="49.03421" lon="2.05803">
        <ele>61</ele>
        <time>2017-11-26T13:51:22.000Z</time>
      </trkpt>
      <trkpt lat="49.03431" lon="2.05799">
        <ele>60</ele>
        <time>2017-11-26T13:51:28.000Z</time>
      </trkpt>
      <trkpt lat="49.0344" lon="2.05792">
        <ele>62</ele>
        <time>2017-11-26T13:51:33.000Z</time>
      </trkpt>
      <trkpt lat="49.03449" lon="2.0579">
        <ele>61</ele>
        <time>2017-11-26T13:51:39.000Z</time>
      </trkpt>
      <trkpt lat="49.0346" lon="2.05784">
        <ele>63</ele>
        <time>2017-11-26T13:51:44.000Z</time>
      </trkpt>
      <trkpt lat="49.03475" lon="2.05779">
        <ele>64</ele>
        <time>2017-11-26T13:51:52.000Z</time>
      </trkpt>
      <trkpt lat="49.03487" lon="2.05776">
        <ele>66</ele>
        <time>2017-11-26T13:51:59.000Z</time>
      </trkpt>
      <trkpt lat="49.03497" lon="2.0577">
        <ele>63</ele>
        <time>2017-11-26T13:52:04.000Z</time>
      </trkpt>
      <trkpt lat="49.03507" lon="2.05768">
        <ele>60</ele>
        <time>2017-11-26T13:52:11.000Z</time>
      </trkpt>
      <trkpt lat="49.03516" lon="2.05764">
        <ele>58</ele>
        <time>2017-11-26T13:52:16.000Z</time>
      </trkpt>
      <trkpt lat="49.03526" lon="2.05758">
        <ele>58</ele>
        <time>2017-11-26T13:52:21.000Z</time>
      </trkpt>
      <trkpt lat="49.03536" lon="2.05754">
        <ele>60</ele>
        <time>2017-11-26T13:52:26.000Z</time>
      </trkpt>
      <trkpt lat="49.03545" lon="2.05747">
        <ele>60</ele>
        <time>2017-11-26T13:52:32.000Z</time>
      </trkpt>
      <trkpt lat="49.03554" lon="2.05743">
        <ele>61</ele>
        <time>2017-11-26T13:52:37.000Z</time>
      </trkpt>
      <trkpt lat="49.03564" lon="2.05738">
        <ele>61</ele>
        <time>2017-11-26T13:52:43.000Z</time>
      </trkpt>
      <trkpt lat="49.03573" lon="2.05732">
        <ele>60</ele>
        <time>2017-11-26T13:52:49.000Z</time>
      </trkpt>
      <trkpt lat="49.03583" lon="2.05726">
        <ele>64</ele>
        <time>2017-11-26T13:52:54.000Z</time>
      </trkpt>
      <trkpt lat="49.03592" lon="2.05721">
        <ele>63</ele>
        <time>2017-11-26T13:52:59.000Z</time>
      </trkpt>
      <trkpt lat="49.03603" lon="2.05718">
        <ele>60</ele>
        <time>2017-11-26T13:53:04.000Z</time>
      </trkpt>
      <trkpt lat="49.03612" lon="2.05714">
        <ele>60</ele>
        <time>2017-11-26T13:53:09.000Z</time>
      </trkpt>
      <trkpt lat="49.03626" lon="2.05706">
        <ele>58</ele>
        <time>2017-11-26T13:53:16.000Z</time>
      </trkpt>
      <trkpt lat="49.03635" lon="2.057">
        <ele>59</ele>
        <time>2017-11-26T13:53:21.000Z</time>
      </trkpt>
      <trkpt lat="49.03647" lon="2.0569">
        <ele>60</ele>
        <time>2017-11-26T13:53:29.000Z</time>
      </trkpt>
      <trkpt lat="49.03655" lon="2.05682">
        <ele>59</ele>
        <time>2017-11-26T13:53:34.000Z</time>
      </trkpt>
      <trkpt lat="49.03667" lon="2.05675">
        <ele>59</ele>
        <time>2017-11-26T13:53:40.543Z</time>
      </trkpt>
      <trkpt lat="49.03676" lon="2.05675">
        <ele>57</ele>
        <time>2017-11-26T13:53:46.000Z</time>
      </trkpt>
      <trkpt lat="49.03687" lon="2.0567">
        <ele>58</ele>
        <time>2017-11-26T13:53:52.000Z</time>
      </trkpt>
      <trkpt lat="49.03699" lon="2.05661">
        <ele>59</ele>
        <time>2017-11-26T13:54:00.000Z</time>
      </trkpt>
      <trkpt lat="49.03706" lon="2.05654">
        <ele>61</ele>
        <time>2017-11-26T13:54:05.000Z</time>
      </trkpt>
      <trkpt lat="49.03715" lon="2.05646">
        <ele>61</ele>
        <time>2017-11-26T13:54:11.000Z</time>
      </trkpt>
      <trkpt lat="49.03725" lon="2.05641">
        <ele>60</ele>
        <time>2017-11-26T13:54:17.000Z</time>
      </trkpt>
      <trkpt lat="49.03735" lon="2.05638">
        <ele>58</ele>
        <time>2017-11-26T13:54:23.000Z</time>
      </trkpt>
      <trkpt lat="49.03744" lon="2.05632">
        <ele>58</ele>
        <time>2017-11-26T13:54:28.000Z</time>
      </trkpt>
      <trkpt lat="49.03753" lon="2.05625">
        <ele>58</ele>
        <time>2017-11-26T13:54:34.000Z</time>
      </trkpt>
      <trkpt lat="49.03765" lon="2.05616">
        <ele>59</ele>
        <time>2017-11-26T13:54:42.000Z</time>
      </trkpt>
      <trkpt lat="49.03775" lon="2.05609">
        <ele>59</ele>
        <time>2017-11-26T13:54:49.000Z</time>
      </trkpt>
      <trkpt lat="49.03785" lon="2.05603">
        <ele>60</ele>
        <time>2017-11-26T13:54:55.000Z</time>
      </trkpt>
      <trkpt lat="49.03795" lon="2.05597">
        <ele>60</ele>
        <time>2017-11-26T13:55:01.000Z</time>
      </trkpt>
      <trkpt lat="49.03806" lon="2.05592">
        <ele>57</ele>
        <time>2017-11-26T13:55:09.000Z</time>
      </trkpt>
      <trkpt lat="49.03814" lon="2.05584">
        <ele>57</ele>
        <time>2017-11-26T13:55:16.000Z</time>
      </trkpt>
      <trkpt lat="49.03825" lon="2.05574">
        <ele>57</ele>
        <time>2017-11-26T13:55:22.000Z</time>
      </trkpt>
      <trkpt lat="49.03835" lon="2.05569">
        <ele>59</ele>
        <time>2017-11-26T13:55:27.000Z</time>
      </trkpt>
      <trkpt lat="49.03844" lon="2.05564">
        <ele>61</ele>
        <time>2017-11-26T13:55:32.000Z</time>
      </trkpt>
      <trkpt lat="49.03853" lon="2.05558">
        <ele>61</ele>
        <time>2017-11-26T13:55:38.000Z</time>
      </trkpt>
      <trkpt lat="49.03863" lon="2.05553">
        <ele>60</ele>
        <time>2017-11-26T13:55:45.000Z</time>
      </trkpt>
      <trkpt lat="49.03872" lon="2.05545">
        <ele>61</ele>
        <time>2017-11-26T13:55:50.000Z</time>
      </trkpt>
      <trkpt lat="49.0388" lon="2.05537">
        <ele>59</ele>
        <time>2017-11-26T13:55:55.000Z</time>
      </trkpt>
      <trkpt lat="49.03891" lon="2.05524">
        <ele>55</ele>
        <time>2017-11-26T13:56:04.000Z</time>
      </trkpt>
      <trkpt lat="49.039" lon="2.05519">
        <ele>55</ele>
        <time>2017-11-26T13:56:09.000Z</time>
      </trkpt>
      <trkpt lat="49.0391" lon="2.05513">
        <ele>58</ele>
        <time>2017-11-26T13:56:14.000Z</time>
      </trkpt>
      <trkpt lat="49.03918" lon="2.05505">
        <ele>60</ele>
        <time>2017-11-26T13:56:19.000Z</time>
      </trkpt>
      <trkpt lat="49.03928" lon="2.05494">
        <ele>63</ele>
        <time>2017-11-26T13:56:25.000Z</time>
      </trkpt>
      <trkpt lat="49.03937" lon="2.05485">
        <ele>64</ele>
        <time>2017-11-26T13:56:30.529Z</time>
      </trkpt>
      <trkpt lat="49.03946" lon="2.05475">
        <ele>61</ele>
        <time>2017-11-26T13:56:37.000Z</time>
      </trkpt>
      <trkpt lat="49.03953" lon="2.05465">
        <ele>63</ele>
        <time>2017-11-26T13:56:42.000Z</time>
      </trkpt>
      <trkpt lat="49.03959" lon="2.05455">
        <ele>63</ele>
        <time>2017-11-26T13:56:47.000Z</time>
      </trkpt>
      <trkpt lat="49.03967" lon="2.05444">
        <ele>63</ele>
        <time>2017-11-26T13:56:53.000Z</time>
      </trkpt>
      <trkpt lat="49.03978" lon="2.05433">
        <ele>60</ele>
        <time>2017-11-26T13:57:01.000Z</time>
      </trkpt>
      <trkpt lat="49.03985" lon="2.05423">
        <ele>60</ele>
        <time>2017-11-26T13:57:07.000Z</time>
      </trkpt>
      <trkpt lat="49.03992" lon="2.05414">
        <ele>61</ele>
        <time>2017-11-26T13:57:11.000Z</time>
      </trkpt>
      <trkpt lat="49.04001" lon="2.05403">
        <ele>59</ele>
        <time>2017-11-26T13:57:18.000Z</time>
      </trkpt>
      <trkpt lat="49.04007" lon="2.05392">
        <ele>61</ele>
        <time>2017-11-26T13:57:23.000Z</time>
      </trkpt>
      <trkpt lat="49.04015" lon="2.05379">
        <ele>57</ele>
        <time>2017-11-26T13:57:31.000Z</time>
      </trkpt>
      <trkpt lat="49.04022" lon="2.05369">
        <ele>56</ele>
        <time>2017-11-26T13:57:36.000Z</time>
      </trkpt>
      <trkpt lat="49.04031" lon="2.05353">
        <ele>60</ele>
        <time>2017-11-26T13:57:43.000Z</time>
      </trkpt>
      <trkpt lat="49.04039" lon="2.05339">
        <ele>59</ele>
        <time>2017-11-26T13:57:50.000Z</time>
      </trkpt>
      <trkpt lat="49.04047" lon="2.05329">
        <ele>60</ele>
        <time>2017-11-26T13:57:56.000Z</time>
      </trkpt>
      <trkpt lat="49.04054" lon="2.05313">
        <ele>59</ele>
        <time>2017-11-26T13:58:03.000Z</time>
      </trkpt>
      <trkpt lat="49.04059" lon="2.05301">
        <ele>57</ele>
        <time>2017-11-26T13:58:09.000Z</time>
      </trkpt>
      <trkpt lat="49.04066" lon="2.05292">
        <ele>57</ele>
        <time>2017-11-26T13:58:15.000Z</time>
      </trkpt>
      <trkpt lat="49.0407" lon="2.0528">
        <ele>58</ele>
        <time>2017-11-26T13:58:19.000Z</time>
      </trkpt>
      <trkpt lat="49.04076" lon="2.05266">
        <ele>59</ele>
        <time>2017-11-26T13:58:25.000Z</time>
      </trkpt>
      <trkpt lat="49.04083" lon="2.05251">
        <ele>56</ele>
        <time>2017-11-26T13:58:33.000Z</time>
      </trkpt>
      <trkpt lat="49.04089" lon="2.05233">
        <ele>57</ele>
        <time>2017-11-26T13:58:41.000Z</time>
      </trkpt>
      <trkpt lat="49.04091" lon="2.05218">
        <ele>60</ele>
        <time>2017-11-26T13:58:46.000Z</time>
      </trkpt>
      <trkpt lat="49.04096" lon="2.05203">
        <ele>61</ele>
        <time>2017-11-26T13:58:53.000Z</time>
      </trkpt>
      <trkpt lat="49.04096" lon="2.05186">
        <ele>64</ele>
        <time>2017-11-26T13:59:00.000Z</time>
      </trkpt>
      <trkpt lat="49.04097" lon="2.05168">
        <ele>66</ele>
        <time>2017-11-26T13:59:07.000Z</time>
      </trkpt>
      <trkpt lat="49.04099" lon="2.0515">
        <ele>66</ele>
        <time>2017-11-26T13:59:15.000Z</time>
      </trkpt>
      <trkpt lat="49.04101" lon="2.05136">
        <ele>65</ele>
        <time>2017-11-26T13:59:21.000Z</time>
      </trkpt>
      <trkpt lat="49.04104" lon="2.05123">
        <ele>63</ele>
        <time>2017-11-26T13:59:27.000Z</time>
      </trkpt>
      <trkpt lat="49.04105" lon="2.05109">
        <ele>64</ele>
        <time>2017-11-26T13:59:33.000Z</time>
      </trkpt>
      <trkpt lat="49.04106" lon="2.05091">
        <ele>63</ele>
        <time>2017-11-26T13:59:40.000Z</time>
      </trkpt>
      <trkpt lat="49.04106" lon="2.05076">
        <ele>63</ele>
        <time>2017-11-26T13:59:46.000Z</time>
      </trkpt>
      <trkpt lat="49.04107" lon="2.05058">
        <ele>63</ele>
        <time>2017-11-26T13:59:56.000Z</time>
      </trkpt>
      <trkpt lat="49.04108" lon="2.05043">
        <ele>61</ele>
        <time>2017-11-26T14:00:01.000Z</time>
      </trkpt>
      <trkpt lat="49.04108" lon="2.05026">
        <ele>62</ele>
        <time>2017-11-26T14:00:10.000Z</time>
      </trkpt>
      <trkpt lat="49.04109" lon="2.05012">
        <ele>61</ele>
        <time>2017-11-26T14:00:20.000Z</time>
      </trkpt>
      <trkpt lat="49.04107" lon="2.04993">
        <ele>61</ele>
        <time>2017-11-26T14:00:28.000Z</time>
      </trkpt>
      <trkpt lat="49.04105" lon="2.04974">
        <ele>60</ele>
        <time>2017-11-26T14:00:36.000Z</time>
      </trkpt>
      <trkpt lat="49.04105" lon="2.04954">
        <ele>57</ele>
        <time>2017-11-26T14:00:44.000Z</time>
      </trkpt>
      <trkpt lat="49.04101" lon="2.04939">
        <ele>59</ele>
        <time>2017-11-26T14:00:49.000Z</time>
      </trkpt>
      <trkpt lat="49.041" lon="2.04921">
        <ele>57</ele>
        <time>2017-11-26T14:00:57.000Z</time>
      </trkpt>
      <trkpt lat="49.04099" lon="2.04903">
        <ele>58</ele>
        <time>2017-11-26T14:01:05.000Z</time>
      </trkpt>
      <trkpt lat="49.04095" lon="2.04889">
        <ele>63</ele>
        <time>2017-11-26T14:01:10.000Z</time>
      </trkpt>
      <trkpt lat="49.04094" lon="2.04875">
        <ele>59</ele>
        <time>2017-11-26T14:01:16.000Z</time>
      </trkpt>
      <trkpt lat="49.04092" lon="2.04858">
        <ele>61</ele>
        <time>2017-11-26T14:01:22.000Z</time>
      </trkpt>
      <trkpt lat="49.04091" lon="2.04841">
        <ele>64</ele>
        <time>2017-11-26T14:01:29.000Z</time>
      </trkpt>
      <trkpt lat="49.04087" lon="2.04825">
        <ele>63</ele>
        <time>2017-11-26T14:01:36.000Z</time>
      </trkpt>
      <trkpt lat="49.04083" lon="2.04812">
        <ele>64</ele>
        <time>2017-11-26T14:01:42.000Z</time>
      </trkpt>
      <trkpt lat="49.04079" lon="2.04798">
        <ele>61</ele>
        <time>2017-11-26T14:01:49.000Z</time>
      </trkpt>
      <trkpt lat="49.04075" lon="2.04782">
        <ele>60</ele>
        <time>2017-11-26T14:01:57.000Z</time>
      </trkpt>
      <trkpt lat="49.04068" lon="2.04766">
        <ele>60</ele>
        <time>2017-11-26T14:02:04.000Z</time>
      </trkpt>
      <trkpt lat="49.04063" lon="2.04754">
        <ele>60</ele>
        <time>2017-11-26T14:02:09.000Z</time>
      </trkpt>
      <trkpt lat="49.04061" lon="2.0474">
        <ele>57</ele>
        <time>2017-11-26T14:02:14.000Z</time>
      </trkpt>
      <trkpt lat="49.04055" lon="2.04724">
        <ele>62</ele>
        <time>2017-11-26T14:02:21.000Z</time>
      </trkpt>
      <trkpt lat="49.0405" lon="2.04706">
        <ele>68</ele>
        <time>2017-11-26T14:02:29.000Z</time>
      </trkpt>
      <trkpt lat="49.04044" lon="2.04693">
        <ele>68</ele>
        <time>2017-11-26T14:02:34.000Z</time>
      </trkpt>
      <trkpt lat="49.04037" lon="2.04684">
        <ele>72</ele>
        <time>2017-11-26T14:02:40.000Z</time>
      </trkpt>
      <trkpt lat="49.04031" lon="2.04674">
        <ele>72</ele>
        <time>2017-11-26T14:02:46.000Z</time>
      </trkpt>
      <trkpt lat="49.04024" lon="2.04661">
        <ele>73</ele>
        <time>2017-11-26T14:02:52.000Z</time>
      </trkpt>
      <trkpt lat="49.04015" lon="2.04655">
        <ele>71</ele>
        <time>2017-11-26T14:02:57.000Z</time>
      </trkpt>
      <trkpt lat="49.04009" lon="2.04645">
        <ele>72</ele>
        <time>2017-11-26T14:03:02.000Z</time>
      </trkpt>
      <trkpt lat="49.04004" lon="2.04632">
        <ele>76</ele>
        <time>2017-11-26T14:03:12.000Z</time>
      </trkpt>
      <trkpt lat="49.03996" lon="2.04625">
        <ele>75</ele>
        <time>2017-11-26T14:03:17.000Z</time>
      </trkpt>
      <trkpt lat="49.03987" lon="2.04613">
        <ele>70</ele>
        <time>2017-11-26T14:03:25.000Z</time>
      </trkpt>
      <trkpt lat="49.03975" lon="2.04603">
        <ele>72</ele>
        <time>2017-11-26T14:03:35.000Z</time>
      </trkpt>
      <trkpt lat="49.03969" lon="2.04588">
        <ele>72</ele>
        <time>2017-11-26T14:03:45.000Z</time>
      </trkpt>
      <trkpt lat="49.03962" lon="2.04577">
        <ele>71</ele>
        <time>2017-11-26T14:03:57.000Z</time>
      </trkpt>
      <trkpt lat="49.03953" lon="2.04575">
        <ele>74</ele>
        <time>2017-11-26T14:04:04.000Z</time>
      </trkpt>
      <trkpt lat="49.03944" lon="2.04566">
        <ele>73</ele>
        <time>2017-11-26T14:04:13.000Z</time>
      </trkpt>
      <trkpt lat="49.03938" lon="2.04548">
        <ele>67</ele>
        <time>2017-11-26T14:04:23.000Z</time>
      </trkpt>
      <trkpt lat="49.03932" lon="2.04536">
        <ele>65</ele>
        <time>2017-11-26T14:04:30.000Z</time>
      </trkpt>
      <trkpt lat="49.03925" lon="2.04521">
        <ele>63</ele>
        <time>2017-11-26T14:04:38.000Z</time>
      </trkpt>
      <trkpt lat="49.03917" lon="2.04507">
        <ele>63</ele>
        <time>2017-11-26T14:04:46.000Z</time>
      </trkpt>
      <trkpt lat="49.0391" lon="2.04494">
        <ele>63</ele>
        <time>2017-11-26T14:04:53.000Z</time>
      </trkpt>
      <trkpt lat="49.03902" lon="2.04481">
        <ele>61</ele>
        <time>2017-11-26T14:05:01.000Z</time>
      </trkpt>
      <trkpt lat="49.03896" lon="2.04471">
        <ele>61</ele>
        <time>2017-11-26T14:05:06.000Z</time>
      </trkpt>
      <trkpt lat="49.03891" lon="2.04457">
        <ele>60</ele>
        <time>2017-11-26T14:05:12.000Z</time>
      </trkpt>
      <trkpt lat="49.03885" lon="2.04445">
        <ele>60</ele>
        <time>2017-11-26T14:05:18.000Z</time>
      </trkpt>
      <trkpt lat="49.03877" lon="2.04433">
        <ele>59</ele>
        <time>2017-11-26T14:05:24.000Z</time>
      </trkpt>
      <trkpt lat="49.0387" lon="2.04421">
        <ele>56</ele>
        <time>2017-11-26T14:05:30.000Z</time>
      </trkpt>
      <trkpt lat="49.03863" lon="2.04409">
        <ele>56</ele>
        <time>2017-11-26T14:05:37.000Z</time>
      </trkpt>
      <trkpt lat="49.03856" lon="2.04396">
        <ele>56</ele>
        <time>2017-11-26T14:05:44.000Z</time>
      </trkpt>
      <trkpt lat="49.0385" lon="2.04385">
        <ele>58</ele>
        <time>2017-11-26T14:05:49.000Z</time>
      </trkpt>
      <trkpt lat="49.03842" lon="2.0437">
        <ele>58</ele>
        <time>2017-11-26T14:05:56.000Z</time>
      </trkpt>
      <trkpt lat="49.03835" lon="2.04356">
        <ele>57</ele>
        <time>2017-11-26T14:06:02.000Z</time>
      </trkpt>
      <trkpt lat="49.03828" lon="2.04343">
        <ele>57</ele>
        <time>2017-11-26T14:06:09.000Z</time>
      </trkpt>
      <trkpt lat="49.03821" lon="2.04331">
        <ele>57</ele>
        <time>2017-11-26T14:06:16.000Z</time>
      </trkpt>
      <trkpt lat="49.03813" lon="2.0432">
        <ele>57</ele>
        <time>2017-11-26T14:06:22.000Z</time>
      </trkpt>
      <trkpt lat="49.03806" lon="2.04309">
        <ele>57</ele>
        <time>2017-11-26T14:06:27.000Z</time>
      </trkpt>
      <trkpt lat="49.03799" lon="2.04297">
        <ele>58</ele>
        <time>2017-11-26T14:06:33.000Z</time>
      </trkpt>
      <trkpt lat="49.03791" lon="2.0428">
        <ele>57</ele>
        <time>2017-11-26T14:06:43.000Z</time>
      </trkpt>
      <trkpt lat="49.03782" lon="2.04261">
        <ele>58</ele>
        <time>2017-11-26T14:06:50.000Z</time>
      </trkpt>
      <trkpt lat="49.03774" lon="2.04248">
        <ele>58</ele>
        <time>2017-11-26T14:06:56.000Z</time>
      </trkpt>
      <trkpt lat="49.03769" lon="2.04236">
        <ele>59</ele>
        <time>2017-11-26T14:07:01.000Z</time>
      </trkpt>
      <trkpt lat="49.03762" lon="2.04225">
        <ele>58</ele>
        <time>2017-11-26T14:07:07.000Z</time>
      </trkpt>
      <trkpt lat="49.03754" lon="2.04213">
        <ele>58</ele>
        <time>2017-11-26T14:07:14.000Z</time>
      </trkpt>
      <trkpt lat="49.03748" lon="2.04204">
        <ele>59</ele>
        <time>2017-11-26T14:07:19.000Z</time>
      </trkpt>
      <trkpt lat="49.0374" lon="2.04194">
        <ele>59</ele>
        <time>2017-11-26T14:07:24.000Z</time>
      </trkpt>
      <trkpt lat="49.03732" lon="2.04183">
        <ele>59</ele>
        <time>2017-11-26T14:07:30.000Z</time>
      </trkpt>
      <trkpt lat="49.03724" lon="2.04172">
        <ele>59</ele>
        <time>2017-11-26T14:07:36.000Z</time>
      </trkpt>
      <trkpt lat="49.03718" lon="2.04162">
        <ele>59</ele>
        <time>2017-11-26T14:07:41.000Z</time>
      </trkpt>
      <trkpt lat="49.03706" lon="2.04148">
        <ele>58</ele>
        <time>2017-11-26T14:07:49.000Z</time>
      </trkpt>
      <trkpt lat="49.03699" lon="2.0414">
        <ele>58</ele>
        <time>2017-11-26T14:07:54.000Z</time>
      </trkpt>
      <trkpt lat="49.03691" lon="2.04131">
        <ele>59</ele>
        <time>2017-11-26T14:07:59.000Z</time>
      </trkpt>
      <trkpt lat="49.03682" lon="2.0412">
        <ele>59</ele>
        <time>2017-11-26T14:08:06.000Z</time>
      </trkpt>
      <trkpt lat="49.03674" lon="2.04112">
        <ele>59</ele>
        <time>2017-11-26T14:08:11.000Z</time>
      </trkpt>
      <trkpt lat="49.03666" lon="2.04103">
        <ele>61</ele>
        <time>2017-11-26T14:08:17.000Z</time>
      </trkpt>
      <trkpt lat="49.03658" lon="2.04094">
        <ele>62</ele>
        <time>2017-11-26T14:08:22.000Z</time>
      </trkpt>
      <trkpt lat="49.03649" lon="2.04081">
        <ele>63</ele>
        <time>2017-11-26T14:08:29.000Z</time>
      </trkpt>
      <trkpt lat="49.03641" lon="2.04072">
        <ele>65</ele>
        <time>2017-11-26T14:08:35.000Z</time>
      </trkpt>
      <trkpt lat="49.03633" lon="2.04064">
        <ele>65</ele>
        <time>2017-11-26T14:08:40.000Z</time>
      </trkpt>
      <trkpt lat="49.03622" lon="2.04053">
        <ele>63</ele>
        <time>2017-11-26T14:08:48.000Z</time>
      </trkpt>
      <trkpt lat="49.03612" lon="2.04041">
        <ele>62</ele>
        <time>2017-11-26T14:08:56.000Z</time>
      </trkpt>
      <trkpt lat="49.036" lon="2.04029">
        <ele>65</ele>
        <time>2017-11-26T14:09:04.000Z</time>
      </trkpt>
      <trkpt lat="49.03589" lon="2.0402">
        <ele>65</ele>
        <time>2017-11-26T14:09:12.000Z</time>
      </trkpt>
      <trkpt lat="49.03581" lon="2.04012">
        <ele>63</ele>
        <time>2017-11-26T14:09:18.000Z</time>
      </trkpt>
      <trkpt lat="49.03573" lon="2.04002">
        <ele>64</ele>
        <time>2017-11-26T14:09:24.000Z</time>
      </trkpt>
      <trkpt lat="49.03566" lon="2.03994">
        <ele>64</ele>
        <time>2017-11-26T14:09:29.003Z</time>
      </trkpt>
      <trkpt lat="49.03553" lon="2.03982">
        <ele>62</ele>
        <time>2017-11-26T14:09:37.000Z</time>
      </trkpt>
      <trkpt lat="49.03544" lon="2.03974">
        <ele>62</ele>
        <time>2017-11-26T14:09:43.000Z</time>
      </trkpt>
      <trkpt lat="49.03536" lon="2.03965">
        <ele>61</ele>
        <time>2017-11-26T14:09:49.000Z</time>
      </trkpt>
      <trkpt lat="49.03527" lon="2.03958">
        <ele>62</ele>
        <time>2017-11-26T14:09:55.000Z</time>
      </trkpt>
      <trkpt lat="49.03516" lon="2.03945">
        <ele>61</ele>
        <time>2017-11-26T14:10:03.000Z</time>
      </trkpt>
      <trkpt lat="49.03508" lon="2.03938">
        <ele>62</ele>
        <time>2017-11-26T14:10:08.000Z</time>
      </trkpt>
      <trkpt lat="49.03496" lon="2.03926">
        <ele>62</ele>
        <time>2017-11-26T14:10:16.000Z</time>
      </trkpt>
      <trkpt lat="49.03487" lon="2.03916">
        <ele>63</ele>
        <time>2017-11-26T14:10:22.000Z</time>
      </trkpt>
      <trkpt lat="49.03478" lon="2.03906">
        <ele>62</ele>
        <time>2017-11-26T14:10:29.000Z</time>
      </trkpt>
      <trkpt lat="49.0347" lon="2.03898">
        <ele>63</ele>
        <time>2017-11-26T14:10:34.000Z</time>
      </trkpt>
      <trkpt lat="49.0346" lon="2.03885">
        <ele>63</ele>
        <time>2017-11-26T14:10:42.000Z</time>
      </trkpt>
      <trkpt lat="49.03452" lon="2.03876">
        <ele>62</ele>
        <time>2017-11-26T14:10:48.000Z</time>
      </trkpt>
      <trkpt lat="49.03443" lon="2.03865">
        <ele>62</ele>
        <time>2017-11-26T14:10:55.000Z</time>
      </trkpt>
      <trkpt lat="49.03434" lon="2.03854">
        <ele>63</ele>
        <time>2017-11-26T14:11:01.000Z</time>
      </trkpt>
      <trkpt lat="49.03426" lon="2.03846">
        <ele>62</ele>
        <time>2017-11-26T14:11:07.000Z</time>
      </trkpt>
      <trkpt lat="49.03416" lon="2.03834">
        <ele>63</ele>
        <time>2017-11-26T14:11:14.000Z</time>
      </trkpt>
      <trkpt lat="49.03408" lon="2.03823">
        <ele>64</ele>
        <time>2017-11-26T14:11:21.000Z</time>
      </trkpt>
      <trkpt lat="49.03396" lon="2.03812">
        <ele>64</ele>
        <time>2017-11-26T14:11:29.000Z</time>
      </trkpt>
      <trkpt lat="49.03387" lon="2.03802">
        <ele>63</ele>
        <time>2017-11-26T14:11:35.000Z</time>
      </trkpt>
      <trkpt lat="49.03379" lon="2.03793">
        <ele>64</ele>
        <time>2017-11-26T14:11:40.000Z</time>
      </trkpt>
      <trkpt lat="49.03367" lon="2.03782">
        <ele>63</ele>
        <time>2017-11-26T14:11:49.000Z</time>
      </trkpt>
      <trkpt lat="49.03357" lon="2.03773">
        <ele>65</ele>
        <time>2017-11-26T14:11:56.000Z</time>
      </trkpt>
      <trkpt lat="49.03348" lon="2.03764">
        <ele>65</ele>
        <time>2017-11-26T14:12:02.000Z</time>
      </trkpt>
      <trkpt lat="49.03336" lon="2.03755">
        <ele>65</ele>
        <time>2017-11-26T14:12:10.000Z</time>
      </trkpt>
      <trkpt lat="49.03326" lon="2.03746">
        <ele>65</ele>
        <time>2017-11-26T14:12:17.000Z</time>
      </trkpt>
      <trkpt lat="49.03317" lon="2.03739">
        <ele>65</ele>
        <time>2017-11-26T14:12:23.000Z</time>
      </trkpt>
      <trkpt lat="49.03309" lon="2.03732">
        <ele>65</ele>
        <time>2017-11-26T14:12:29.000Z</time>
      </trkpt>
      <trkpt lat="49.03299" lon="2.03723">
        <ele>63</ele>
        <time>2017-11-26T14:12:37.000Z</time>
      </trkpt>
      <trkpt lat="49.03286" lon="2.03715">
        <ele>63</ele>
        <time>2017-11-26T14:12:45.000Z</time>
      </trkpt>
      <trkpt lat="49.03275" lon="2.03708">
        <ele>63</ele>
        <time>2017-11-26T14:12:53.000Z</time>
      </trkpt>
      <trkpt lat="49.03263" lon="2.03699">
        <ele>63</ele>
        <time>2017-11-26T14:13:01.000Z</time>
      </trkpt>
      <trkpt lat="49.03252" lon="2.03691">
        <ele>64</ele>
        <time>2017-11-26T14:13:08.000Z</time>
      </trkpt>
      <trkpt lat="49.0324" lon="2.03685">
        <ele>64</ele>
        <time>2017-11-26T14:13:16.000Z</time>
      </trkpt>
      <trkpt lat="49.0323" lon="2.03683">
        <ele>63</ele>
        <time>2017-11-26T14:13:22.000Z</time>
      </trkpt>
      <trkpt lat="49.0322" lon="2.03677">
        <ele>64</ele>
        <time>2017-11-26T14:13:28.000Z</time>
      </trkpt>
      <trkpt lat="49.0321" lon="2.03669">
        <ele>63</ele>
        <time>2017-11-26T14:13:35.000Z</time>
      </trkpt>
      <trkpt lat="49.03202" lon="2.03665">
        <ele>62</ele>
        <time>2017-11-26T14:13:41.000Z</time>
      </trkpt>
      <trkpt lat="49.03189" lon="2.03661">
        <ele>61</ele>
        <time>2017-11-26T14:13:49.000Z</time>
      </trkpt>
      <trkpt lat="49.03177" lon="2.03662">
        <ele>61</ele>
        <time>2017-11-26T14:13:57.000Z</time>
      </trkpt>
      <trkpt lat="49.03165" lon="2.03663">
        <ele>61</ele>
        <time>2017-11-26T14:14:04.000Z</time>
      </trkpt>
      <trkpt lat="49.03156" lon="2.03661">
        <ele>62</ele>
        <time>2017-11-26T14:14:10.000Z</time>
      </trkpt>
      <trkpt lat="49.03145" lon="2.0366">
        <ele>61</ele>
        <time>2017-11-26T14:14:17.000Z</time>
      </trkpt>
      <trkpt lat="49.03132" lon="2.03661">
        <ele>62</ele>
        <time>2017-11-26T14:14:25.000Z</time>
      </trkpt>
      <trkpt lat="49.0312" lon="2.03662">
        <ele>62</ele>
        <time>2017-11-26T14:14:32.000Z</time>
      </trkpt>
      <trkpt lat="49.03109" lon="2.03662">
        <ele>62</ele>
        <time>2017-11-26T14:14:39.000Z</time>
      </trkpt>
      <trkpt lat="49.03098" lon="2.03667">
        <ele>61</ele>
        <time>2017-11-26T14:14:45.000Z</time>
      </trkpt>
      <trkpt lat="49.03088" lon="2.03671">
        <ele>64</ele>
        <time>2017-11-26T14:14:50.000Z</time>
      </trkpt>
      <trkpt lat="49.03079" lon="2.03675">
        <ele>62</ele>
        <time>2017-11-26T14:14:57.000Z</time>
      </trkpt>
      <trkpt lat="49.03066" lon="2.03676">
        <ele>61</ele>
        <time>2017-11-26T14:15:05.000Z</time>
      </trkpt>
      <trkpt lat="49.03055" lon="2.03684">
        <ele>62</ele>
        <time>2017-11-26T14:15:12.000Z</time>
      </trkpt>
      <trkpt lat="49.03045" lon="2.03684">
        <ele>62</ele>
        <time>2017-11-26T14:15:18.000Z</time>
      </trkpt>
      <trkpt lat="49.03034" lon="2.03688">
        <ele>64</ele>
        <time>2017-11-26T14:15:24.000Z</time>
      </trkpt>
      <trkpt lat="49.03025" lon="2.03695">
        <ele>65</ele>
        <time>2017-11-26T14:15:28.000Z</time>
      </trkpt>
      <trkpt lat="49.03016" lon="2.03703">
        <ele>64</ele>
        <time>2017-11-26T14:15:34.000Z</time>
      </trkpt>
      <trkpt lat="49.03007" lon="2.03711">
        <ele>64</ele>
        <time>2017-11-26T14:15:41.000Z</time>
      </trkpt>
      <trkpt lat="49.02998" lon="2.03718">
        <ele>63</ele>
        <time>2017-11-26T14:15:48.000Z</time>
      </trkpt>
      <trkpt lat="49.02989" lon="2.03723">
        <ele>63</ele>
        <time>2017-11-26T14:15:53.000Z</time>
      </trkpt>
      <trkpt lat="49.02976" lon="2.03727">
        <ele>63</ele>
        <time>2017-11-26T14:16:02.000Z</time>
      </trkpt>
      <trkpt lat="49.02968" lon="2.03732">
        <ele>64</ele>
        <time>2017-11-26T14:16:07.000Z</time>
      </trkpt>
      <trkpt lat="49.02958" lon="2.03739">
        <ele>61</ele>
        <time>2017-11-26T14:16:14.000Z</time>
      </trkpt>
      <trkpt lat="49.02947" lon="2.03747">
        <ele>62</ele>
        <time>2017-11-26T14:16:21.000Z</time>
      </trkpt>
      <trkpt lat="49.02937" lon="2.03755">
        <ele>62</ele>
        <time>2017-11-26T14:16:28.000Z</time>
      </trkpt>
      <trkpt lat="49.02926" lon="2.03762">
        <ele>63</ele>
        <time>2017-11-26T14:16:35.000Z</time>
      </trkpt>
      <trkpt lat="49.02917" lon="2.03777">
        <ele>64</ele>
        <time>2017-11-26T14:16:42.000Z</time>
      </trkpt>
      <trkpt lat="49.02909" lon="2.03786">
        <ele>64</ele>
        <time>2017-11-26T14:16:48.000Z</time>
      </trkpt>
      <trkpt lat="49.02898" lon="2.03795">
        <ele>63</ele>
        <time>2017-11-26T14:16:54.000Z</time>
      </trkpt>
      <trkpt lat="49.0289" lon="2.03804">
        <ele>60</ele>
        <time>2017-11-26T14:17:01.000Z</time>
      </trkpt>
      <trkpt lat="49.0288" lon="2.03804">
        <ele>61</ele>
        <time>2017-11-26T14:17:08.000Z</time>
      </trkpt>
      <trkpt lat="49.02871" lon="2.03812">
        <ele>59</ele>
        <time>2017-11-26T14:17:15.000Z</time>
      </trkpt>
      <trkpt lat="49.02863" lon="2.0382">
        <ele>59</ele>
        <time>2017-11-26T14:17:20.000Z</time>
      </trkpt>
      <trkpt lat="49.02853" lon="2.03833">
        <ele>58</ele>
        <time>2017-11-26T14:17:26.000Z</time>
      </trkpt>
      <trkpt lat="49.02844" lon="2.03843">
        <ele>59</ele>
        <time>2017-11-26T14:17:31.000Z</time>
      </trkpt>
      <trkpt lat="49.02834" lon="2.03857">
        <ele>59</ele>
        <time>2017-11-26T14:17:39.000Z</time>
      </trkpt>
      <trkpt lat="49.02826" lon="2.03868">
        <ele>58</ele>
        <time>2017-11-26T14:17:44.000Z</time>
      </trkpt>
      <trkpt lat="49.02818" lon="2.03876">
        <ele>59</ele>
        <time>2017-11-26T14:17:49.000Z</time>
      </trkpt>
      <trkpt lat="49.02809" lon="2.03884">
        <ele>57</ele>
        <time>2017-11-26T14:17:55.000Z</time>
      </trkpt>
      <trkpt lat="49.02802" lon="2.03895">
        <ele>60</ele>
        <time>2017-11-26T14:17:58.000Z</time>
      </trkpt>
      <trkpt lat="49.02797" lon="2.03906">
        <ele>60</ele>
        <time>2017-11-26T14:18:00.000Z</time>
      </trkpt>
      <trkpt lat="49.02787" lon="2.03912">
        <ele>55</ele>
        <time>2017-11-26T14:18:09.000Z</time>
      </trkpt>
      <trkpt lat="49.02774" lon="2.03921">
        <ele>56</ele>
        <time>2017-11-26T14:18:19.000Z</time>
      </trkpt>
      <trkpt lat="49.02766" lon="2.03932">
        <ele>55</ele>
        <time>2017-11-26T14:18:26.000Z</time>
      </trkpt>
      <trkpt lat="49.02755" lon="2.03945">
        <ele>53</ele>
        <time>2017-11-26T14:18:34.000Z</time>
      </trkpt>
      <trkpt lat="49.02747" lon="2.03951">
        <ele>52</ele>
        <time>2017-11-26T14:18:40.000Z</time>
      </trkpt>
      <trkpt lat="49.02739" lon="2.03961">
        <ele>56</ele>
        <time>2017-11-26T14:18:45.000Z</time>
      </trkpt>
      <trkpt lat="49.02729" lon="2.0397">
        <ele>58</ele>
        <time>2017-11-26T14:18:53.000Z</time>
      </trkpt>
      <trkpt lat="49.0272" lon="2.03978">
        <ele>58</ele>
        <time>2017-11-26T14:18:59.000Z</time>
      </trkpt>
      <trkpt lat="49.02707" lon="2.03993">
        <ele>59</ele>
        <time>2017-11-26T14:19:06.000Z</time>
      </trkpt>
      <trkpt lat="49.02696" lon="2.04001">
        <ele>55</ele>
        <time>2017-11-26T14:19:14.000Z</time>
      </trkpt>
      <trkpt lat="49.02687" lon="2.04016">
        <ele>54</ele>
        <time>2017-11-26T14:19:19.000Z</time>
      </trkpt>
      <trkpt lat="49.02678" lon="2.04024">
        <ele>56</ele>
        <time>2017-11-26T14:19:27.000Z</time>
      </trkpt>
      <trkpt lat="49.0267" lon="2.04034">
        <ele>59</ele>
        <time>2017-11-26T14:19:32.000Z</time>
      </trkpt>
      <trkpt lat="49.02663" lon="2.04043">
        <ele>59</ele>
        <time>2017-11-26T14:19:37.000Z</time>
      </trkpt>
      <trkpt lat="49.02653" lon="2.04054">
        <ele>60</ele>
        <time>2017-11-26T14:19:45.000Z</time>
      </trkpt>
      <trkpt lat="49.02644" lon="2.04065">
        <ele>61</ele>
        <time>2017-11-26T14:19:50.000Z</time>
      </trkpt>
      <trkpt lat="49.02638" lon="2.04077">
        <ele>58</ele>
        <time>2017-11-26T14:19:57.000Z</time>
      </trkpt>
      <trkpt lat="49.02631" lon="2.04086">
        <ele>60</ele>
        <time>2017-11-26T14:20:02.000Z</time>
      </trkpt>
      <trkpt lat="49.02622" lon="2.04092">
        <ele>63</ele>
        <time>2017-11-26T14:20:10.000Z</time>
      </trkpt>
      <trkpt lat="49.02615" lon="2.041">
        <ele>60</ele>
        <time>2017-11-26T14:20:17.000Z</time>
      </trkpt>
      <trkpt lat="49.02602" lon="2.04113">
        <ele>62</ele>
        <time>2017-11-26T14:20:25.000Z</time>
      </trkpt>
      <trkpt lat="49.02593" lon="2.04123">
        <ele>60</ele>
        <time>2017-11-26T14:20:30.000Z</time>
      </trkpt>
      <trkpt lat="49.02584" lon="2.04129">
        <ele>60</ele>
        <time>2017-11-26T14:20:35.000Z</time>
      </trkpt>
      <trkpt lat="49.02576" lon="2.04138">
        <ele>57</ele>
        <time>2017-11-26T14:20:40.000Z</time>
      </trkpt>
      <trkpt lat="49.02568" lon="2.04143">
        <ele>58</ele>
        <time>2017-11-26T14:20:46.000Z</time>
      </trkpt>
      <trkpt lat="49.02559" lon="2.04152">
        <ele>57</ele>
        <time>2017-11-26T14:20:51.000Z</time>
      </trkpt>
      <trkpt lat="49.02551" lon="2.04159">
        <ele>59</ele>
        <time>2017-11-26T14:20:55.000Z</time>
      </trkpt>
      <trkpt lat="49.02543" lon="2.04164">
        <ele>58</ele>
        <time>2017-11-26T14:21:00.000Z</time>
      </trkpt>
      <trkpt lat="49.02533" lon="2.04168">
        <ele>58</ele>
        <time>2017-11-26T14:21:07.000Z</time>
      </trkpt>
      <trkpt lat="49.02524" lon="2.04172">
        <ele>54</ele>
        <time>2017-11-26T14:21:13.000Z</time>
      </trkpt>
      <trkpt lat="49.02514" lon="2.04178">
        <ele>57</ele>
        <time>2017-11-26T14:21:20.000Z</time>
      </trkpt>
      <trkpt lat="49.02503" lon="2.04186">
        <ele>57</ele>
        <time>2017-11-26T14:21:28.000Z</time>
      </trkpt>
      <trkpt lat="49.02492" lon="2.04193">
        <ele>59</ele>
        <time>2017-11-26T14:21:33.000Z</time>
      </trkpt>
      <trkpt lat="49.02483" lon="2.04198">
        <ele>59</ele>
        <time>2017-11-26T14:21:38.000Z</time>
      </trkpt>
      <trkpt lat="49.02473" lon="2.04203">
        <ele>59</ele>
        <time>2017-11-26T14:21:44.000Z</time>
      </trkpt>
      <trkpt lat="49.02464" lon="2.04206">
        <ele>58</ele>
        <time>2017-11-26T14:21:49.000Z</time>
      </trkpt>
      <trkpt lat="49.0245" lon="2.04213">
        <ele>57</ele>
        <time>2017-11-26T14:21:57.000Z</time>
      </trkpt>
      <trkpt lat="49.0244" lon="2.04218">
        <ele>57</ele>
        <time>2017-11-26T14:22:04.000Z</time>
      </trkpt>
      <trkpt lat="49.0243" lon="2.04223">
        <ele>59</ele>
        <time>2017-11-26T14:22:10.000Z</time>
      </trkpt>
      <trkpt lat="49.02419" lon="2.04231">
        <ele>59</ele>
        <time>2017-11-26T14:22:17.000Z</time>
      </trkpt>
      <trkpt lat="49.02408" lon="2.04237">
        <ele>58</ele>
        <time>2017-11-26T14:22:25.000Z</time>
      </trkpt>
      <trkpt lat="49.02399" lon="2.04242">
        <ele>60</ele>
        <time>2017-11-26T14:22:30.000Z</time>
      </trkpt>
      <trkpt lat="49.0239" lon="2.04241">
        <ele>59</ele>
        <time>2017-11-26T14:22:39.000Z</time>
      </trkpt>
      <trkpt lat="49.02382" lon="2.04249">
        <ele>56</ele>
        <time>2017-11-26T14:22:44.000Z</time>
      </trkpt>
      <trkpt lat="49.02367" lon="2.04261">
        <ele>58</ele>
        <time>2017-11-26T14:22:55.000Z</time>
      </trkpt>
      <trkpt lat="49.02359" lon="2.0427">
        <ele>57</ele>
        <time>2017-11-26T14:23:00.000Z</time>
      </trkpt>
      <trkpt lat="49.0235" lon="2.0428">
        <ele>55</ele>
        <time>2017-11-26T14:23:07.000Z</time>
      </trkpt>
      <trkpt lat="49.0234" lon="2.04286">
        <ele>51</ele>
        <time>2017-11-26T14:23:12.000Z</time>
      </trkpt>
      <trkpt lat="49.02329" lon="2.04294">
        <ele>53</ele>
        <time>2017-11-26T14:23:20.000Z</time>
      </trkpt>
      <trkpt lat="49.02319" lon="2.04303">
        <ele>58</ele>
        <time>2017-11-26T14:23:27.000Z</time>
      </trkpt>
      <trkpt lat="49.02309" lon="2.04314">
        <ele>61</ele>
        <time>2017-11-26T14:23:34.000Z</time>
      </trkpt>
      <trkpt lat="49.02302" lon="2.04326">
        <ele>61</ele>
        <time>2017-11-26T14:23:40.000Z</time>
      </trkpt>
      <trkpt lat="49.02294" lon="2.04335">
        <ele>57</ele>
        <time>2017-11-26T14:23:45.000Z</time>
      </trkpt>
      <trkpt lat="49.02285" lon="2.04344">
        <ele>55</ele>
        <time>2017-11-26T14:23:51.000Z</time>
      </trkpt>
      <trkpt lat="49.02274" lon="2.04351">
        <ele>58</ele>
        <time>2017-11-26T14:23:57.000Z</time>
      </trkpt>
      <trkpt lat="49.02267" lon="2.0436">
        <ele>58</ele>
        <time>2017-11-26T14:24:02.000Z</time>
      </trkpt>
      <trkpt lat="49.02259" lon="2.04369">
        <ele>56</ele>
        <time>2017-11-26T14:24:09.000Z</time>
      </trkpt>
      <trkpt lat="49.0225" lon="2.04377">
        <ele>57</ele>
        <time>2017-11-26T14:24:14.000Z</time>
      </trkpt>
      <trkpt lat="49.02243" lon="2.04387">
        <ele>57</ele>
        <time>2017-11-26T14:24:19.000Z</time>
      </trkpt>
      <trkpt lat="49.02235" lon="2.04397">
        <ele>55</ele>
        <time>2017-11-26T14:24:24.000Z</time>
      </trkpt>
      <trkpt lat="49.02229" lon="2.04406">
        <ele>55</ele>
        <time>2017-11-26T14:24:29.000Z</time>
      </trkpt>
      <trkpt lat="49.02218" lon="2.04425">
        <ele>56</ele>
        <time>2017-11-26T14:24:37.000Z</time>
      </trkpt>
      <trkpt lat="49.0221" lon="2.04436">
        <ele>58</ele>
        <time>2017-11-26T14:24:44.000Z</time>
      </trkpt>
      <trkpt lat="49.022" lon="2.04449">
        <ele>55</ele>
        <time>2017-11-26T14:24:50.000Z</time>
      </trkpt>
      <trkpt lat="49.02193" lon="2.0446">
        <ele>56</ele>
        <time>2017-11-26T14:24:57.000Z</time>
      </trkpt>
      <trkpt lat="49.02185" lon="2.04471">
        <ele>57</ele>
        <time>2017-11-26T14:25:02.000Z</time>
      </trkpt>
      <trkpt lat="49.02177" lon="2.04486">
        <ele>58</ele>
        <time>2017-11-26T14:25:08.000Z</time>
      </trkpt>
      <trkpt lat="49.02169" lon="2.04495">
        <ele>57</ele>
        <time>2017-11-26T14:25:15.000Z</time>
      </trkpt>
      <trkpt lat="49.02161" lon="2.04508">
        <ele>58</ele>
        <time>2017-11-26T14:25:21.000Z</time>
      </trkpt>
      <trkpt lat="49.02151" lon="2.04523">
        <ele>59</ele>
        <time>2017-11-26T14:25:28.000Z</time>
      </trkpt>
      <trkpt lat="49.02139" lon="2.04538">
        <ele>58</ele>
        <time>2017-11-26T14:25:36.000Z</time>
      </trkpt>
      <trkpt lat="49.02129" lon="2.04549">
        <ele>58</ele>
        <time>2017-11-26T14:25:42.000Z</time>
      </trkpt>
      <trkpt lat="49.02123" lon="2.0456">
        <ele>58</ele>
        <time>2017-11-26T14:25:50.000Z</time>
      </trkpt>
      <trkpt lat="49.02115" lon="2.04572">
        <ele>57</ele>
        <time>2017-11-26T14:25:55.000Z</time>
      </trkpt>
      <trkpt lat="49.02105" lon="2.04584">
        <ele>59</ele>
        <time>2017-11-26T14:26:02.000Z</time>
      </trkpt>
      <trkpt lat="49.02098" lon="2.04595">
        <ele>59</ele>
        <time>2017-11-26T14:26:09.000Z</time>
      </trkpt>
      <trkpt lat="49.02086" lon="2.04607">
        <ele>59</ele>
        <time>2017-11-26T14:26:16.000Z</time>
      </trkpt>
      <trkpt lat="49.02078" lon="2.04622">
        <ele>61</ele>
        <time>2017-11-26T14:26:24.000Z</time>
      </trkpt>
      <trkpt lat="49.02071" lon="2.04635">
        <ele>63</ele>
        <time>2017-11-26T14:26:29.000Z</time>
      </trkpt>
      <trkpt lat="49.02062" lon="2.04646">
        <ele>63</ele>
        <time>2017-11-26T14:26:35.000Z</time>
      </trkpt>
      <trkpt lat="49.02053" lon="2.04658">
        <ele>64</ele>
        <time>2017-11-26T14:26:42.000Z</time>
      </trkpt>
      <trkpt lat="49.02045" lon="2.04667">
        <ele>62</ele>
        <time>2017-11-26T14:26:47.000Z</time>
      </trkpt>
      <trkpt lat="49.02032" lon="2.04682">
        <ele>62</ele>
        <time>2017-11-26T14:26:55.000Z</time>
      </trkpt>
      <trkpt lat="49.02025" lon="2.04693">
        <ele>63</ele>
        <time>2017-11-26T14:27:01.000Z</time>
      </trkpt>
      <trkpt lat="49.02016" lon="2.04701">
        <ele>62</ele>
        <time>2017-11-26T14:27:10.000Z</time>
      </trkpt>
      <trkpt lat="49.02004" lon="2.04712">
        <ele>60</ele>
        <time>2017-11-26T14:27:20.000Z</time>
      </trkpt>
      <trkpt lat="49.01995" lon="2.04725">
        <ele>60</ele>
        <time>2017-11-26T14:27:25.000Z</time>
      </trkpt>
      <trkpt lat="49.01984" lon="2.04738">
        <ele>60</ele>
        <time>2017-11-26T14:27:33.000Z</time>
      </trkpt>
      <trkpt lat="49.01975" lon="2.04749">
        <ele>60</ele>
        <time>2017-11-26T14:27:40.000Z</time>
      </trkpt>
      <trkpt lat="49.0197" lon="2.04759">
        <ele>59</ele>
        <time>2017-11-26T14:27:45.000Z</time>
      </trkpt>
      <trkpt lat="49.01959" lon="2.04771">
        <ele>59</ele>
        <time>2017-11-26T14:27:51.000Z</time>
      </trkpt>
      <trkpt lat="49.01951" lon="2.0478">
        <ele>59</ele>
        <time>2017-11-26T14:27:56.000Z</time>
      </trkpt>
      <trkpt lat="49.01944" lon="2.04789">
        <ele>59</ele>
        <time>2017-11-26T14:28:01.000Z</time>
      </trkpt>
      <trkpt lat="49.01935" lon="2.048">
        <ele>59</ele>
        <time>2017-11-26T14:28:08.000Z</time>
      </trkpt>
      <trkpt lat="49.01924" lon="2.04813">
        <ele>58</ele>
        <time>2017-11-26T14:28:15.000Z</time>
      </trkpt>
      <trkpt lat="49.01914" lon="2.04824">
        <ele>53</ele>
        <time>2017-11-26T14:28:20.000Z</time>
      </trkpt>
      <trkpt lat="49.01907" lon="2.0484">
        <ele>56</ele>
        <time>2017-11-26T14:28:28.000Z</time>
      </trkpt>
      <trkpt lat="49.01897" lon="2.04848">
        <ele>56</ele>
        <time>2017-11-26T14:28:34.000Z</time>
      </trkpt>
      <trkpt lat="49.01891" lon="2.04857">
        <ele>57</ele>
        <time>2017-11-26T14:28:41.000Z</time>
      </trkpt>
      <trkpt lat="49.01885" lon="2.0487">
        <ele>58</ele>
        <time>2017-11-26T14:28:44.000Z</time>
      </trkpt>
      <trkpt lat="49.01876" lon="2.04882">
        <ele>58</ele>
        <time>2017-11-26T14:28:50.000Z</time>
      </trkpt>
      <trkpt lat="49.01871" lon="2.04896">
        <ele>58</ele>
        <time>2017-11-26T14:28:57.000Z</time>
      </trkpt>
      <trkpt lat="49.01859" lon="2.04908">
        <ele>53</ele>
        <time>2017-11-26T14:29:04.000Z</time>
      </trkpt>
      <trkpt lat="49.01852" lon="2.04922">
        <ele>53</ele>
        <time>2017-11-26T14:29:11.000Z</time>
      </trkpt>
      <trkpt lat="49.01843" lon="2.04934">
        <ele>53</ele>
        <time>2017-11-26T14:29:18.000Z</time>
      </trkpt>
      <trkpt lat="49.01835" lon="2.04947">
        <ele>58</ele>
        <time>2017-11-26T14:29:25.000Z</time>
      </trkpt>
      <trkpt lat="49.0183" lon="2.04962">
        <ele>58</ele>
        <time>2017-11-26T14:29:31.000Z</time>
      </trkpt>
      <trkpt lat="49.01821" lon="2.04975">
        <ele>57</ele>
        <time>2017-11-26T14:29:36.000Z</time>
      </trkpt>
      <trkpt lat="49.01814" lon="2.04986">
        <ele>58</ele>
        <time>2017-11-26T14:29:43.000Z</time>
      </trkpt>
      <trkpt lat="49.01806" lon="2.05001">
        <ele>58</ele>
        <time>2017-11-26T14:29:48.000Z</time>
      </trkpt>
      <trkpt lat="49.01799" lon="2.05012">
        <ele>56</ele>
        <time>2017-11-26T14:29:55.000Z</time>
      </trkpt>
      <trkpt lat="49.01792" lon="2.05022">
        <ele>57</ele>
        <time>2017-11-26T14:30:00.000Z</time>
      </trkpt>
      <trkpt lat="49.01784" lon="2.05034">
        <ele>58</ele>
        <time>2017-11-26T14:30:05.000Z</time>
      </trkpt>
      <trkpt lat="49.01775" lon="2.05045">
        <ele>57</ele>
        <time>2017-11-26T14:30:11.000Z</time>
      </trkpt>
      <trkpt lat="49.0177" lon="2.05058">
        <ele>57</ele>
        <time>2017-11-26T14:30:17.000Z</time>
      </trkpt>
      <trkpt lat="49.01764" lon="2.05069">
        <ele>59</ele>
        <time>2017-11-26T14:30:22.000Z</time>
      </trkpt>
      <trkpt lat="49.01756" lon="2.05078">
        <ele>58</ele>
        <time>2017-11-26T14:30:27.000Z</time>
      </trkpt>
      <trkpt lat="49.01749" lon="2.0509">
        <ele>53</ele>
        <time>2017-11-26T14:30:32.000Z</time>
      </trkpt>
      <trkpt lat="49.01741" lon="2.051">
        <ele>54</ele>
        <time>2017-11-26T14:30:37.000Z</time>
      </trkpt>
      <trkpt lat="49.01734" lon="2.05113">
        <ele>54</ele>
        <time>2017-11-26T14:30:43.000Z</time>
      </trkpt>
      <trkpt lat="49.01727" lon="2.05121">
        <ele>55</ele>
        <time>2017-11-26T14:30:48.000Z</time>
      </trkpt>
      <trkpt lat="49.01716" lon="2.05137">
        <ele>58</ele>
        <time>2017-11-26T14:30:56.000Z</time>
      </trkpt>
      <trkpt lat="49.01709" lon="2.05148">
        <ele>60</ele>
        <time>2017-11-26T14:31:00.000Z</time>
      </trkpt>
      <trkpt lat="49.01703" lon="2.05159">
        <ele>61</ele>
        <time>2017-11-26T14:31:04.000Z</time>
      </trkpt>
      <trkpt lat="49.01696" lon="2.05171">
        <ele>61</ele>
        <time>2017-11-26T14:31:11.000Z</time>
      </trkpt>
      <trkpt lat="49.01688" lon="2.05182">
        <ele>62</ele>
        <time>2017-11-26T14:31:17.000Z</time>
      </trkpt>
      <trkpt lat="49.01681" lon="2.05194">
        <ele>59</ele>
        <time>2017-11-26T14:31:23.000Z</time>
      </trkpt>
      <trkpt lat="49.01674" lon="2.05205">
        <ele>57</ele>
        <time>2017-11-26T14:31:32.000Z</time>
      </trkpt>
      <trkpt lat="49.01662" lon="2.0522">
        <ele>56</ele>
        <time>2017-11-26T14:31:39.000Z</time>
      </trkpt>
      <trkpt lat="49.01656" lon="2.05234">
        <ele>56</ele>
        <time>2017-11-26T14:31:45.000Z</time>
      </trkpt>
      <trkpt lat="49.0165" lon="2.0525">
        <ele>57</ele>
        <time>2017-11-26T14:31:51.000Z</time>
      </trkpt>
      <trkpt lat="49.01642" lon="2.05259">
        <ele>55</ele>
        <time>2017-11-26T14:31:58.000Z</time>
      </trkpt>
      <trkpt lat="49.01637" lon="2.05274">
        <ele>57</ele>
        <time>2017-11-26T14:32:04.000Z</time>
      </trkpt>
      <trkpt lat="49.01629" lon="2.05283">
        <ele>58</ele>
        <time>2017-11-26T14:32:10.000Z</time>
      </trkpt>
      <trkpt lat="49.01625" lon="2.05296">
        <ele>59</ele>
        <time>2017-11-26T14:32:16.000Z</time>
      </trkpt>
      <trkpt lat="49.01616" lon="2.05313">
        <ele>56</ele>
        <time>2017-11-26T14:32:24.000Z</time>
      </trkpt>
      <trkpt lat="49.01611" lon="2.05326">
        <ele>57</ele>
        <time>2017-11-26T14:32:31.000Z</time>
      </trkpt>
      <trkpt lat="49.01604" lon="2.05337">
        <ele>58</ele>
        <time>2017-11-26T14:32:38.556Z</time>
      </trkpt>
      <trkpt lat="49.01596" lon="2.05352">
        <ele>61</ele>
        <time>2017-11-26T14:32:45.000Z</time>
      </trkpt>
      <trkpt lat="49.01589" lon="2.05364">
        <ele>61</ele>
        <time>2017-11-26T14:32:51.000Z</time>
      </trkpt>
      <trkpt lat="49.01582" lon="2.05374">
        <ele>60</ele>
        <time>2017-11-26T14:32:57.000Z</time>
      </trkpt>
      <trkpt lat="49.01576" lon="2.05384">
        <ele>59</ele>
        <time>2017-11-26T14:33:01.000Z</time>
      </trkpt>
      <trkpt lat="49.0157" lon="2.05398">
        <ele>64</ele>
        <time>2017-11-26T14:33:08.000Z</time>
      </trkpt>
      <trkpt lat="49.01561" lon="2.05412">
        <ele>66</ele>
        <time>2017-11-26T14:33:16.000Z</time>
      </trkpt>
      <trkpt lat="49.01553" lon="2.05422">
        <ele>65</ele>
        <time>2017-11-26T14:33:21.000Z</time>
      </trkpt>
      <trkpt lat="49.01547" lon="2.05436">
        <ele>62</ele>
        <time>2017-11-26T14:33:29.000Z</time>
      </trkpt>
      <trkpt lat="49.01537" lon="2.05452">
        <ele>63</ele>
        <time>2017-11-26T14:33:38.000Z</time>
      </trkpt>
      <trkpt lat="49.01529" lon="2.05462">
        <ele>61</ele>
        <time>2017-11-26T14:33:43.000Z</time>
      </trkpt>
      <trkpt lat="49.01524" lon="2.05473">
        <ele>60</ele>
        <time>2017-11-26T14:33:49.000Z</time>
      </trkpt>
      <trkpt lat="49.01518" lon="2.05483">
        <ele>60</ele>
        <time>2017-11-26T14:33:54.000Z</time>
      </trkpt>
      <trkpt lat="49.01508" lon="2.055">
        <ele>60</ele>
        <time>2017-11-26T14:34:00.000Z</time>
      </trkpt>
      <trkpt lat="49.015" lon="2.05508">
        <ele>61</ele>
        <time>2017-11-26T14:34:07.000Z</time>
      </trkpt>
      <trkpt lat="49.01493" lon="2.05519">
        <ele>62</ele>
        <time>2017-11-26T14:34:13.000Z</time>
      </trkpt>
      <trkpt lat="49.01485" lon="2.05527">
        <ele>60</ele>
        <time>2017-11-26T14:34:18.000Z</time>
      </trkpt>
      <trkpt lat="49.01478" lon="2.05537">
        <ele>62</ele>
        <time>2017-11-26T14:34:23.000Z</time>
      </trkpt>
      <trkpt lat="49.01472" lon="2.0555">
        <ele>63</ele>
        <time>2017-11-26T14:34:29.000Z</time>
      </trkpt>
      <trkpt lat="49.01464" lon="2.05559">
        <ele>63</ele>
        <time>2017-11-26T14:34:35.000Z</time>
      </trkpt>
      <trkpt lat="49.01457" lon="2.0557">
        <ele>66</ele>
        <time>2017-11-26T14:34:40.000Z</time>
      </trkpt>
      <trkpt lat="49.0145" lon="2.05581">
        <ele>68</ele>
        <time>2017-11-26T14:34:45.000Z</time>
      </trkpt>
      <trkpt lat="49.01442" lon="2.05592">
        <ele>69</ele>
        <time>2017-11-26T14:34:50.000Z</time>
      </trkpt>
      <trkpt lat="49.01436" lon="2.05603">
        <ele>68</ele>
        <time>2017-11-26T14:34:57.000Z</time>
      </trkpt>
      <trkpt lat="49.01427" lon="2.05613">
        <ele>68</ele>
        <time>2017-11-26T14:35:02.000Z</time>
      </trkpt>
      <trkpt lat="49.01419" lon="2.05622">
        <ele>67</ele>
        <time>2017-11-26T14:35:07.000Z</time>
      </trkpt>
      <trkpt lat="49.01411" lon="2.05633">
        <ele>67</ele>
        <time>2017-11-26T14:35:13.000Z</time>
      </trkpt>
      <trkpt lat="49.01404" lon="2.05644">
        <ele>65</ele>
        <time>2017-11-26T14:35:19.000Z</time>
      </trkpt>
      <trkpt lat="49.01394" lon="2.05653">
        <ele>64</ele>
        <time>2017-11-26T14:35:24.000Z</time>
      </trkpt>
      <trkpt lat="49.01384" lon="2.05668">
        <ele>64</ele>
        <time>2017-11-26T14:35:33.000Z</time>
      </trkpt>
      <trkpt lat="49.01376" lon="2.05675">
        <ele>54</ele>
        <time>2017-11-26T14:35:40.000Z</time>
      </trkpt>
      <trkpt lat="49.01368" lon="2.05681">
        <ele>55</ele>
        <time>2017-11-26T14:35:45.000Z</time>
      </trkpt>
      <trkpt lat="49.0136" lon="2.05688">
        <ele>56</ele>
        <time>2017-11-26T14:35:49.000Z</time>
      </trkpt>
      <trkpt lat="49.01353" lon="2.05697">
        <ele>56</ele>
        <time>2017-11-26T14:35:53.000Z</time>
      </trkpt>
      <trkpt lat="49.01347" lon="2.0571">
        <ele>59</ele>
        <time>2017-11-26T14:35:58.000Z</time>
      </trkpt>
      <trkpt lat="49.01339" lon="2.05719">
        <ele>61</ele>
        <time>2017-11-26T14:36:06.000Z</time>
      </trkpt>
      <trkpt lat="49.01333" lon="2.05735">
        <ele>63</ele>
        <time>2017-11-26T14:36:10.000Z</time>
      </trkpt>
      <trkpt lat="49.01326" lon="2.05745">
        <ele>65</ele>
        <time>2017-11-26T14:36:15.524Z</time>
      </trkpt>
      <trkpt lat="49.01318" lon="2.05754">
        <ele>66</ele>
        <time>2017-11-26T14:36:21.000Z</time>
      </trkpt>
      <trkpt lat="49.01309" lon="2.05764">
        <ele>66</ele>
        <time>2017-11-26T14:36:27.000Z</time>
      </trkpt>
      <trkpt lat="49.01302" lon="2.05775">
        <ele>65</ele>
        <time>2017-11-26T14:36:32.000Z</time>
      </trkpt>
      <trkpt lat="49.01295" lon="2.05784">
        <ele>65</ele>
        <time>2017-11-26T14:36:37.000Z</time>
      </trkpt>
      <trkpt lat="49.01286" lon="2.05796">
        <ele>64</ele>
        <time>2017-11-26T14:36:43.000Z</time>
      </trkpt>
      <trkpt lat="49.01277" lon="2.05804">
        <ele>62</ele>
        <time>2017-11-26T14:36:47.000Z</time>
      </trkpt>
      <trkpt lat="49.01271" lon="2.05815">
        <ele>65</ele>
        <time>2017-11-26T14:36:52.000Z</time>
      </trkpt>
      <trkpt lat="49.0126" lon="2.0583">
        <ele>65</ele>
        <time>2017-11-26T14:37:00.000Z</time>
      </trkpt>
      <trkpt lat="49.01251" lon="2.05841">
        <ele>64</ele>
        <time>2017-11-26T14:37:07.000Z</time>
      </trkpt>
      <trkpt lat="49.01243" lon="2.0585">
        <ele>61</ele>
        <time>2017-11-26T14:37:14.000Z</time>
      </trkpt>
      <trkpt lat="49.01234" lon="2.0586">
        <ele>60</ele>
        <time>2017-11-26T14:37:19.000Z</time>
      </trkpt>
      <trkpt lat="49.01225" lon="2.05872">
        <ele>61</ele>
        <time>2017-11-26T14:37:25.000Z</time>
      </trkpt>
      <trkpt lat="49.01218" lon="2.05885">
        <ele>63</ele>
        <time>2017-11-26T14:37:30.000Z</time>
      </trkpt>
      <trkpt lat="49.01209" lon="2.05896">
        <ele>63</ele>
        <time>2017-11-26T14:37:36.000Z</time>
      </trkpt>
      <trkpt lat="49.01199" lon="2.05907">
        <ele>59</ele>
        <time>2017-11-26T14:37:42.000Z</time>
      </trkpt>
      <trkpt lat="49.01191" lon="2.05918">
        <ele>59</ele>
        <time>2017-11-26T14:37:50.000Z</time>
      </trkpt>
      <trkpt lat="49.01183" lon="2.05924">
        <ele>57</ele>
        <time>2017-11-26T14:37:55.000Z</time>
      </trkpt>
      <trkpt lat="49.01175" lon="2.05939">
        <ele>60</ele>
        <time>2017-11-26T14:38:02.000Z</time>
      </trkpt>
      <trkpt lat="49.01169" lon="2.05951">
        <ele>60</ele>
        <time>2017-11-26T14:38:07.000Z</time>
      </trkpt>
      <trkpt lat="49.01159" lon="2.05971">
        <ele>66</ele>
        <time>2017-11-26T14:38:15.000Z</time>
      </trkpt>
      <trkpt lat="49.01153" lon="2.05983">
        <ele>68</ele>
        <time>2017-11-26T14:38:20.000Z</time>
      </trkpt>
      <trkpt lat="49.01144" lon="2.05993">
        <ele>66</ele>
        <time>2017-11-26T14:38:27.000Z</time>
      </trkpt>
      <trkpt lat="49.01135" lon="2.06003">
        <ele>66</ele>
        <time>2017-11-26T14:38:32.000Z</time>
      </trkpt>
      <trkpt lat="49.01128" lon="2.06016">
        <ele>64</ele>
        <time>2017-11-26T14:38:36.000Z</time>
      </trkpt>
      <trkpt lat="49.0112" lon="2.06023">
        <ele>64</ele>
        <time>2017-11-26T14:38:42.000Z</time>
      </trkpt>
      <trkpt lat="49.01112" lon="2.06041">
        <ele>67</ele>
        <time>2017-11-26T14:38:48.000Z</time>
      </trkpt>
      <trkpt lat="49.01104" lon="2.06052">
        <ele>66</ele>
        <time>2017-11-26T14:38:56.000Z</time>
      </trkpt>
      <trkpt lat="49.01096" lon="2.06061">
        <ele>63</ele>
        <time>2017-11-26T14:39:06.000Z</time>
      </trkpt>
      <trkpt lat="49.01087" lon="2.06076">
        <ele>64</ele>
        <time>2017-11-26T14:39:11.000Z</time>
      </trkpt>
      <trkpt lat="49.01083" lon="2.06091">
        <ele>64</ele>
        <time>2017-11-26T14:39:16.000Z</time>
      </trkpt>
      <trkpt lat="49.01072" lon="2.061">
        <ele>61</ele>
        <time>2017-11-26T14:39:22.000Z</time>
      </trkpt>
      <trkpt lat="49.01061" lon="2.06114">
        <ele>59</ele>
        <time>2017-11-26T14:39:30.000Z</time>
      </trkpt>
      <trkpt lat="49.01053" lon="2.06128">
        <ele>62</ele>
        <time>2017-11-26T14:39:37.000Z</time>
      </trkpt>
      <trkpt lat="49.01046" lon="2.06139">
        <ele>64</ele>
        <time>2017-11-26T14:39:41.000Z</time>
      </trkpt>
      <trkpt lat="49.01037" lon="2.0615">
        <ele>61</ele>
        <time>2017-11-26T14:39:48.000Z</time>
      </trkpt>
      <trkpt lat="49.01029" lon="2.0616">
        <ele>63</ele>
        <time>2017-11-26T14:39:55.000Z</time>
      </trkpt>
      <trkpt lat="49.0102" lon="2.06174">
        <ele>64</ele>
        <time>2017-11-26T14:40:03.000Z</time>
      </trkpt>
      <trkpt lat="49.01011" lon="2.06186">
        <ele>63</ele>
        <time>2017-11-26T14:40:10.000Z</time>
      </trkpt>
      <trkpt lat="49.01003" lon="2.06195">
        <ele>64</ele>
        <time>2017-11-26T14:40:15.000Z</time>
      </trkpt>
      <trkpt lat="49.00995" lon="2.06203">
        <ele>64</ele>
        <time>2017-11-26T14:40:19.000Z</time>
      </trkpt>
      <trkpt lat="49.00986" lon="2.06215">
        <ele>60</ele>
        <time>2017-11-26T14:40:26.000Z</time>
      </trkpt>
      <trkpt lat="49.00974" lon="2.06228">
        <ele>57</ele>
        <time>2017-11-26T14:40:34.000Z</time>
      </trkpt>
      <trkpt lat="49.00968" lon="2.06241">
        <ele>58</ele>
        <time>2017-11-26T14:40:39.000Z</time>
      </trkpt>
      <trkpt lat="49.00961" lon="2.06251">
        <ele>56</ele>
        <time>2017-11-26T14:40:44.000Z</time>
      </trkpt>
      <trkpt lat="49.00954" lon="2.06264">
        <ele>59</ele>
        <time>2017-11-26T14:40:50.000Z</time>
      </trkpt>
      <trkpt lat="49.00943" lon="2.06282">
        <ele>61</ele>
        <time>2017-11-26T14:40:58.000Z</time>
      </trkpt>
      <trkpt lat="49.00935" lon="2.06295">
        <ele>62</ele>
        <time>2017-11-26T14:41:05.000Z</time>
      </trkpt>
      <trkpt lat="49.00924" lon="2.06313">
        <ele>62</ele>
        <time>2017-11-26T14:41:13.000Z</time>
      </trkpt>
      <trkpt lat="49.00916" lon="2.06321">
        <ele>60</ele>
        <time>2017-11-26T14:41:19.000Z</time>
      </trkpt>
      <trkpt lat="49.00907" lon="2.06342">
        <ele>63</ele>
        <time>2017-11-26T14:41:25.000Z</time>
      </trkpt>
      <trkpt lat="49.00899" lon="2.0635">
        <ele>61</ele>
        <time>2017-11-26T14:41:30.000Z</time>
      </trkpt>
      <trkpt lat="49.00891" lon="2.06362">
        <ele>63</ele>
        <time>2017-11-26T14:41:37.000Z</time>
      </trkpt>
      <trkpt lat="49.00882" lon="2.06374">
        <ele>63</ele>
        <time>2017-11-26T14:41:42.000Z</time>
      </trkpt>
      <trkpt lat="49.00875" lon="2.06385">
        <ele>62</ele>
        <time>2017-11-26T14:41:52.000Z</time>
      </trkpt>
      <trkpt lat="49.00867" lon="2.06395">
        <ele>62</ele>
        <time>2017-11-26T14:41:57.000Z</time>
      </trkpt>
      <trkpt lat="49.00859" lon="2.06407">
        <ele>63</ele>
        <time>2017-11-26T14:42:03.000Z</time>
      </trkpt>
      <trkpt lat="49.00851" lon="2.06422">
        <ele>62</ele>
        <time>2017-11-26T14:42:08.000Z</time>
      </trkpt>
      <trkpt lat="49.00842" lon="2.06435">
        <ele>59</ele>
        <time>2017-11-26T14:42:16.000Z</time>
      </trkpt>
      <trkpt lat="49.00835" lon="2.06446">
        <ele>59</ele>
        <time>2017-11-26T14:42:21.000Z</time>
      </trkpt>
      <trkpt lat="49.00826" lon="2.06457">
        <ele>60</ele>
        <time>2017-11-26T14:42:28.000Z</time>
      </trkpt>
      <trkpt lat="49.00814" lon="2.06473">
        <ele>60</ele>
        <time>2017-11-26T14:42:35.000Z</time>
      </trkpt>
      <trkpt lat="49.00808" lon="2.06484">
        <ele>60</ele>
        <time>2017-11-26T14:42:41.000Z</time>
      </trkpt>
      <trkpt lat="49.00801" lon="2.06495">
        <ele>60</ele>
        <time>2017-11-26T14:42:46.000Z</time>
      </trkpt>
      <trkpt lat="49.00794" lon="2.06507">
        <ele>61</ele>
        <time>2017-11-26T14:42:52.000Z</time>
      </trkpt>
      <trkpt lat="49.00787" lon="2.06516">
        <ele>62</ele>
        <time>2017-11-26T14:42:58.000Z</time>
      </trkpt>
      <trkpt lat="49.00779" lon="2.06532">
        <ele>63</ele>
        <time>2017-11-26T14:43:03.000Z</time>
      </trkpt>
      <trkpt lat="49.00769" lon="2.06548">
        <ele>64</ele>
        <time>2017-11-26T14:43:11.000Z</time>
      </trkpt>
      <trkpt lat="49.00761" lon="2.06557">
        <ele>63</ele>
        <time>2017-11-26T14:43:16.000Z</time>
      </trkpt>
      <trkpt lat="49.00753" lon="2.06567">
        <ele>66</ele>
        <time>2017-11-26T14:43:24.000Z</time>
      </trkpt>
      <trkpt lat="49.00748" lon="2.06583">
        <ele>61</ele>
        <time>2017-11-26T14:43:29.000Z</time>
      </trkpt>
      <trkpt lat="49.00737" lon="2.06595">
        <ele>57</ele>
        <time>2017-11-26T14:43:36.000Z</time>
      </trkpt>
      <trkpt lat="49.00729" lon="2.06606">
        <ele>57</ele>
        <time>2017-11-26T14:43:43.000Z</time>
      </trkpt>
      <trkpt lat="49.00721" lon="2.06621">
        <ele>64</ele>
        <time>2017-11-26T14:43:49.000Z</time>
      </trkpt>
      <trkpt lat="49.00715" lon="2.06635">
        <ele>69</ele>
        <time>2017-11-26T14:43:54.000Z</time>
      </trkpt>
      <trkpt lat="49.00707" lon="2.06647">
        <ele>69</ele>
        <time>2017-11-26T14:44:01.000Z</time>
      </trkpt>
      <trkpt lat="49.00699" lon="2.06658">
        <ele>67</ele>
        <time>2017-11-26T14:44:09.000Z</time>
      </trkpt>
      <trkpt lat="49.00692" lon="2.0667">
        <ele>66</ele>
        <time>2017-11-26T14:44:14.000Z</time>
      </trkpt>
      <trkpt lat="49.00686" lon="2.06681">
        <ele>65</ele>
        <time>2017-11-26T14:44:19.000Z</time>
      </trkpt>
      <trkpt lat="49.00678" lon="2.06692">
        <ele>62</ele>
        <time>2017-11-26T14:44:23.000Z</time>
      </trkpt>
      <trkpt lat="49.00673" lon="2.06706">
        <ele>64</ele>
        <time>2017-11-26T14:44:29.000Z</time>
      </trkpt>
      <trkpt lat="49.00666" lon="2.0672">
        <ele>65</ele>
        <time>2017-11-26T14:44:35.000Z</time>
      </trkpt>
      <trkpt lat="49.00657" lon="2.0673">
        <ele>63</ele>
        <time>2017-11-26T14:44:40.000Z</time>
      </trkpt>
      <trkpt lat="49.00645" lon="2.06743">
        <ele>63</ele>
        <time>2017-11-26T14:44:50.000Z</time>
      </trkpt>
      <trkpt lat="49.0064" lon="2.06755">
        <ele>63</ele>
        <time>2017-11-26T14:44:56.000Z</time>
      </trkpt>
      <trkpt lat="49.00631" lon="2.06768">
        <ele>64</ele>
        <time>2017-11-26T14:45:03.000Z</time>
      </trkpt>
      <trkpt lat="49.00624" lon="2.06777">
        <ele>63</ele>
        <time>2017-11-26T14:45:08.000Z</time>
      </trkpt>
      <trkpt lat="49.00618" lon="2.06787">
        <ele>62</ele>
        <time>2017-11-26T14:45:13.000Z</time>
      </trkpt>
      <trkpt lat="49.00608" lon="2.06795">
        <ele>63</ele>
        <time>2017-11-26T14:45:19.000Z</time>
      </trkpt>
      <trkpt lat="49.00598" lon="2.06807">
        <ele>62</ele>
        <time>2017-11-26T14:45:25.000Z</time>
      </trkpt>
      <trkpt lat="49.00592" lon="2.06819">
        <ele>63</ele>
        <time>2017-11-26T14:45:30.000Z</time>
      </trkpt>
      <trkpt lat="49.00584" lon="2.06826">
        <ele>60</ele>
        <time>2017-11-26T14:45:36.000Z</time>
      </trkpt>
      <trkpt lat="49.00574" lon="2.06838">
        <ele>64</ele>
        <time>2017-11-26T14:45:42.000Z</time>
      </trkpt>
      <trkpt lat="49.00566" lon="2.06846">
        <ele>62</ele>
        <time>2017-11-26T14:45:48.000Z</time>
      </trkpt>
      <trkpt lat="49.00558" lon="2.06856">
        <ele>61</ele>
        <time>2017-11-26T14:45:55.000Z</time>
      </trkpt>
      <trkpt lat="49.0055" lon="2.06864">
        <ele>60</ele>
        <time>2017-11-26T14:46:00.000Z</time>
      </trkpt>
      <trkpt lat="49.00542" lon="2.06874">
        <ele>62</ele>
        <time>2017-11-26T14:46:05.000Z</time>
      </trkpt>
      <trkpt lat="49.00531" lon="2.06888">
        <ele>61</ele>
        <time>2017-11-26T14:46:11.000Z</time>
      </trkpt>
      <trkpt lat="49.00522" lon="2.06897">
        <ele>63</ele>
        <time>2017-11-26T14:46:19.000Z</time>
      </trkpt>
      <trkpt lat="49.00511" lon="2.06907">
        <ele>64</ele>
        <time>2017-11-26T14:46:28.000Z</time>
      </trkpt>
      <trkpt lat="49.00501" lon="2.06915">
        <ele>64</ele>
        <time>2017-11-26T14:46:35.000Z</time>
      </trkpt>
      <trkpt lat="49.00493" lon="2.06923">
        <ele>64</ele>
        <time>2017-11-26T14:46:39.000Z</time>
      </trkpt>
      <trkpt lat="49.00486" lon="2.06933">
        <ele>65</ele>
        <time>2017-11-26T14:46:43.000Z</time>
      </trkpt>
      <trkpt lat="49.00477" lon="2.06939">
        <ele>65</ele>
        <time>2017-11-26T14:46:50.000Z</time>
      </trkpt>
      <trkpt lat="49.00469" lon="2.06948">
        <ele>66</ele>
        <time>2017-11-26T14:46:55.000Z</time>
      </trkpt>
      <trkpt lat="49.0046" lon="2.06953">
        <ele>66</ele>
        <time>2017-11-26T14:47:03.000Z</time>
      </trkpt>
      <trkpt lat="49.00451" lon="2.06962">
        <ele>66</ele>
        <time>2017-11-26T14:47:09.000Z</time>
      </trkpt>
      <trkpt lat="49.00442" lon="2.06971">
        <ele>64</ele>
        <time>2017-11-26T14:47:13.000Z</time>
      </trkpt>
      <trkpt lat="49.00435" lon="2.06979">
        <ele>64</ele>
        <time>2017-11-26T14:47:16.000Z</time>
      </trkpt>
      <trkpt lat="49.00423" lon="2.06988">
        <ele>63</ele>
        <time>2017-11-26T14:47:23.000Z</time>
      </trkpt>
      <trkpt lat="49.00414" lon="2.06994">
        <ele>62</ele>
        <time>2017-11-26T14:47:31.000Z</time>
      </trkpt>
      <trkpt lat="49.00404" lon="2.07002">
        <ele>62</ele>
        <time>2017-11-26T14:47:38.000Z</time>
      </trkpt>
      <trkpt lat="49.00393" lon="2.07013">
        <ele>64</ele>
        <time>2017-11-26T14:47:45.000Z</time>
      </trkpt>
      <trkpt lat="49.00383" lon="2.07019">
        <ele>65</ele>
        <time>2017-11-26T14:47:52.000Z</time>
      </trkpt>
      <trkpt lat="49.00373" lon="2.07024">
        <ele>63</ele>
        <time>2017-11-26T14:47:59.000Z</time>
      </trkpt>
      <trkpt lat="49.00364" lon="2.07032">
        <ele>63</ele>
        <time>2017-11-26T14:48:04.000Z</time>
      </trkpt>
      <trkpt lat="49.00354" lon="2.07039">
        <ele>65</ele>
        <time>2017-11-26T14:48:10.000Z</time>
      </trkpt>
      <trkpt lat="49.00343" lon="2.07047">
        <ele>64</ele>
        <time>2017-11-26T14:48:18.000Z</time>
      </trkpt>
      <trkpt lat="49.00335" lon="2.07054">
        <ele>64</ele>
        <time>2017-11-26T14:48:23.000Z</time>
      </trkpt>
      <trkpt lat="49.00324" lon="2.07064">
        <ele>61</ele>
        <time>2017-11-26T14:48:30.000Z</time>
      </trkpt>
      <trkpt lat="49.00315" lon="2.07076">
        <ele>62</ele>
        <time>2017-11-26T14:48:35.000Z</time>
      </trkpt>
      <trkpt lat="49.00304" lon="2.07082">
        <ele>63</ele>
        <time>2017-11-26T14:48:42.000Z</time>
      </trkpt>
      <trkpt lat="49.00293" lon="2.07087">
        <ele>61</ele>
        <time>2017-11-26T14:48:50.000Z</time>
      </trkpt>
      <trkpt lat="49.00283" lon="2.07095">
        <ele>58</ele>
        <time>2017-11-26T14:48:57.000Z</time>
      </trkpt>
      <trkpt lat="49.00275" lon="2.07102">
        <ele>60</ele>
        <time>2017-11-26T14:49:03.000Z</time>
      </trkpt>
      <trkpt lat="49.00266" lon="2.07106">
        <ele>60</ele>
        <time>2017-11-26T14:49:09.000Z</time>
      </trkpt>
      <trkpt lat="49.00253" lon="2.07114">
        <ele>60</ele>
        <time>2017-11-26T14:49:16.000Z</time>
      </trkpt>
      <trkpt lat="49.00244" lon="2.0712">
        <ele>60</ele>
        <time>2017-11-26T14:49:21.000Z</time>
      </trkpt>
      <trkpt lat="49.00234" lon="2.07126">
        <ele>62</ele>
        <time>2017-11-26T14:49:28.000Z</time>
      </trkpt>
      <trkpt lat="49.00223" lon="2.07132">
        <ele>62</ele>
        <time>2017-11-26T14:49:36.000Z</time>
      </trkpt>
      <trkpt lat="49.00214" lon="2.07135">
        <ele>61</ele>
        <time>2017-11-26T14:49:42.000Z</time>
      </trkpt>
      <trkpt lat="49.00201" lon="2.0714">
        <ele>62</ele>
        <time>2017-11-26T14:49:51.000Z</time>
      </trkpt>
      <trkpt lat="49.00193" lon="2.07148">
        <ele>65</ele>
        <time>2017-11-26T14:49:56.000Z</time>
      </trkpt>
      <trkpt lat="49.00184" lon="2.07155">
        <ele>62</ele>
        <time>2017-11-26T14:50:02.000Z</time>
      </trkpt>
      <trkpt lat="49.00174" lon="2.07163">
        <ele>60</ele>
        <time>2017-11-26T14:50:08.000Z</time>
      </trkpt>
      <trkpt lat="49.00167" lon="2.07172">
        <ele>63</ele>
        <time>2017-11-26T14:50:13.000Z</time>
      </trkpt>
      <trkpt lat="49.00158" lon="2.0718">
        <ele>63</ele>
        <time>2017-11-26T14:50:18.000Z</time>
      </trkpt>
      <trkpt lat="49.00148" lon="2.07188">
        <ele>64</ele>
        <time>2017-11-26T14:50:21.000Z</time>
      </trkpt>
      <trkpt lat="49.00138" lon="2.07196">
        <ele>65</ele>
        <time>2017-11-26T14:50:28.000Z</time>
      </trkpt>
      <trkpt lat="49.00127" lon="2.07196">
        <ele>63</ele>
        <time>2017-11-26T14:50:35.000Z</time>
      </trkpt>
      <trkpt lat="49.00112" lon="2.072">
        <ele>64</ele>
        <time>2017-11-26T14:50:43.000Z</time>
      </trkpt>
      <trkpt lat="49.00096" lon="2.07207">
        <ele>66</ele>
        <time>2017-11-26T14:50:51.000Z</time>
      </trkpt>
      <trkpt lat="49.00084" lon="2.07214">
        <ele>65</ele>
        <time>2017-11-26T14:50:59.000Z</time>
      </trkpt>
      <trkpt lat="49.00069" lon="2.07216">
        <ele>65</ele>
        <time>2017-11-26T14:51:07.000Z</time>
      </trkpt>
      <trkpt lat="49.0006" lon="2.0722">
        <ele>65</ele>
        <time>2017-11-26T14:51:14.000Z</time>
      </trkpt>
      <trkpt lat="49.00047" lon="2.07224">
        <ele>67</ele>
        <time>2017-11-26T14:51:21.000Z</time>
      </trkpt>
      <trkpt lat="49.00038" lon="2.07221">
        <ele>66</ele>
        <time>2017-11-26T14:51:28.000Z</time>
      </trkpt>
      <trkpt lat="49.00028" lon="2.0722">
        <ele>65</ele>
        <time>2017-11-26T14:51:35.000Z</time>
      </trkpt>
      <trkpt lat="49.0002" lon="2.07221">
        <ele>66</ele>
        <time>2017-11-26T14:51:40.000Z</time>
      </trkpt>
      <trkpt lat="49.00004" lon="2.07231">
        <ele>66</ele>
        <time>2017-11-26T14:51:45.000Z</time>
      </trkpt>
      <trkpt lat="48.99994" lon="2.07236">
        <ele>66</ele>
        <time>2017-11-26T14:51:50.000Z</time>
      </trkpt>
      <trkpt lat="48.99987" lon="2.07227">
        <ele>58</ele>
        <time>2017-11-26T14:51:58.000Z</time>
      </trkpt>
      <trkpt lat="48.99976" lon="2.0723">
        <ele>62</ele>
        <time>2017-11-26T14:52:05.000Z</time>
      </trkpt>
      <trkpt lat="48.99966" lon="2.07234">
        <ele>61</ele>
        <time>2017-11-26T14:52:11.000Z</time>
      </trkpt>
      <trkpt lat="48.99956" lon="2.07235">
        <ele>59</ele>
        <time>2017-11-26T14:52:16.000Z</time>
      </trkpt>
      <trkpt lat="48.99944" lon="2.07235">
        <ele>57</ele>
        <time>2017-11-26T14:52:25.000Z</time>
      </trkpt>
      <trkpt lat="48.99931" lon="2.07232">
        <ele>57</ele>
        <time>2017-11-26T14:52:33.000Z</time>
      </trkpt>
      <trkpt lat="48.99918" lon="2.07232">
        <ele>57</ele>
        <time>2017-11-26T14:52:39.000Z</time>
      </trkpt>
      <trkpt lat="48.99909" lon="2.07228">
        <ele>58</ele>
        <time>2017-11-26T14:52:45.000Z</time>
      </trkpt>
      <trkpt lat="48.99899" lon="2.07233">
        <ele>61</ele>
        <time>2017-11-26T14:52:50.000Z</time>
      </trkpt>
      <trkpt lat="48.99888" lon="2.07233">
        <ele>60</ele>
        <time>2017-11-26T14:52:56.000Z</time>
      </trkpt>
      <trkpt lat="48.99877" lon="2.07231">
        <ele>59</ele>
        <time>2017-11-26T14:53:03.000Z</time>
      </trkpt>
      <trkpt lat="48.99867" lon="2.07229">
        <ele>61</ele>
        <time>2017-11-26T14:53:08.000Z</time>
      </trkpt>
      <trkpt lat="48.99859" lon="2.07223">
        <ele>63</ele>
        <time>2017-11-26T14:53:14.000Z</time>
      </trkpt>
      <trkpt lat="48.99847" lon="2.07228">
        <ele>58</ele>
        <time>2017-11-26T14:53:19.000Z</time>
      </trkpt>
      <trkpt lat="48.99836" lon="2.07228">
        <ele>62</ele>
        <time>2017-11-26T14:53:24.000Z</time>
      </trkpt>
      <trkpt lat="48.99823" lon="2.07226">
        <ele>61</ele>
        <time>2017-11-26T14:53:31.000Z</time>
      </trkpt>
      <trkpt lat="48.99812" lon="2.07228">
        <ele>64</ele>
        <time>2017-11-26T14:53:36.000Z</time>
      </trkpt>
      <trkpt lat="48.99799" lon="2.0723">
        <ele>63</ele>
        <time>2017-11-26T14:53:43.000Z</time>
      </trkpt>
      <trkpt lat="48.99786" lon="2.07229">
        <ele>62</ele>
        <time>2017-11-26T14:53:50.000Z</time>
      </trkpt>
      <trkpt lat="48.99777" lon="2.07227">
        <ele>62</ele>
        <time>2017-11-26T14:53:55.000Z</time>
      </trkpt>
      <trkpt lat="48.99765" lon="2.07223">
        <ele>64</ele>
        <time>2017-11-26T14:54:03.000Z</time>
      </trkpt>
      <trkpt lat="48.99756" lon="2.07226">
        <ele>61</ele>
        <time>2017-11-26T14:54:08.000Z</time>
      </trkpt>
      <trkpt lat="48.99744" lon="2.07225">
        <ele>61</ele>
        <time>2017-11-26T14:54:15.000Z</time>
      </trkpt>
      <trkpt lat="48.99731" lon="2.07224">
        <ele>62</ele>
        <time>2017-11-26T14:54:23.000Z</time>
      </trkpt>
      <trkpt lat="48.9972" lon="2.07223">
        <ele>63</ele>
        <time>2017-11-26T14:54:29.000Z</time>
      </trkpt>
      <trkpt lat="48.9971" lon="2.07219">
        <ele>63</ele>
        <time>2017-11-26T14:54:36.000Z</time>
      </trkpt>
      <trkpt lat="48.99698" lon="2.07217">
        <ele>63</ele>
        <time>2017-11-26T14:54:43.000Z</time>
      </trkpt>
      <trkpt lat="48.99689" lon="2.07215">
        <ele>65</ele>
        <time>2017-11-26T14:54:49.000Z</time>
      </trkpt>
      <trkpt lat="48.99679" lon="2.07211">
        <ele>64</ele>
        <time>2017-11-26T14:54:55.000Z</time>
      </trkpt>
      <trkpt lat="48.99668" lon="2.07211">
        <ele>63</ele>
        <time>2017-11-26T14:55:01.000Z</time>
      </trkpt>
      <trkpt lat="48.99655" lon="2.07212">
        <ele>64</ele>
        <time>2017-11-26T14:55:09.000Z</time>
      </trkpt>
      <trkpt lat="48.99645" lon="2.07211">
        <ele>67</ele>
        <time>2017-11-26T14:55:16.000Z</time>
      </trkpt>
      <trkpt lat="48.99632" lon="2.07205">
        <ele>65</ele>
        <time>2017-11-26T14:55:23.000Z</time>
      </trkpt>
      <trkpt lat="48.99622" lon="2.07202">
        <ele>67</ele>
        <time>2017-11-26T14:55:30.000Z</time>
      </trkpt>
      <trkpt lat="48.9961" lon="2.07198">
        <ele>66</ele>
        <time>2017-11-26T14:55:36.000Z</time>
      </trkpt>
      <trkpt lat="48.99597" lon="2.07196">
        <ele>68</ele>
        <time>2017-11-26T14:55:43.000Z</time>
      </trkpt>
      <trkpt lat="48.99585" lon="2.07196">
        <ele>66</ele>
        <time>2017-11-26T14:55:50.000Z</time>
      </trkpt>
      <trkpt lat="48.99575" lon="2.07196">
        <ele>68</ele>
        <time>2017-11-26T14:55:55.000Z</time>
      </trkpt>
      <trkpt lat="48.99565" lon="2.07194">
        <ele>70</ele>
        <time>2017-11-26T14:56:02.000Z</time>
      </trkpt>
      <trkpt lat="48.99552" lon="2.07192">
        <ele>68</ele>
        <time>2017-11-26T14:56:09.000Z</time>
      </trkpt>
      <trkpt lat="48.99542" lon="2.07196">
        <ele>66</ele>
        <time>2017-11-26T14:56:15.000Z</time>
      </trkpt>
      <trkpt lat="48.99532" lon="2.07193">
        <ele>67</ele>
        <time>2017-11-26T14:56:21.000Z</time>
      </trkpt>
      <trkpt lat="48.99523" lon="2.07192">
        <ele>65</ele>
        <time>2017-11-26T14:56:26.000Z</time>
      </trkpt>
      <trkpt lat="48.99512" lon="2.07192">
        <ele>65</ele>
        <time>2017-11-26T14:56:32.000Z</time>
      </trkpt>
      <trkpt lat="48.99498" lon="2.07196">
        <ele>65</ele>
        <time>2017-11-26T14:56:41.000Z</time>
      </trkpt>
      <trkpt lat="48.99484" lon="2.07197">
        <ele>64</ele>
        <time>2017-11-26T14:56:49.000Z</time>
      </trkpt>
      <trkpt lat="48.9947" lon="2.07197">
        <ele>63</ele>
        <time>2017-11-26T14:56:57.000Z</time>
      </trkpt>
      <trkpt lat="48.9946" lon="2.07197">
        <ele>64</ele>
        <time>2017-11-26T14:57:04.575Z</time>
      </trkpt>
      <trkpt lat="48.9945" lon="2.07197">
        <ele>63</ele>
        <time>2017-11-26T14:57:09.000Z</time>
      </trkpt>
      <trkpt lat="48.9944" lon="2.07201">
        <ele>63</ele>
        <time>2017-11-26T14:57:15.000Z</time>
      </trkpt>
      <trkpt lat="48.99429" lon="2.07203">
        <ele>66</ele>
        <time>2017-11-26T14:57:22.000Z</time>
      </trkpt>
      <trkpt lat="48.9942" lon="2.07201">
        <ele>64</ele>
        <time>2017-11-26T14:57:30.000Z</time>
      </trkpt>
      <trkpt lat="48.9941" lon="2.07203">
        <ele>64</ele>
        <time>2017-11-26T14:57:36.000Z</time>
      </trkpt>
      <trkpt lat="48.99398" lon="2.07207">
        <ele>66</ele>
        <time>2017-11-26T14:57:43.000Z</time>
      </trkpt>
      <trkpt lat="48.99387" lon="2.0721">
        <ele>64</ele>
        <time>2017-11-26T14:57:49.000Z</time>
      </trkpt>
      <trkpt lat="48.99375" lon="2.07216">
        <ele>63</ele>
        <time>2017-11-26T14:57:56.000Z</time>
      </trkpt>
      <trkpt lat="48.99365" lon="2.07217">
        <ele>65</ele>
        <time>2017-11-26T14:58:03.000Z</time>
      </trkpt>
      <trkpt lat="48.99355" lon="2.07221">
        <ele>63</ele>
        <time>2017-11-26T14:58:09.000Z</time>
      </trkpt>
      <trkpt lat="48.99346" lon="2.07223">
        <ele>66</ele>
        <time>2017-11-26T14:58:15.000Z</time>
      </trkpt>
      <trkpt lat="48.99333" lon="2.07218">
        <ele>65</ele>
        <time>2017-11-26T14:58:24.000Z</time>
      </trkpt>
      <trkpt lat="48.9932" lon="2.07224">
        <ele>65</ele>
        <time>2017-11-26T14:58:34.000Z</time>
      </trkpt>
      <trkpt lat="48.9931" lon="2.07228">
        <ele>66</ele>
        <time>2017-11-26T14:58:40.000Z</time>
      </trkpt>
      <trkpt lat="48.99299" lon="2.0723">
        <ele>66</ele>
        <time>2017-11-26T14:58:48.000Z</time>
      </trkpt>
      <trkpt lat="48.99287" lon="2.0723">
        <ele>65</ele>
        <time>2017-11-26T14:58:56.000Z</time>
      </trkpt>
      <trkpt lat="48.99278" lon="2.07234">
        <ele>62</ele>
        <time>2017-11-26T14:59:01.000Z</time>
      </trkpt>
      <trkpt lat="48.99267" lon="2.07234">
        <ele>63</ele>
        <time>2017-11-26T14:59:08.000Z</time>
      </trkpt>
      <trkpt lat="48.99256" lon="2.07237">
        <ele>65</ele>
        <time>2017-11-26T14:59:15.000Z</time>
      </trkpt>
      <trkpt lat="48.99246" lon="2.07239">
        <ele>65</ele>
        <time>2017-11-26T14:59:21.000Z</time>
      </trkpt>
      <trkpt lat="48.99234" lon="2.07241">
        <ele>63</ele>
        <time>2017-11-26T14:59:29.000Z</time>
      </trkpt>
      <trkpt lat="48.99224" lon="2.07241">
        <ele>64</ele>
        <time>2017-11-26T14:59:35.000Z</time>
      </trkpt>
      <trkpt lat="48.99214" lon="2.07246">
        <ele>63</ele>
        <time>2017-11-26T14:59:41.000Z</time>
      </trkpt>
      <trkpt lat="48.99203" lon="2.07246">
        <ele>64</ele>
        <time>2017-11-26T14:59:49.000Z</time>
      </trkpt>
      <trkpt lat="48.99192" lon="2.07246">
        <ele>67</ele>
        <time>2017-11-26T14:59:57.000Z</time>
      </trkpt>
      <trkpt lat="48.99183" lon="2.07248">
        <ele>63</ele>
        <time>2017-11-26T15:00:02.000Z</time>
      </trkpt>
      <trkpt lat="48.99173" lon="2.07248">
        <ele>60</ele>
        <time>2017-11-26T15:00:09.000Z</time>
      </trkpt>
      <trkpt lat="48.99161" lon="2.07253">
        <ele>62</ele>
        <time>2017-11-26T15:00:15.000Z</time>
      </trkpt>
      <trkpt lat="48.9915" lon="2.07253">
        <ele>63</ele>
        <time>2017-11-26T15:00:23.000Z</time>
      </trkpt>
      <trkpt lat="48.99137" lon="2.0725">
        <ele>62</ele>
        <time>2017-11-26T15:00:31.000Z</time>
      </trkpt>
      <trkpt lat="48.99127" lon="2.0725">
        <ele>63</ele>
        <time>2017-11-26T15:00:37.000Z</time>
      </trkpt>
      <trkpt lat="48.99118" lon="2.07252">
        <ele>63</ele>
        <time>2017-11-26T15:00:42.000Z</time>
      </trkpt>
      <trkpt lat="48.99109" lon="2.07249">
        <ele>66</ele>
        <time>2017-11-26T15:00:49.000Z</time>
      </trkpt>
      <trkpt lat="48.99099" lon="2.07248">
        <ele>65</ele>
        <time>2017-11-26T15:00:57.000Z</time>
      </trkpt>
      <trkpt lat="48.99089" lon="2.07253">
        <ele>62</ele>
        <time>2017-11-26T15:01:03.000Z</time>
      </trkpt>
      <trkpt lat="48.99081" lon="2.07247">
        <ele>64</ele>
        <time>2017-11-26T15:01:10.000Z</time>
      </trkpt>
      <trkpt lat="48.9907" lon="2.07242">
        <ele>62</ele>
        <time>2017-11-26T15:01:19.000Z</time>
      </trkpt>
      <trkpt lat="48.9906" lon="2.0724">
        <ele>64</ele>
        <time>2017-11-26T15:01:26.000Z</time>
      </trkpt>
      <trkpt lat="48.99048" lon="2.07237">
        <ele>65</ele>
        <time>2017-11-26T15:01:33.000Z</time>
      </trkpt>
      <trkpt lat="48.99039" lon="2.07236">
        <ele>65</ele>
        <time>2017-11-26T15:01:39.000Z</time>
      </trkpt>
      <trkpt lat="48.99026" lon="2.07237">
        <ele>67</ele>
        <time>2017-11-26T15:01:46.000Z</time>
      </trkpt>
      <trkpt lat="48.99016" lon="2.07238">
        <ele>68</ele>
        <time>2017-11-26T15:01:53.000Z</time>
      </trkpt>
      <trkpt lat="48.99006" lon="2.07234">
        <ele>64</ele>
        <time>2017-11-26T15:02:00.000Z</time>
      </trkpt>
      <trkpt lat="48.98995" lon="2.07231">
        <ele>64</ele>
        <time>2017-11-26T15:02:07.000Z</time>
      </trkpt>
      <trkpt lat="48.98983" lon="2.07229">
        <ele>63</ele>
        <time>2017-11-26T15:02:16.000Z</time>
      </trkpt>
      <trkpt lat="48.98972" lon="2.07224">
        <ele>61</ele>
        <time>2017-11-26T15:02:23.000Z</time>
      </trkpt>
      <trkpt lat="48.98963" lon="2.07221">
        <ele>63</ele>
        <time>2017-11-26T15:02:28.000Z</time>
      </trkpt>
      <trkpt lat="48.98953" lon="2.07218">
        <ele>62</ele>
        <time>2017-11-26T15:02:35.000Z</time>
      </trkpt>
      <trkpt lat="48.98939" lon="2.07217">
        <ele>62</ele>
        <time>2017-11-26T15:02:43.000Z</time>
      </trkpt>
      <trkpt lat="48.98927" lon="2.0721">
        <ele>64</ele>
        <time>2017-11-26T15:02:51.000Z</time>
      </trkpt>
      <trkpt lat="48.98915" lon="2.07207">
        <ele>64</ele>
        <time>2017-11-26T15:02:59.000Z</time>
      </trkpt>
      <trkpt lat="48.98906" lon="2.07202">
        <ele>64</ele>
        <time>2017-11-26T15:03:07.000Z</time>
      </trkpt>
      <trkpt lat="48.98893" lon="2.072">
        <ele>64</ele>
        <time>2017-11-26T15:03:13.000Z</time>
      </trkpt>
      <trkpt lat="48.98881" lon="2.07195">
        <ele>63</ele>
        <time>2017-11-26T15:03:21.000Z</time>
      </trkpt>
      <trkpt lat="48.98872" lon="2.07192">
        <ele>65</ele>
        <time>2017-11-26T15:03:25.000Z</time>
      </trkpt>
      <trkpt lat="48.98863" lon="2.07187">
        <ele>63</ele>
        <time>2017-11-26T15:03:32.000Z</time>
      </trkpt>
      <trkpt lat="48.98849" lon="2.07184">
        <ele>64</ele>
        <time>2017-11-26T15:03:40.000Z</time>
      </trkpt>
      <trkpt lat="48.98841" lon="2.07177">
        <ele>67</ele>
        <time>2017-11-26T15:03:47.000Z</time>
      </trkpt>
      <trkpt lat="48.98831" lon="2.07173">
        <ele>67</ele>
        <time>2017-11-26T15:03:53.000Z</time>
      </trkpt>
      <trkpt lat="48.98822" lon="2.0717">
        <ele>67</ele>
        <time>2017-11-26T15:03:59.000Z</time>
      </trkpt>
      <trkpt lat="48.98811" lon="2.07166">
        <ele>64</ele>
        <time>2017-11-26T15:04:06.000Z</time>
      </trkpt>
      <trkpt lat="48.98801" lon="2.07161">
        <ele>66</ele>
        <time>2017-11-26T15:04:15.000Z</time>
      </trkpt>
      <trkpt lat="48.98791" lon="2.07153">
        <ele>63</ele>
        <time>2017-11-26T15:04:23.000Z</time>
      </trkpt>
      <trkpt lat="48.98776" lon="2.07151">
        <ele>61</ele>
        <time>2017-11-26T15:04:31.000Z</time>
      </trkpt>
      <trkpt lat="48.98765" lon="2.07144">
        <ele>64</ele>
        <time>2017-11-26T15:04:39.000Z</time>
      </trkpt>
      <trkpt lat="48.98757" lon="2.07137">
        <ele>64</ele>
        <time>2017-11-26T15:04:45.000Z</time>
      </trkpt>
      <trkpt lat="48.98748" lon="2.07131">
        <ele>65</ele>
        <time>2017-11-26T15:04:51.000Z</time>
      </trkpt>
      <trkpt lat="48.98738" lon="2.07126">
        <ele>65</ele>
        <time>2017-11-26T15:04:57.000Z</time>
      </trkpt>
      <trkpt lat="48.98727" lon="2.07119">
        <ele>66</ele>
        <time>2017-11-26T15:05:04.000Z</time>
      </trkpt>
      <trkpt lat="48.98719" lon="2.07111">
        <ele>67</ele>
        <time>2017-11-26T15:05:10.000Z</time>
      </trkpt>
      <trkpt lat="48.98711" lon="2.07102">
        <ele>67</ele>
        <time>2017-11-26T15:05:16.000Z</time>
      </trkpt>
      <trkpt lat="48.98702" lon="2.07093">
        <ele>67</ele>
        <time>2017-11-26T15:05:23.000Z</time>
      </trkpt>
      <trkpt lat="48.98694" lon="2.07084">
        <ele>68</ele>
        <time>2017-11-26T15:05:31.000Z</time>
      </trkpt>
      <trkpt lat="48.98685" lon="2.07074">
        <ele>68</ele>
        <time>2017-11-26T15:05:39.000Z</time>
      </trkpt>
      <trkpt lat="48.98676" lon="2.07063">
        <ele>66</ele>
        <time>2017-11-26T15:05:47.000Z</time>
      </trkpt>
      <trkpt lat="48.98667" lon="2.07056">
        <ele>65</ele>
        <time>2017-11-26T15:05:54.000Z</time>
      </trkpt>
      <trkpt lat="48.98657" lon="2.07046">
        <ele>66</ele>
        <time>2017-11-26T15:06:02.000Z</time>
      </trkpt>
      <trkpt lat="48.9865" lon="2.07036">
        <ele>64</ele>
        <time>2017-11-26T15:06:09.000Z</time>
      </trkpt>
      <trkpt lat="48.98643" lon="2.07025">
        <ele>65</ele>
        <time>2017-11-26T15:06:17.000Z</time>
      </trkpt>
      <trkpt lat="48.98637" lon="2.07014">
        <ele>63</ele>
        <time>2017-11-26T15:06:25.000Z</time>
      </trkpt>
      <trkpt lat="48.98631" lon="2.07004">
        <ele>63</ele>
        <time>2017-11-26T15:06:32.000Z</time>
      </trkpt>
      <trkpt lat="48.98624" lon="2.06994">
        <ele>63</ele>
        <time>2017-11-26T15:06:38.000Z</time>
      </trkpt>
      <trkpt lat="48.98615" lon="2.0698">
        <ele>64</ele>
        <time>2017-11-26T15:06:47.000Z</time>
      </trkpt>
      <trkpt lat="48.98609" lon="2.06966">
        <ele>65</ele>
        <time>2017-11-26T15:06:55.000Z</time>
      </trkpt>
      <trkpt lat="48.98601" lon="2.06955">
        <ele>63</ele>
        <time>2017-11-26T15:07:03.000Z</time>
      </trkpt>
      <trkpt lat="48.98595" lon="2.06944">
        <ele>66</ele>
        <time>2017-11-26T15:07:11.000Z</time>
      </trkpt>
      <trkpt lat="48.98589" lon="2.06931">
        <ele>66</ele>
        <time>2017-11-26T15:07:18.000Z</time>
      </trkpt>
      <trkpt lat="48.98581" lon="2.06917">
        <ele>64</ele>
        <time>2017-11-26T15:07:26.000Z</time>
      </trkpt>
      <trkpt lat="48.98573" lon="2.06905">
        <ele>65</ele>
        <time>2017-11-26T15:07:35.000Z</time>
      </trkpt>
      <trkpt lat="48.98565" lon="2.06894">
        <ele>64</ele>
        <time>2017-11-26T15:07:43.000Z</time>
      </trkpt>
      <trkpt lat="48.98557" lon="2.0688">
        <ele>64</ele>
        <time>2017-11-26T15:07:54.000Z</time>
      </trkpt>
      <trkpt lat="48.98548" lon="2.0687">
        <ele>66</ele>
        <time>2017-11-26T15:08:02.000Z</time>
      </trkpt>
      <trkpt lat="48.98541" lon="2.06861">
        <ele>66</ele>
        <time>2017-11-26T15:08:12.000Z</time>
      </trkpt>
      <trkpt lat="48.98534" lon="2.06846">
        <ele>64</ele>
        <time>2017-11-26T15:08:24.000Z</time>
      </trkpt>
      <trkpt lat="48.98525" lon="2.06836">
        <ele>63</ele>
        <time>2017-11-26T15:08:32.000Z</time>
      </trkpt>
      <trkpt lat="48.98518" lon="2.06824">
        <ele>60</ele>
        <time>2017-11-26T15:08:42.000Z</time>
      </trkpt>
      <trkpt lat="48.9851" lon="2.06814">
        <ele>57</ele>
        <time>2017-11-26T15:08:50.000Z</time>
      </trkpt>
      <trkpt lat="48.98504" lon="2.06804">
        <ele>60</ele>
        <time>2017-11-26T15:08:58.000Z</time>
      </trkpt>
      <trkpt lat="48.98496" lon="2.0679">
        <ele>65</ele>
        <time>2017-11-26T15:09:08.000Z</time>
      </trkpt>
      <trkpt lat="48.98491" lon="2.06778">
        <ele>68</ele>
        <time>2017-11-26T15:09:18.000Z</time>
      </trkpt>
      <trkpt lat="48.98489" lon="2.06764">
        <ele>70</ele>
        <time>2017-11-26T15:09:27.000Z</time>
      </trkpt>
      <trkpt lat="48.98481" lon="2.06752">
        <ele>70</ele>
        <time>2017-11-26T15:09:35.000Z</time>
      </trkpt>
      <trkpt lat="48.98477" lon="2.06739">
        <ele>65</ele>
        <time>2017-11-26T15:09:44.000Z</time>
      </trkpt>
      <trkpt lat="48.98473" lon="2.06727">
        <ele>66</ele>
        <time>2017-11-26T15:09:56.000Z</time>
      </trkpt>
      <trkpt lat="48.98469" lon="2.06713">
        <ele>64</ele>
        <time>2017-11-26T15:10:08.000Z</time>
      </trkpt>
      <trkpt lat="48.9847" lon="2.06698">
        <ele>62</ele>
        <time>2017-11-26T15:10:17.000Z</time>
      </trkpt>
      <trkpt lat="48.98468" lon="2.0668">
        <ele>62</ele>
        <time>2017-11-26T15:10:28.000Z</time>
      </trkpt>
      <trkpt lat="48.98464" lon="2.06666">
        <ele>61</ele>
        <time>2017-11-26T15:10:35.569Z</time>
      </trkpt>
      <trkpt lat="48.98459" lon="2.06653">
        <ele>63</ele>
        <time>2017-11-26T15:10:43.000Z</time>
      </trkpt>
      <trkpt lat="48.98456" lon="2.06639">
        <ele>62</ele>
        <time>2017-11-26T15:10:51.000Z</time>
      </trkpt>
      <trkpt lat="48.98457" lon="2.06623">
        <ele>66</ele>
        <time>2017-11-26T15:11:00.000Z</time>
      </trkpt>
      <trkpt lat="48.98462" lon="2.0661">
        <ele>66</ele>
        <time>2017-11-26T15:11:09.000Z</time>
      </trkpt>
      <trkpt lat="48.98465" lon="2.06595">
        <ele>64</ele>
        <time>2017-11-26T15:11:19.000Z</time>
      </trkpt>
      <trkpt lat="48.98465" lon="2.06578">
        <ele>66</ele>
        <time>2017-11-26T15:11:29.000Z</time>
      </trkpt>
      <trkpt lat="48.98462" lon="2.06565">
        <ele>64</ele>
        <time>2017-11-26T15:11:37.000Z</time>
      </trkpt>
      <trkpt lat="48.98457" lon="2.06553">
        <ele>61</ele>
        <time>2017-11-26T15:11:47.000Z</time>
      </trkpt>
      <trkpt lat="48.98454" lon="2.06534">
        <ele>61</ele>
        <time>2017-11-26T15:11:58.000Z</time>
      </trkpt>
      <trkpt lat="48.98451" lon="2.06521">
        <ele>60</ele>
        <time>2017-11-26T15:12:06.000Z</time>
      </trkpt>
      <trkpt lat="48.98447" lon="2.06506">
        <ele>61</ele>
        <time>2017-11-26T15:12:14.000Z</time>
      </trkpt>
      <trkpt lat="48.98441" lon="2.06496">
        <ele>60</ele>
        <time>2017-11-26T15:12:21.000Z</time>
      </trkpt>
      <trkpt lat="48.98434" lon="2.06486">
        <ele>61</ele>
        <time>2017-11-26T15:12:29.000Z</time>
      </trkpt>
      <trkpt lat="48.98428" lon="2.06475">
        <ele>62</ele>
        <time>2017-11-26T15:12:36.000Z</time>
      </trkpt>
      <trkpt lat="48.98423" lon="2.06457">
        <ele>58</ele>
        <time>2017-11-26T15:12:48.000Z</time>
      </trkpt>
      <trkpt lat="48.98416" lon="2.0644">
        <ele>61</ele>
        <time>2017-11-26T15:12:57.000Z</time>
      </trkpt>
      <trkpt lat="48.98409" lon="2.0643">
        <ele>59</ele>
        <time>2017-11-26T15:13:05.000Z</time>
      </trkpt>
      <trkpt lat="48.98402" lon="2.06419">
        <ele>62</ele>
        <time>2017-11-26T15:13:15.000Z</time>
      </trkpt>
      <trkpt lat="48.98391" lon="2.06411">
        <ele>63</ele>
        <time>2017-11-26T15:13:26.000Z</time>
      </trkpt>
      <trkpt lat="48.98384" lon="2.06402">
        <ele>64</ele>
        <time>2017-11-26T15:13:36.000Z</time>
      </trkpt>
      <trkpt lat="48.98374" lon="2.06391">
        <ele>66</ele>
        <time>2017-11-26T15:13:46.000Z</time>
      </trkpt>
      <trkpt lat="48.9837" lon="2.06377">
        <ele>65</ele>
        <time>2017-11-26T15:13:56.000Z</time>
      </trkpt>
      <trkpt lat="48.98369" lon="2.06362">
        <ele>65</ele>
        <time>2017-11-26T15:14:05.000Z</time>
      </trkpt>
      <trkpt lat="48.98364" lon="2.06348">
        <ele>65</ele>
        <time>2017-11-26T15:14:13.000Z</time>
      </trkpt>
      <trkpt lat="48.98358" lon="2.06334">
        <ele>67</ele>
        <time>2017-11-26T15:14:21.000Z</time>
      </trkpt>
      <trkpt lat="48.98352" lon="2.0632">
        <ele>64</ele>
        <time>2017-11-26T15:14:30.000Z</time>
      </trkpt>
      <trkpt lat="48.98344" lon="2.06309">
        <ele>63</ele>
        <time>2017-11-26T15:14:39.000Z</time>
      </trkpt>
      <trkpt lat="48.98336" lon="2.06298">
        <ele>64</ele>
        <time>2017-11-26T15:14:46.000Z</time>
      </trkpt>
      <trkpt lat="48.98325" lon="2.06292">
        <ele>63</ele>
        <time>2017-11-26T15:14:55.000Z</time>
      </trkpt>
      <trkpt lat="48.98315" lon="2.06286">
        <ele>64</ele>
        <time>2017-11-26T15:15:04.000Z</time>
      </trkpt>
      <trkpt lat="48.98308" lon="2.06275">
        <ele>63</ele>
        <time>2017-11-26T15:15:11.000Z</time>
      </trkpt>
      <trkpt lat="48.98299" lon="2.06265">
        <ele>64</ele>
        <time>2017-11-26T15:15:20.000Z</time>
      </trkpt>
      <trkpt lat="48.98292" lon="2.06255">
        <ele>63</ele>
        <time>2017-11-26T15:15:27.000Z</time>
      </trkpt>
      <trkpt lat="48.98282" lon="2.06247">
        <ele>63</ele>
        <time>2017-11-26T15:15:35.000Z</time>
      </trkpt>
      <trkpt lat="48.98272" lon="2.06239">
        <ele>63</ele>
        <time>2017-11-26T15:15:45.000Z</time>
      </trkpt>
      <trkpt lat="48.98265" lon="2.06231">
        <ele>63</ele>
        <time>2017-11-26T15:15:51.000Z</time>
      </trkpt>
      <trkpt lat="48.98256" lon="2.06222">
        <ele>64</ele>
        <time>2017-11-26T15:15:59.600Z</time>
      </trkpt>
      <trkpt lat="48.98248" lon="2.06218">
        <ele>64</ele>
        <time>2017-11-26T15:16:05.000Z</time>
      </trkpt>
      <trkpt lat="48.98236" lon="2.0621">
        <ele>65</ele>
        <time>2017-11-26T15:16:13.000Z</time>
      </trkpt>
      <trkpt lat="48.98228" lon="2.06202">
        <ele>67</ele>
        <time>2017-11-26T15:16:20.000Z</time>
      </trkpt>
      <trkpt lat="48.98218" lon="2.06196">
        <ele>65</ele>
        <time>2017-11-26T15:16:28.000Z</time>
      </trkpt>
      <trkpt lat="48.98209" lon="2.06188">
        <ele>64</ele>
        <time>2017-11-26T15:16:36.000Z</time>
      </trkpt>
      <trkpt lat="48.98201" lon="2.06179">
        <ele>64</ele>
        <time>2017-11-26T15:16:44.000Z</time>
      </trkpt>
      <trkpt lat="48.98193" lon="2.06173">
        <ele>65</ele>
        <time>2017-11-26T15:16:51.000Z</time>
      </trkpt>
      <trkpt lat="48.98184" lon="2.06167">
        <ele>65</ele>
        <time>2017-11-26T15:16:57.000Z</time>
      </trkpt>
      <trkpt lat="48.98176" lon="2.06161">
        <ele>64</ele>
        <time>2017-11-26T15:17:03.000Z</time>
      </trkpt>
      <trkpt lat="48.98167" lon="2.06156">
        <ele>64</ele>
        <time>2017-11-26T15:17:09.000Z</time>
      </trkpt>
      <trkpt lat="48.98157" lon="2.06152">
        <ele>65</ele>
        <time>2017-11-26T15:17:15.000Z</time>
      </trkpt>
      <trkpt lat="48.9815" lon="2.06145">
        <ele>66</ele>
        <time>2017-11-26T15:17:22.000Z</time>
      </trkpt>
      <trkpt lat="48.98141" lon="2.06141">
        <ele>66</ele>
        <time>2017-11-26T15:17:28.000Z</time>
      </trkpt>
      <trkpt lat="48.98132" lon="2.06135">
        <ele>66</ele>
        <time>2017-11-26T15:17:35.000Z</time>
      </trkpt>
      <trkpt lat="48.98124" lon="2.06128">
        <ele>66</ele>
        <time>2017-11-26T15:17:42.000Z</time>
      </trkpt>
      <trkpt lat="48.98114" lon="2.06123">
        <ele>67</ele>
        <time>2017-11-26T15:17:50.000Z</time>
      </trkpt>
      <trkpt lat="48.98105" lon="2.06112">
        <ele>66</ele>
        <time>2017-11-26T15:18:00.000Z</time>
      </trkpt>
      <trkpt lat="48.98097" lon="2.061">
        <ele>63</ele>
        <time>2017-11-26T15:18:09.000Z</time>
      </trkpt>
      <trkpt lat="48.98089" lon="2.06093">
        <ele>63</ele>
        <time>2017-11-26T15:18:17.000Z</time>
      </trkpt>
      <trkpt lat="48.9808" lon="2.06084">
        <ele>63</ele>
        <time>2017-11-26T15:18:26.000Z</time>
      </trkpt>
      <trkpt lat="48.98074" lon="2.06073">
        <ele>62</ele>
        <time>2017-11-26T15:18:35.000Z</time>
      </trkpt>
      <trkpt lat="48.98068" lon="2.06059">
        <ele>61</ele>
        <time>2017-11-26T15:18:44.000Z</time>
      </trkpt>
      <trkpt lat="48.98058" lon="2.06049">
        <ele>63</ele>
        <time>2017-11-26T15:18:53.000Z</time>
      </trkpt>
      <trkpt lat="48.9805" lon="2.06041">
        <ele>63</ele>
        <time>2017-11-26T15:19:01.000Z</time>
      </trkpt>
      <trkpt lat="48.9804" lon="2.06035">
        <ele>62</ele>
        <time>2017-11-26T15:19:10.000Z</time>
      </trkpt>
      <trkpt lat="48.98032" lon="2.06028">
        <ele>63</ele>
        <time>2017-11-26T15:19:18.000Z</time>
      </trkpt>
      <trkpt lat="48.98022" lon="2.06021">
        <ele>64</ele>
        <time>2017-11-26T15:19:26.000Z</time>
      </trkpt>
      <trkpt lat="48.98014" lon="2.06013">
        <ele>64</ele>
        <time>2017-11-26T15:19:34.000Z</time>
      </trkpt>
      <trkpt lat="48.98005" lon="2.06007">
        <ele>64</ele>
        <time>2017-11-26T15:19:42.000Z</time>
      </trkpt>
      <trkpt lat="48.97998" lon="2.05997">
        <ele>64</ele>
        <time>2017-11-26T15:19:50.000Z</time>
      </trkpt>
      <trkpt lat="48.97989" lon="2.05988">
        <ele>65</ele>
        <time>2017-11-26T15:19:58.000Z</time>
      </trkpt>
      <trkpt lat="48.97981" lon="2.05976">
        <ele>64</ele>
        <time>2017-11-26T15:20:07.000Z</time>
      </trkpt>
      <trkpt lat="48.97973" lon="2.05971">
        <ele>63</ele>
        <time>2017-11-26T15:20:14.000Z</time>
      </trkpt>
      <trkpt lat="48.97963" lon="2.05963">
        <ele>64</ele>
        <time>2017-11-26T15:20:22.000Z</time>
      </trkpt>
      <trkpt lat="48.97954" lon="2.05953">
        <ele>66</ele>
        <time>2017-11-26T15:20:30.000Z</time>
      </trkpt>
      <trkpt lat="48.97948" lon="2.05943">
        <ele>67</ele>
        <time>2017-11-26T15:20:38.000Z</time>
      </trkpt>
      <trkpt lat="48.97939" lon="2.05933">
        <ele>69</ele>
        <time>2017-11-26T15:20:47.000Z</time>
      </trkpt>
      <trkpt lat="48.97932" lon="2.05923">
        <ele>70</ele>
        <time>2017-11-26T15:20:57.000Z</time>
      </trkpt>
      <trkpt lat="48.97921" lon="2.05917">
        <ele>70</ele>
        <time>2017-11-26T15:21:07.000Z</time>
      </trkpt>
      <trkpt lat="48.9791" lon="2.05909">
        <ele>69</ele>
        <time>2017-11-26T15:21:16.000Z</time>
      </trkpt>
      <trkpt lat="48.97902" lon="2.05897">
        <ele>67</ele>
        <time>2017-11-26T15:21:26.000Z</time>
      </trkpt>
      <trkpt lat="48.97891" lon="2.05891">
        <ele>67</ele>
        <time>2017-11-26T15:21:34.000Z</time>
      </trkpt>
      <trkpt lat="48.97881" lon="2.0589">
        <ele>67</ele>
        <time>2017-11-26T15:21:40.000Z</time>
      </trkpt>
      <trkpt lat="48.97876" lon="2.05874">
        <ele>67</ele>
        <time>2017-11-26T15:21:49.000Z</time>
      </trkpt>
      <trkpt lat="48.97866" lon="2.05862">
        <ele>69</ele>
        <time>2017-11-26T15:21:59.000Z</time>
      </trkpt>
      <trkpt lat="48.97858" lon="2.05852">
        <ele>70</ele>
        <time>2017-11-26T15:22:06.572Z</time>
      </trkpt>
      <trkpt lat="48.9785" lon="2.05839">
        <ele>68</ele>
        <time>2017-11-26T15:22:16.000Z</time>
      </trkpt>
      <trkpt lat="48.97842" lon="2.05831">
        <ele>66</ele>
        <time>2017-11-26T15:22:24.000Z</time>
      </trkpt>
      <trkpt lat="48.97831" lon="2.05822">
        <ele>65</ele>
        <time>2017-11-26T15:22:33.000Z</time>
      </trkpt>
      <trkpt lat="48.97821" lon="2.05812">
        <ele>64</ele>
        <time>2017-11-26T15:22:41.000Z</time>
      </trkpt>
      <trkpt lat="48.97813" lon="2.05801">
        <ele>66</ele>
        <time>2017-11-26T15:22:49.000Z</time>
      </trkpt>
      <trkpt lat="48.97805" lon="2.05794">
        <ele>64</ele>
        <time>2017-11-26T15:22:56.000Z</time>
      </trkpt>
      <trkpt lat="48.97796" lon="2.05786">
        <ele>63</ele>
        <time>2017-11-26T15:23:04.000Z</time>
      </trkpt>
      <trkpt lat="48.97787" lon="2.05776">
        <ele>63</ele>
        <time>2017-11-26T15:23:12.000Z</time>
      </trkpt>
      <trkpt lat="48.97776" lon="2.05767">
        <ele>65</ele>
        <time>2017-11-26T15:23:20.000Z</time>
      </trkpt>
      <trkpt lat="48.97768" lon="2.0576">
        <ele>63</ele>
        <time>2017-11-26T15:23:28.000Z</time>
      </trkpt>
      <trkpt lat="48.97758" lon="2.05752">
        <ele>64</ele>
        <time>2017-11-26T15:23:36.000Z</time>
      </trkpt>
      <trkpt lat="48.97749" lon="2.0574">
        <ele>63</ele>
        <time>2017-11-26T15:23:44.000Z</time>
      </trkpt>
      <trkpt lat="48.9774" lon="2.0573">
        <ele>64</ele>
        <time>2017-11-26T15:23:53.000Z</time>
      </trkpt>
      <trkpt lat="48.97731" lon="2.05724">
        <ele>67</ele>
        <time>2017-11-26T15:23:59.000Z</time>
      </trkpt>
      <trkpt lat="48.9772" lon="2.05715">
        <ele>69</ele>
        <time>2017-11-26T15:24:08.000Z</time>
      </trkpt>
      <trkpt lat="48.97709" lon="2.05707">
        <ele>67</ele>
        <time>2017-11-26T15:24:16.000Z</time>
      </trkpt>
      <trkpt lat="48.977" lon="2.05699">
        <ele>66</ele>
        <time>2017-11-26T15:24:23.000Z</time>
      </trkpt>
      <trkpt lat="48.97692" lon="2.0569">
        <ele>65</ele>
        <time>2017-11-26T15:24:31.000Z</time>
      </trkpt>
      <trkpt lat="48.97684" lon="2.05682">
        <ele>66</ele>
        <time>2017-11-26T15:24:38.000Z</time>
      </trkpt>
      <trkpt lat="48.97676" lon="2.05673">
        <ele>65</ele>
        <time>2017-11-26T15:24:46.000Z</time>
      </trkpt>
      <trkpt lat="48.97669" lon="2.05663">
        <ele>66</ele>
        <time>2017-11-26T15:24:53.000Z</time>
      </trkpt>
      <trkpt lat="48.97661" lon="2.05654">
        <ele>66</ele>
        <time>2017-11-26T15:25:00.000Z</time>
      </trkpt>
      <trkpt lat="48.97654" lon="2.05645">
        <ele>66</ele>
        <time>2017-11-26T15:25:07.000Z</time>
      </trkpt>
      <trkpt lat="48.97648" lon="2.05636">
        <ele>65</ele>
        <time>2017-11-26T15:25:14.000Z</time>
      </trkpt>
      <trkpt lat="48.97638" lon="2.05624">
        <ele>66</ele>
        <time>2017-11-26T15:25:23.000Z</time>
      </trkpt>
      <trkpt lat="48.9763" lon="2.05614">
        <ele>66</ele>
        <time>2017-11-26T15:25:30.000Z</time>
      </trkpt>
      <trkpt lat="48.97622" lon="2.05608">
        <ele>67</ele>
        <time>2017-11-26T15:25:37.000Z</time>
      </trkpt>
      <trkpt lat="48.97614" lon="2.05601">
        <ele>67</ele>
        <time>2017-11-26T15:25:44.000Z</time>
      </trkpt>
      <trkpt lat="48.97604" lon="2.0559">
        <ele>66</ele>
        <time>2017-11-26T15:25:54.000Z</time>
      </trkpt>
      <trkpt lat="48.97597" lon="2.05581">
        <ele>64</ele>
        <time>2017-11-26T15:26:01.000Z</time>
      </trkpt>
      <trkpt lat="48.97588" lon="2.05574">
        <ele>64</ele>
        <time>2017-11-26T15:26:08.000Z</time>
      </trkpt>
      <trkpt lat="48.97579" lon="2.05565">
        <ele>66</ele>
        <time>2017-11-26T15:26:15.000Z</time>
      </trkpt>
      <trkpt lat="48.97571" lon="2.05556">
        <ele>65</ele>
        <time>2017-11-26T15:26:22.000Z</time>
      </trkpt>
      <trkpt lat="48.97563" lon="2.05547">
        <ele>65</ele>
        <time>2017-11-26T15:26:29.000Z</time>
      </trkpt>
      <trkpt lat="48.97553" lon="2.05538">
        <ele>66</ele>
        <time>2017-11-26T15:26:38.000Z</time>
      </trkpt>
      <trkpt lat="48.97544" lon="2.05532">
        <ele>67</ele>
        <time>2017-11-26T15:26:44.000Z</time>
      </trkpt>
      <trkpt lat="48.97535" lon="2.05524">
        <ele>68</ele>
        <time>2017-11-26T15:26:51.000Z</time>
      </trkpt>
      <trkpt lat="48.97527" lon="2.05516">
        <ele>68</ele>
        <time>2017-11-26T15:26:58.000Z</time>
      </trkpt>
      <trkpt lat="48.97513" lon="2.05511">
        <ele>67</ele>
        <time>2017-11-26T15:27:07.000Z</time>
      </trkpt>
      <trkpt lat="48.97506" lon="2.05502">
        <ele>65</ele>
        <time>2017-11-26T15:27:14.000Z</time>
      </trkpt>
      <trkpt lat="48.97499" lon="2.0549">
        <ele>65</ele>
        <time>2017-11-26T15:27:22.000Z</time>
      </trkpt>
      <trkpt lat="48.9749" lon="2.05481">
        <ele>66</ele>
        <time>2017-11-26T15:27:32.000Z</time>
      </trkpt>
      <trkpt lat="48.97482" lon="2.05474">
        <ele>67</ele>
        <time>2017-11-26T15:27:40.000Z</time>
      </trkpt>
      <trkpt lat="48.97473" lon="2.05462">
        <ele>64</ele>
        <time>2017-11-26T15:27:51.000Z</time>
      </trkpt>
      <trkpt lat="48.97464" lon="2.05453">
        <ele>65</ele>
        <time>2017-11-26T15:28:00.000Z</time>
      </trkpt>
      <trkpt lat="48.97454" lon="2.05445">
        <ele>68</ele>
        <time>2017-11-26T15:28:10.000Z</time>
      </trkpt>
      <trkpt lat="48.97446" lon="2.05433">
        <ele>67</ele>
        <time>2017-11-26T15:28:19.000Z</time>
      </trkpt>
      <trkpt lat="48.97438" lon="2.05421">
        <ele>67</ele>
        <time>2017-11-26T15:28:28.000Z</time>
      </trkpt>
      <trkpt lat="48.9743" lon="2.05413">
        <ele>66</ele>
        <time>2017-11-26T15:28:36.000Z</time>
      </trkpt>
      <trkpt lat="48.9742" lon="2.05404">
        <ele>69</ele>
        <time>2017-11-26T15:28:44.000Z</time>
      </trkpt>
      <trkpt lat="48.97411" lon="2.05396">
        <ele>72</ele>
        <time>2017-11-26T15:28:50.000Z</time>
      </trkpt>
      <trkpt lat="48.97404" lon="2.05388">
        <ele>70</ele>
        <time>2017-11-26T15:28:58.000Z</time>
      </trkpt>
      <trkpt lat="48.97397" lon="2.05379">
        <ele>67</ele>
        <time>2017-11-26T15:29:05.000Z</time>
      </trkpt>
      <trkpt lat="48.97388" lon="2.05363">
        <ele>67</ele>
        <time>2017-11-26T15:29:14.000Z</time>
      </trkpt>
      <trkpt lat="48.97377" lon="2.05354">
        <ele>67</ele>
        <time>2017-11-26T15:29:22.000Z</time>
      </trkpt>
      <trkpt lat="48.97367" lon="2.05344">
        <ele>71</ele>
        <time>2017-11-26T15:29:30.000Z</time>
      </trkpt>
      <trkpt lat="48.97357" lon="2.05336">
        <ele>71</ele>
        <time>2017-11-26T15:29:37.000Z</time>
      </trkpt>
      <trkpt lat="48.97348" lon="2.05329">
        <ele>71</ele>
        <time>2017-11-26T15:29:45.000Z</time>
      </trkpt>
      <trkpt lat="48.9734" lon="2.05319">
        <ele>73</ele>
        <time>2017-11-26T15:29:52.000Z</time>
      </trkpt>
      <trkpt lat="48.97335" lon="2.05307">
        <ele>69</ele>
        <time>2017-11-26T15:29:59.000Z</time>
      </trkpt>
      <trkpt lat="48.97327" lon="2.05299">
        <ele>68</ele>
        <time>2017-11-26T15:30:05.000Z</time>
      </trkpt>
      <trkpt lat="48.97318" lon="2.05297">
        <ele>68</ele>
        <time>2017-11-26T15:30:10.000Z</time>
      </trkpt>
      <trkpt lat="48.97309" lon="2.05295">
        <ele>70</ele>
        <time>2017-11-26T15:30:14.000Z</time>
      </trkpt>
      <trkpt lat="48.97305" lon="2.05282">
        <ele>68</ele>
        <time>2017-11-26T15:30:21.000Z</time>
      </trkpt>
      <trkpt lat="48.97296" lon="2.05274">
        <ele>68</ele>
        <time>2017-11-26T15:30:26.000Z</time>
      </trkpt>
      <trkpt lat="48.97287" lon="2.05266">
        <ele>68</ele>
        <time>2017-11-26T15:30:34.000Z</time>
      </trkpt>
      <trkpt lat="48.97281" lon="2.05253">
        <ele>70</ele>
        <time>2017-11-26T15:30:42.000Z</time>
      </trkpt>
      <trkpt lat="48.97273" lon="2.05246">
        <ele>70</ele>
        <time>2017-11-26T15:30:48.000Z</time>
      </trkpt>
      <trkpt lat="48.97264" lon="2.05239">
        <ele>70</ele>
        <time>2017-11-26T15:30:55.000Z</time>
      </trkpt>
      <trkpt lat="48.97255" lon="2.0523">
        <ele>69</ele>
        <time>2017-11-26T15:31:03.000Z</time>
      </trkpt>
      <trkpt lat="48.97247" lon="2.05221">
        <ele>68</ele>
        <time>2017-11-26T15:31:10.000Z</time>
      </trkpt>
      <trkpt lat="48.9724" lon="2.05211">
        <ele>67</ele>
        <time>2017-11-26T15:31:17.000Z</time>
      </trkpt>
      <trkpt lat="48.9723" lon="2.05206">
        <ele>66</ele>
        <time>2017-11-26T15:31:24.000Z</time>
      </trkpt>
      <trkpt lat="48.97221" lon="2.05198">
        <ele>66</ele>
        <time>2017-11-26T15:31:33.000Z</time>
      </trkpt>
      <trkpt lat="48.97212" lon="2.05193">
        <ele>66</ele>
        <time>2017-11-26T15:31:41.000Z</time>
      </trkpt>
      <trkpt lat="48.97201" lon="2.05183">
        <ele>69</ele>
        <time>2017-11-26T15:31:50.000Z</time>
      </trkpt>
      <trkpt lat="48.97193" lon="2.05176">
        <ele>67</ele>
        <time>2017-11-26T15:31:57.000Z</time>
      </trkpt>
      <trkpt lat="48.97183" lon="2.05182">
        <ele>70</ele>
        <time>2017-11-26T15:32:00.000Z</time>
      </trkpt>
      <trkpt lat="48.97179" lon="2.05165">
        <ele>67</ele>
        <time>2017-11-26T15:32:07.000Z</time>
      </trkpt>
      <trkpt lat="48.9717" lon="2.05157">
        <ele>69</ele>
        <time>2017-11-26T15:32:16.000Z</time>
      </trkpt>
      <trkpt lat="48.97162" lon="2.05148">
        <ele>68</ele>
        <time>2017-11-26T15:32:23.000Z</time>
      </trkpt>
      <trkpt lat="48.97151" lon="2.05136">
        <ele>66</ele>
        <time>2017-11-26T15:32:32.000Z</time>
      </trkpt>
      <trkpt lat="48.97141" lon="2.05127">
        <ele>65</ele>
        <time>2017-11-26T15:32:40.000Z</time>
      </trkpt>
      <trkpt lat="48.97131" lon="2.05121">
        <ele>66</ele>
        <time>2017-11-26T15:32:48.000Z</time>
      </trkpt>
      <trkpt lat="48.97122" lon="2.05112">
        <ele>64</ele>
        <time>2017-11-26T15:32:56.000Z</time>
      </trkpt>
      <trkpt lat="48.97112" lon="2.05109">
        <ele>65</ele>
        <time>2017-11-26T15:33:03.000Z</time>
      </trkpt>
      <trkpt lat="48.97104" lon="2.05101">
        <ele>66</ele>
        <time>2017-11-26T15:33:08.000Z</time>
      </trkpt>
      <trkpt lat="48.97094" lon="2.05096">
        <ele>71</ele>
        <time>2017-11-26T15:33:14.000Z</time>
      </trkpt>
      <trkpt lat="48.97088" lon="2.05084">
        <ele>69</ele>
        <time>2017-11-26T15:33:23.000Z</time>
      </trkpt>
      <trkpt lat="48.9708" lon="2.05077">
        <ele>68</ele>
        <time>2017-11-26T15:33:30.000Z</time>
      </trkpt>
      <trkpt lat="48.9707" lon="2.05069">
        <ele>68</ele>
        <time>2017-11-26T15:33:38.000Z</time>
      </trkpt>
      <trkpt lat="48.97057" lon="2.05065">
        <ele>67</ele>
        <time>2017-11-26T15:33:48.000Z</time>
      </trkpt>
      <trkpt lat="48.97048" lon="2.0506">
        <ele>67</ele>
        <time>2017-11-26T15:33:55.000Z</time>
      </trkpt>
      <trkpt lat="48.97036" lon="2.05051">
        <ele>68</ele>
        <time>2017-11-26T15:34:05.000Z</time>
      </trkpt>
      <trkpt lat="48.97026" lon="2.05046">
        <ele>71</ele>
        <time>2017-11-26T15:34:12.000Z</time>
      </trkpt>
      <trkpt lat="48.97017" lon="2.05038">
        <ele>68</ele>
        <time>2017-11-26T15:34:22.000Z</time>
      </trkpt>
      <trkpt lat="48.97008" lon="2.05027">
        <ele>68</ele>
        <time>2017-11-26T15:34:29.000Z</time>
      </trkpt>
      <trkpt lat="48.96995" lon="2.05026">
        <ele>72</ele>
        <time>2017-11-26T15:34:37.000Z</time>
      </trkpt>
      <trkpt lat="48.96985" lon="2.05024">
        <ele>72</ele>
        <time>2017-11-26T15:34:43.000Z</time>
      </trkpt>
      <trkpt lat="48.96976" lon="2.05015">
        <ele>71</ele>
        <time>2017-11-26T15:34:50.000Z</time>
      </trkpt>
      <trkpt lat="48.96968" lon="2.05008">
        <ele>71</ele>
        <time>2017-11-26T15:34:58.000Z</time>
      </trkpt>
      <trkpt lat="48.96958" lon="2.05">
        <ele>72</ele>
        <time>2017-11-26T15:35:04.000Z</time>
      </trkpt>
      <trkpt lat="48.96949" lon="2.04998">
        <ele>71</ele>
        <time>2017-11-26T15:35:09.000Z</time>
      </trkpt>
      <trkpt lat="48.9694" lon="2.04989">
        <ele>71</ele>
        <time>2017-11-26T15:35:17.000Z</time>
      </trkpt>
      <trkpt lat="48.9693" lon="2.04981">
        <ele>69</ele>
        <time>2017-11-26T15:35:25.000Z</time>
      </trkpt>
      <trkpt lat="48.96923" lon="2.04971">
        <ele>69</ele>
        <time>2017-11-26T15:35:32.000Z</time>
      </trkpt>
      <trkpt lat="48.96913" lon="2.0497">
        <ele>70</ele>
        <time>2017-11-26T15:35:37.000Z</time>
      </trkpt>
      <trkpt lat="48.96906" lon="2.04961">
        <ele>66</ele>
        <time>2017-11-26T15:35:44.000Z</time>
      </trkpt>
      <trkpt lat="48.96896" lon="2.04952">
        <ele>67</ele>
        <time>2017-11-26T15:35:52.000Z</time>
      </trkpt>
      <trkpt lat="48.96888" lon="2.04942">
        <ele>64</ele>
        <time>2017-11-26T15:35:59.000Z</time>
      </trkpt>
      <trkpt lat="48.96877" lon="2.04938">
        <ele>62</ele>
        <time>2017-11-26T15:36:06.000Z</time>
      </trkpt>
      <trkpt lat="48.96867" lon="2.04933">
        <ele>64</ele>
        <time>2017-11-26T15:36:14.000Z</time>
      </trkpt>
      <trkpt lat="48.96856" lon="2.04923">
        <ele>62</ele>
        <time>2017-11-26T15:36:25.000Z</time>
      </trkpt>
      <trkpt lat="48.96845" lon="2.04919">
        <ele>67</ele>
        <time>2017-11-26T15:36:32.000Z</time>
      </trkpt>
      <trkpt lat="48.96837" lon="2.04908">
        <ele>67</ele>
        <time>2017-11-26T15:36:40.000Z</time>
      </trkpt>
      <trkpt lat="48.96827" lon="2.04901">
        <ele>66</ele>
        <time>2017-11-26T15:36:48.000Z</time>
      </trkpt>
      <trkpt lat="48.96814" lon="2.04897">
        <ele>70</ele>
        <time>2017-11-26T15:36:55.000Z</time>
      </trkpt>
      <trkpt lat="48.96802" lon="2.04893">
        <ele>70</ele>
        <time>2017-11-26T15:37:03.000Z</time>
      </trkpt>
      <trkpt lat="48.96793" lon="2.04885">
        <ele>69</ele>
        <time>2017-11-26T15:37:10.000Z</time>
      </trkpt>
      <trkpt lat="48.96786" lon="2.04875">
        <ele>71</ele>
        <time>2017-11-26T15:37:17.000Z</time>
      </trkpt>
      <trkpt lat="48.96779" lon="2.04862">
        <ele>68</ele>
        <time>2017-11-26T15:37:26.000Z</time>
      </trkpt>
      <trkpt lat="48.96769" lon="2.04854">
        <ele>66</ele>
        <time>2017-11-26T15:37:34.000Z</time>
      </trkpt>
      <trkpt lat="48.96758" lon="2.04846">
        <ele>67</ele>
        <time>2017-11-26T15:37:41.000Z</time>
      </trkpt>
      <trkpt lat="48.9675" lon="2.04836">
        <ele>66</ele>
        <time>2017-11-26T15:37:49.000Z</time>
      </trkpt>
      <trkpt lat="48.9674" lon="2.04833">
        <ele>69</ele>
        <time>2017-11-26T15:37:56.000Z</time>
      </trkpt>
      <trkpt lat="48.96733" lon="2.04823">
        <ele>66</ele>
        <time>2017-11-26T15:38:04.000Z</time>
      </trkpt>
      <trkpt lat="48.96726" lon="2.04812">
        <ele>66</ele>
        <time>2017-11-26T15:38:12.000Z</time>
      </trkpt>
      <trkpt lat="48.96718" lon="2.04805">
        <ele>66</ele>
        <time>2017-11-26T15:38:20.000Z</time>
      </trkpt>
      <trkpt lat="48.96707" lon="2.04799">
        <ele>69</ele>
        <time>2017-11-26T15:38:27.000Z</time>
      </trkpt>
      <trkpt lat="48.96696" lon="2.04792">
        <ele>69</ele>
        <time>2017-11-26T15:38:35.000Z</time>
      </trkpt>
      <trkpt lat="48.96685" lon="2.04787">
        <ele>70</ele>
        <time>2017-11-26T15:38:43.000Z</time>
      </trkpt>
      <trkpt lat="48.9668" lon="2.04776">
        <ele>70</ele>
        <time>2017-11-26T15:38:51.000Z</time>
      </trkpt>
      <trkpt lat="48.96669" lon="2.04768">
        <ele>69</ele>
        <time>2017-11-26T15:38:59.000Z</time>
      </trkpt>
      <trkpt lat="48.96658" lon="2.04758">
        <ele>69</ele>
        <time>2017-11-26T15:39:07.000Z</time>
      </trkpt>
      <trkpt lat="48.96648" lon="2.04757">
        <ele>70</ele>
        <time>2017-11-26T15:39:14.000Z</time>
      </trkpt>
      <trkpt lat="48.96642" lon="2.04747">
        <ele>67</ele>
        <time>2017-11-26T15:39:21.000Z</time>
      </trkpt>
      <trkpt lat="48.96633" lon="2.04739">
        <ele>64</ele>
        <time>2017-11-26T15:39:28.000Z</time>
      </trkpt>
      <trkpt lat="48.96623" lon="2.04734">
        <ele>63</ele>
        <time>2017-11-26T15:39:35.000Z</time>
      </trkpt>
      <trkpt lat="48.96613" lon="2.04731">
        <ele>65</ele>
        <time>2017-11-26T15:39:42.000Z</time>
      </trkpt>
      <trkpt lat="48.96603" lon="2.0473">
        <ele>68</ele>
        <time>2017-11-26T15:39:49.000Z</time>
      </trkpt>
      <trkpt lat="48.96598" lon="2.04717">
        <ele>62</ele>
        <time>2017-11-26T15:39:57.000Z</time>
      </trkpt>
      <trkpt lat="48.96587" lon="2.04717">
        <ele>62</ele>
        <time>2017-11-26T15:40:04.000Z</time>
      </trkpt>
      <trkpt lat="48.96577" lon="2.04715">
        <ele>62</ele>
        <time>2017-11-26T15:40:11.000Z</time>
      </trkpt>
      <trkpt lat="48.96563" lon="2.0471">
        <ele>64</ele>
        <time>2017-11-26T15:40:19.000Z</time>
      </trkpt>
      <trkpt lat="48.96552" lon="2.04707">
        <ele>70</ele>
        <time>2017-11-26T15:40:27.000Z</time>
      </trkpt>
      <trkpt lat="48.96542" lon="2.04706">
        <ele>70</ele>
        <time>2017-11-26T15:40:32.000Z</time>
      </trkpt>
      <trkpt lat="48.96531" lon="2.047">
        <ele>71</ele>
        <time>2017-11-26T15:40:40.000Z</time>
      </trkpt>
      <trkpt lat="48.96518" lon="2.04698">
        <ele>70</ele>
        <time>2017-11-26T15:40:48.000Z</time>
      </trkpt>
      <trkpt lat="48.96508" lon="2.04696">
        <ele>70</ele>
        <time>2017-11-26T15:40:56.000Z</time>
      </trkpt>
      <trkpt lat="48.96498" lon="2.0469">
        <ele>67</ele>
        <time>2017-11-26T15:41:04.000Z</time>
      </trkpt>
      <trkpt lat="48.96487" lon="2.04687">
        <ele>70</ele>
        <time>2017-11-26T15:41:11.000Z</time>
      </trkpt>
      <trkpt lat="48.96476" lon="2.04679">
        <ele>67</ele>
        <time>2017-11-26T15:41:17.000Z</time>
      </trkpt>
      <trkpt lat="48.96466" lon="2.04672">
        <ele>66</ele>
        <time>2017-11-26T15:41:25.000Z</time>
      </trkpt>
      <trkpt lat="48.96456" lon="2.04676">
        <ele>68</ele>
        <time>2017-11-26T15:41:30.000Z</time>
      </trkpt>
      <trkpt lat="48.96447" lon="2.0467">
        <ele>66</ele>
        <time>2017-11-26T15:41:38.000Z</time>
      </trkpt>
      <trkpt lat="48.96434" lon="2.04664">
        <ele>65</ele>
        <time>2017-11-26T15:41:46.000Z</time>
      </trkpt>
      <trkpt lat="48.9642" lon="2.04664">
        <ele>65</ele>
        <time>2017-11-26T15:41:56.000Z</time>
      </trkpt>
      <trkpt lat="48.96407" lon="2.04667">
        <ele>65</ele>
        <time>2017-11-26T15:42:04.000Z</time>
      </trkpt>
      <trkpt lat="48.96394" lon="2.04665">
        <ele>67</ele>
        <time>2017-11-26T15:42:12.000Z</time>
      </trkpt>
      <trkpt lat="48.96384" lon="2.04661">
        <ele>68</ele>
        <time>2017-11-26T15:42:19.000Z</time>
      </trkpt>
      <trkpt lat="48.96374" lon="2.0466">
        <ele>70</ele>
        <time>2017-11-26T15:42:25.000Z</time>
      </trkpt>
      <trkpt lat="48.9636" lon="2.04663">
        <ele>75</ele>
        <time>2017-11-26T15:42:33.000Z</time>
      </trkpt>
      <trkpt lat="48.96351" lon="2.04656">
        <ele>73</ele>
        <time>2017-11-26T15:42:40.000Z</time>
      </trkpt>
      <trkpt lat="48.96339" lon="2.04648">
        <ele>72</ele>
        <time>2017-11-26T15:42:49.000Z</time>
      </trkpt>
      <trkpt lat="48.96327" lon="2.04641">
        <ele>72</ele>
        <time>2017-11-26T15:42:57.000Z</time>
      </trkpt>
      <trkpt lat="48.96316" lon="2.0464">
        <ele>74</ele>
        <time>2017-11-26T15:43:04.000Z</time>
      </trkpt>
      <trkpt lat="48.96306" lon="2.04635">
        <ele>74</ele>
        <time>2017-11-26T15:43:12.000Z</time>
      </trkpt>
      <trkpt lat="48.96297" lon="2.04633">
        <ele>76</ele>
        <time>2017-11-26T15:43:19.000Z</time>
      </trkpt>
      <trkpt lat="48.96286" lon="2.04636">
        <ele>75</ele>
        <time>2017-11-26T15:43:26.000Z</time>
      </trkpt>
      <trkpt lat="48.96276" lon="2.04639">
        <ele>78</ele>
        <time>2017-11-26T15:43:33.000Z</time>
      </trkpt>
      <trkpt lat="48.96267" lon="2.04639">
        <ele>75</ele>
        <time>2017-11-26T15:43:40.000Z</time>
      </trkpt>
      <trkpt lat="48.96256" lon="2.04635">
        <ele>72</ele>
        <time>2017-11-26T15:43:49.000Z</time>
      </trkpt>
      <trkpt lat="48.96244" lon="2.04632">
        <ele>72</ele>
        <time>2017-11-26T15:43:57.000Z</time>
      </trkpt>
      <trkpt lat="48.96233" lon="2.0463">
        <ele>72</ele>
        <time>2017-11-26T15:44:05.000Z</time>
      </trkpt>
      <trkpt lat="48.96222" lon="2.04626">
        <ele>68</ele>
        <time>2017-11-26T15:44:14.000Z</time>
      </trkpt>
      <trkpt lat="48.96211" lon="2.04617">
        <ele>67</ele>
        <time>2017-11-26T15:44:22.000Z</time>
      </trkpt>
      <trkpt lat="48.962" lon="2.04615">
        <ele>68</ele>
        <time>2017-11-26T15:44:29.000Z</time>
      </trkpt>
      <trkpt lat="48.9619" lon="2.04622">
        <ele>69</ele>
        <time>2017-11-26T15:44:34.000Z</time>
      </trkpt>
      <trkpt lat="48.9618" lon="2.04625">
        <ele>72</ele>
        <time>2017-11-26T15:44:39.000Z</time>
      </trkpt>
      <trkpt lat="48.96171" lon="2.04621">
        <ele>68</ele>
        <time>2017-11-26T15:44:48.000Z</time>
      </trkpt>
      <trkpt lat="48.96161" lon="2.04619">
        <ele>65</ele>
        <time>2017-11-26T15:44:57.000Z</time>
      </trkpt>
      <trkpt lat="48.9615" lon="2.04617">
        <ele>64</ele>
        <time>2017-11-26T15:45:05.000Z</time>
      </trkpt>
      <trkpt lat="48.96138" lon="2.04618">
        <ele>68</ele>
        <time>2017-11-26T15:45:12.000Z</time>
      </trkpt>
      <trkpt lat="48.96129" lon="2.04618">
        <ele>71</ele>
        <time>2017-11-26T15:45:18.000Z</time>
      </trkpt>
      <trkpt lat="48.96117" lon="2.04613">
        <ele>67</ele>
        <time>2017-11-26T15:45:27.000Z</time>
      </trkpt>
      <trkpt lat="48.96108" lon="2.04612">
        <ele>65</ele>
        <time>2017-11-26T15:45:34.000Z</time>
      </trkpt>
      <trkpt lat="48.96098" lon="2.04611">
        <ele>66</ele>
        <time>2017-11-26T15:45:41.000Z</time>
      </trkpt>
      <trkpt lat="48.96089" lon="2.04617">
        <ele>69</ele>
        <time>2017-11-26T15:45:46.000Z</time>
      </trkpt>
      <trkpt lat="48.96078" lon="2.04611">
        <ele>68</ele>
        <time>2017-11-26T15:45:56.000Z</time>
      </trkpt>
      <trkpt lat="48.96069" lon="2.04615">
        <ele>72</ele>
        <time>2017-11-26T15:46:01.000Z</time>
      </trkpt>
      <trkpt lat="48.96058" lon="2.04612">
        <ele>70</ele>
        <time>2017-11-26T15:46:09.000Z</time>
      </trkpt>
      <trkpt lat="48.96049" lon="2.04608">
        <ele>69</ele>
        <time>2017-11-26T15:46:15.000Z</time>
      </trkpt>
      <trkpt lat="48.96037" lon="2.04609">
        <ele>68</ele>
        <time>2017-11-26T15:46:23.000Z</time>
      </trkpt>
      <trkpt lat="48.96024" lon="2.04607">
        <ele>70</ele>
        <time>2017-11-26T15:46:33.000Z</time>
      </trkpt>
      <trkpt lat="48.96013" lon="2.04606">
        <ele>70</ele>
        <time>2017-11-26T15:46:40.000Z</time>
      </trkpt>
      <trkpt lat="48.96001" lon="2.04608">
        <ele>69</ele>
        <time>2017-11-26T15:46:47.000Z</time>
      </trkpt>
      <trkpt lat="48.95991" lon="2.04609">
        <ele>70</ele>
        <time>2017-11-26T15:46:53.000Z</time>
      </trkpt>
      <trkpt lat="48.95982" lon="2.04609">
        <ele>68</ele>
        <time>2017-11-26T15:47:00.000Z</time>
      </trkpt>
      <trkpt lat="48.95971" lon="2.04608">
        <ele>68</ele>
        <time>2017-11-26T15:47:07.000Z</time>
      </trkpt>
      <trkpt lat="48.95961" lon="2.04608">
        <ele>66</ele>
        <time>2017-11-26T15:47:14.000Z</time>
      </trkpt>
      <trkpt lat="48.95949" lon="2.0461">
        <ele>67</ele>
        <time>2017-11-26T15:47:21.000Z</time>
      </trkpt>
      <trkpt lat="48.95937" lon="2.04612">
        <ele>67</ele>
        <time>2017-11-26T15:47:29.000Z</time>
      </trkpt>
      <trkpt lat="48.95925" lon="2.04613">
        <ele>65</ele>
        <time>2017-11-26T15:47:38.000Z</time>
      </trkpt>
      <trkpt lat="48.95915" lon="2.04613">
        <ele>67</ele>
        <time>2017-11-26T15:47:45.000Z</time>
      </trkpt>
      <trkpt lat="48.95906" lon="2.04612">
        <ele>68</ele>
        <time>2017-11-26T15:47:51.000Z</time>
      </trkpt>
      <trkpt lat="48.95894" lon="2.04614">
        <ele>69</ele>
        <time>2017-11-26T15:47:58.000Z</time>
      </trkpt>
      <trkpt lat="48.95883" lon="2.04611">
        <ele>70</ele>
        <time>2017-11-26T15:48:06.000Z</time>
      </trkpt>
      <trkpt lat="48.95873" lon="2.04612">
        <ele>69</ele>
        <time>2017-11-26T15:48:12.000Z</time>
      </trkpt>
      <trkpt lat="48.95863" lon="2.04616">
        <ele>69</ele>
        <time>2017-11-26T15:48:18.000Z</time>
      </trkpt>
      <trkpt lat="48.95852" lon="2.04618">
        <ele>66</ele>
        <time>2017-11-26T15:48:26.000Z</time>
      </trkpt>
      <trkpt lat="48.95842" lon="2.04617">
        <ele>64</ele>
        <time>2017-11-26T15:48:33.000Z</time>
      </trkpt>
      <trkpt lat="48.95831" lon="2.04619">
        <ele>67</ele>
        <time>2017-11-26T15:48:42.000Z</time>
      </trkpt>
      <trkpt lat="48.95819" lon="2.04616">
        <ele>67</ele>
        <time>2017-11-26T15:48:49.000Z</time>
      </trkpt>
      <trkpt lat="48.95808" lon="2.04614">
        <ele>67</ele>
        <time>2017-11-26T15:48:56.000Z</time>
      </trkpt>
      <trkpt lat="48.95797" lon="2.04616">
        <ele>68</ele>
        <time>2017-11-26T15:49:03.000Z</time>
      </trkpt>
      <trkpt lat="48.95788" lon="2.04613">
        <ele>65</ele>
        <time>2017-11-26T15:49:11.000Z</time>
      </trkpt>
      <trkpt lat="48.95779" lon="2.04613">
        <ele>65</ele>
        <time>2017-11-26T15:49:18.000Z</time>
      </trkpt>
      <trkpt lat="48.95769" lon="2.04611">
        <ele>67</ele>
        <time>2017-11-26T15:49:25.000Z</time>
      </trkpt>
      <trkpt lat="48.95757" lon="2.04614">
        <ele>70</ele>
        <time>2017-11-26T15:49:34.000Z</time>
      </trkpt>
      <trkpt lat="48.95746" lon="2.04614">
        <ele>67</ele>
        <time>2017-11-26T15:49:42.000Z</time>
      </trkpt>
      <trkpt lat="48.95733" lon="2.04615">
        <ele>64</ele>
        <time>2017-11-26T15:49:51.000Z</time>
      </trkpt>
      <trkpt lat="48.95721" lon="2.04612">
        <ele>64</ele>
        <time>2017-11-26T15:50:01.000Z</time>
      </trkpt>
      <trkpt lat="48.9571" lon="2.04614">
        <ele>68</ele>
        <time>2017-11-26T15:50:09.000Z</time>
      </trkpt>
      <trkpt lat="48.957" lon="2.04608">
        <ele>66</ele>
        <time>2017-11-26T15:50:17.000Z</time>
      </trkpt>
      <trkpt lat="48.9569" lon="2.04611">
        <ele>67</ele>
        <time>2017-11-26T15:50:24.581Z</time>
      </trkpt>
      <trkpt lat="48.9568" lon="2.04614">
        <ele>66</ele>
        <time>2017-11-26T15:50:32.000Z</time>
      </trkpt>
      <trkpt lat="48.95669" lon="2.04614">
        <ele>65</ele>
        <time>2017-11-26T15:50:39.000Z</time>
      </trkpt>
      <trkpt lat="48.9566" lon="2.04614">
        <ele>66</ele>
        <time>2017-11-26T15:50:45.000Z</time>
      </trkpt>
      <trkpt lat="48.9565" lon="2.04613">
        <ele>67</ele>
        <time>2017-11-26T15:50:52.000Z</time>
      </trkpt>
      <trkpt lat="48.9564" lon="2.04612">
        <ele>68</ele>
        <time>2017-11-26T15:50:59.000Z</time>
      </trkpt>
      <trkpt lat="48.95628" lon="2.04612">
        <ele>68</ele>
        <time>2017-11-26T15:51:07.000Z</time>
      </trkpt>
      <trkpt lat="48.95617" lon="2.0461">
        <ele>70</ele>
        <time>2017-11-26T15:51:15.000Z</time>
      </trkpt>
      <trkpt lat="48.95607" lon="2.04612">
        <ele>71</ele>
        <time>2017-11-26T15:51:24.000Z</time>
      </trkpt>
      <trkpt lat="48.95598" lon="2.04612">
        <ele>71</ele>
        <time>2017-11-26T15:51:31.000Z</time>
      </trkpt>
      <trkpt lat="48.95588" lon="2.04615">
        <ele>68</ele>
        <time>2017-11-26T15:51:42.000Z</time>
      </trkpt>
      <trkpt lat="48.95575" lon="2.04613">
        <ele>67</ele>
        <time>2017-11-26T15:51:53.000Z</time>
      </trkpt>
      <trkpt lat="48.95564" lon="2.0461">
        <ele>66</ele>
        <time>2017-11-26T15:52:02.000Z</time>
      </trkpt>
      <trkpt lat="48.95555" lon="2.04607">
        <ele>65</ele>
        <time>2017-11-26T15:52:09.000Z</time>
      </trkpt>
      <trkpt lat="48.95543" lon="2.04605">
        <ele>65</ele>
        <time>2017-11-26T15:52:19.000Z</time>
      </trkpt>
      <trkpt lat="48.95533" lon="2.04604">
        <ele>64</ele>
        <time>2017-11-26T15:52:27.000Z</time>
      </trkpt>
      <trkpt lat="48.95523" lon="2.04603">
        <ele>64</ele>
        <time>2017-11-26T15:52:36.000Z</time>
      </trkpt>
      <trkpt lat="48.95514" lon="2.04603">
        <ele>64</ele>
        <time>2017-11-26T15:52:44.000Z</time>
      </trkpt>
      <trkpt lat="48.95503" lon="2.04602">
        <ele>65</ele>
        <time>2017-11-26T15:52:51.000Z</time>
      </trkpt>
      <trkpt lat="48.95495" lon="2.04604">
        <ele>67</ele>
        <time>2017-11-26T15:52:58.000Z</time>
      </trkpt>
      <trkpt lat="48.95482" lon="2.04599">
        <ele>64</ele>
        <time>2017-11-26T15:53:08.000Z</time>
      </trkpt>
      <trkpt lat="48.95473" lon="2.04599">
        <ele>65</ele>
        <time>2017-11-26T15:53:15.000Z</time>
      </trkpt>
      <trkpt lat="48.95464" lon="2.04598">
        <ele>67</ele>
        <time>2017-11-26T15:53:23.000Z</time>
      </trkpt>
      <trkpt lat="48.95454" lon="2.04598">
        <ele>67</ele>
        <time>2017-11-26T15:53:31.000Z</time>
      </trkpt>
      <trkpt lat="48.95445" lon="2.04596">
        <ele>66</ele>
        <time>2017-11-26T15:53:39.000Z</time>
      </trkpt>
      <trkpt lat="48.95436" lon="2.04595">
        <ele>67</ele>
        <time>2017-11-26T15:53:48.000Z</time>
      </trkpt>
      <trkpt lat="48.95429" lon="2.04587">
        <ele>65</ele>
        <time>2017-11-26T15:54:15.000Z</time>
      </trkpt>
      <trkpt lat="48.95435" lon="2.04573">
        <ele>51</ele>
        <time>2017-11-26T15:56:48.000Z</time>
      </trkpt>
      <trkpt lat="48.95429" lon="2.04584">
        <ele>62</ele>
        <time>2017-11-26T15:58:41.000Z</time>
      </trkpt>
    </trkseg>
  </trk>
</gpx>